[[{"header":{"parameterUnit":"m.s-1","parameterCategory":1,"la1":30.6,"la2":29.2853,"lo1":-89.7004,"lo2":-87.6739,"dy":0.0162,"dx":0.0183,"nx":112,"ny":82,"refTime":"2026-05-20T12:00:00:Z","depth":0,"parameterNumber":2,"parameterNumberName":"U-component_of_WINDS"},"data":[0.0,0.0,0.0,0.0,0.0,0.0,0.0,0.0,0.0,0.0,0.0,0.0,0.0,0.0,0.0,0.0,0.0,0.0,0.0,0.0,0.0,0.0,0.0,0.0,0.0,0.0,0.0,0.0,0.0,0.0,0.0,0.0,0.0,0.0,0.0,0.0,0.0,0.0,0.0,0.0,0.0,0.0,0.0,0.0,0.0,0.0,0.0,0.0,0.0,0.0,0.0,0.0,0.0,0.0,0.0,0.0,0.0,0.0,0.0,0.0,0.0,0.0,0.0,0.0,0.0,0.0,0.0,0.0,0.0,0.0,0.0,0.0,0.0,0.0,0.0,0.0,0.0,0.0,0.0,0.0,0.0,0.0,0.0,0.0,0.0,0.0,0.0,0.0,0.0,0.0,-4.4668,-4.7676,-4.9761,-5.1249,-5.2057,-5.0221,-4.7914,-4.5275,0.0,0.0,0.0,0.0,0.0,0.0,0.0,0.0,0.0,0.0,0.0,0.0,0.0,0.0,0.0,0.0,0.0,0.0,0.0,0.0,0.0,0.0,0.0,0.0,0.0,0.0,0.0,0.0,0.0,0.0,0.0,0.0,0.0,0.0,0.0,0.0,0.0,0.0,0.0,0.0,0.0,0.0,0.0,0.0,0.0,0.0,0.0,0.0,0.0,0.0,0.0,0.0,0.0,0.0,0.0,0.0,0.0,0.0,0.0,0.0,0.0,0.0,0.0,0.0,0.0,0.0,0.0,0.0,0.0,0.0,0.0,0.0,0.0,0.0,0.0,0.0,0.0,0.0,0.0,0.0,0.0,0.0,0.0,0.0,0.0,0.0,0.0,0.0,0.0,0.0,0.0,0.0,0.0,0.0,0.0,0.0,0.0,0.0,0.0,0.0,0.0,0.0,0.0,0.0,-4.4453,-4.9297,-5.0016,-5.0472,-5.122,-4.8877,-4.6709,-4.5199,0.0,0.0,0.0,0.0,0.0,0.0,0.0,0.0,0.0,0.0,0.0,0.0,0.0,0.0,0.0,0.0,0.0,0.0,0.0,0.0,0.0,0.0,0.0,0.0,0.0,0.0,0.0,0.0,0.0,0.0,0.0,0.0,0.0,0.0,0.0,0.0,0.0,0.0,0.0,0.0,0.0,0.0,0.0,0.0,0.0,0.0,0.0,0.0,0.0,0.0,0.0,0.0,0.0,0.0,0.0,0.0,0.0,0.0,0.0,0.0,0.0,0.0,0.0,0.0,0.0,0.0,0.0,0.0,0.0,0.0,0.0,0.0,0.0,0.0,0.0,0.0,0.0,0.0,0.0,0.0,0.0,0.0,0.0,0.0,0.0,0.0,0.0,0.0,0.0,0.0,0.0,0.0,0.0,0.0,0.0,0.0,0.0,0.0,0.0,0.0,0.0,0.0,0.0,-4.375,-4.5781,-4.9141,-4.9807,-4.9926,-4.9702,-4.8036,-4.6325,-4.4767,-4.2294,0.0,0.0,0.0,0.0,0.0,0.0,0.0,0.0,0.0,0.0,0.0,0.0,0.0,0.0,0.0,0.0,0.0,0.0,0.0,0.0,0.0,0.0,0.0,0.0,0.0,0.0,0.0,0.0,0.0,0.0,0.0,0.0,0.0,0.0,0.0,0.0,0.0,0.0,0.0,0.0,0.0,0.0,0.0,0.0,0.0,0.0,0.0,0.0,0.0,0.0,0.0,0.0,0.0,0.0,0.0,0.0,0.0,0.0,0.0,0.0,0.0,0.0,0.0,0.0,0.0,0.0,0.0,0.0,0.0,0.0,0.0,0.0,0.0,0.0,0.0,0.0,0.0,0.0,0.0,0.0,0.0,0.0,0.0,0.0,0.0,0.0,0.0,0.0,0.0,0.0,0.0,0.0,0.0,0.0,0.0,0.0,0.0,0.0,0.0,0.0,0.0,0.0,-4.5683,-4.7207,-4.873,-4.9229,-4.9186,-4.8596,-4.7065,-4.5551,-4.4126,-4.1443,0.0,0.0,0.0,0.0,0.0,0.0,0.0,0.0,0.0,0.0,0.0,0.0,0.0,0.0,0.0,0.0,0.0,0.0,0.0,0.0,0.0,0.0,0.0,0.0,0.0,0.0,0.0,0.0,0.0,0.0,0.0,0.0,0.0,0.0,0.0,0.0,0.0,0.0,0.0,0.0,0.0,0.0,0.0,0.0,0.0,0.0,0.0,0.0,0.0,0.0,0.0,0.0,0.0,0.0,0.0,0.0,0.0,0.0,0.0,0.0,0.0,0.0,0.0,0.0,0.0,0.0,0.0,0.0,0.0,0.0,0.0,0.0,0.0,0.0,0.0,0.0,0.0,0.0,0.0,0.0,0.0,0.0,0.0,0.0,0.0,0.0,0.0,0.0,0.0,0.0,0.0,0.0,0.0,0.0,0.0,0.0,0.0,0.0,0.0,0.0,0.0,0.0,-4.5469,-4.7871,-4.8808,-4.8222,-4.8022,-4.8621,-4.5592,-4.3549,-4.3279,-4.0067,0.0,0.0,0.0,0.0,0.0,0.0,0.0,0.0,0.0,0.0,0.0,0.0,0.0,0.0,0.0,0.0,0.0,0.0,0.0,0.0,0.0,0.0,0.0,0.0,0.0,0.0,0.0,0.0,0.0,0.0,0.0,0.0,0.0,0.0,0.0,0.0,0.0,0.0,0.0,0.0,0.0,0.0,0.0,0.0,0.0,0.0,0.0,0.0,0.0,0.0,0.0,0.0,0.0,0.0,0.0,0.0,0.0,0.0,0.0,0.0,0.0,0.0,0.0,0.0,0.0,0.0,0.0,0.0,0.0,0.0,0.0,0.0,0.0,0.0,0.0,0.0,0.0,0.0,0.0,0.0,0.0,0.0,0.0,0.0,0.0,0.0,0.0,0.0,0.0,0.0,0.0,0.0,0.0,0.0,0.0,0.0,0.0,0.0,0.0,0.0,0.0,0.0,-4.3711,-4.5703,-4.7129,-4.7461,-4.7243,-4.6347,-4.5036,-4.3518,-4.1753,0.0,0.0,0.0,0.0,0.0,0.0,0.0,0.0,0.0,0.0,0.0,0.0,0.0,0.0,0.0,0.0,0.0,0.0,0.0,0.0,0.0,0.0,0.0,0.0,0.0,0.0,0.0,0.0,0.0,0.0,0.0,0.0,0.0,0.0,0.0,0.0,0.0,0.0,0.0,0.0,0.0,0.0,0.0,0.0,0.0,0.0,0.0,0.0,0.0,0.0,0.0,0.0,0.0,0.0,0.0,0.0,0.0,0.0,0.0,0.0,0.0,0.0,0.0,0.0,0.0,0.0,0.0,0.0,0.0,0.0,0.0,0.0,0.0,0.0,0.0,0.0,0.0,0.0,0.0,0.0,0.0,0.0,0.0,0.0,0.0,0.0,0.0,0.0,0.0,0.0,0.0,0.0,0.0,0.0,0.0,0.0,0.0,0.0,0.0,0.0,0.0,0.0,-4.0137,-4.2303,-4.4139,-4.5351,-4.6016,-4.5838,-4.4552,-4.3677,-4.227,-4.0101,0.0,0.0,0.0,0.0,0.0,0.0,0.0,0.0,0.0,0.0,0.0,0.0,0.0,0.0,0.0,0.0,0.0,0.0,0.0,0.0,0.0,0.0,0.0,0.0,0.0,0.0,0.0,0.0,0.0,0.0,0.0,0.0,0.0,0.0,0.0,0.0,0.0,0.0,0.0,0.0,0.0,0.0,0.0,0.0,0.0,0.0,0.0,0.0,0.0,0.0,0.0,0.0,0.0,0.0,0.0,0.0,0.0,0.0,0.0,0.0,0.0,0.0,0.0,0.0,0.0,0.0,0.0,0.0,0.0,0.0,0.0,0.0,0.0,0.0,0.0,0.0,0.0,0.0,0.0,0.0,0.0,0.0,0.0,0.0,0.0,0.0,0.0,0.0,0.0,0.0,0.0,0.0,0.0,0.0,0.0,0.0,0.0,0.0,0.0,0.0,0.0,0.0,-3.8574,-4.1529,-4.3612,-4.3691,-4.3691,-4.3691,-4.3691,-4.1258,-3.9345,0.0,0.0,0.0,0.0,0.0,0.0,0.0,0.0,0.0,0.0,0.0,0.0,0.0,0.0,0.0,0.0,0.0,0.0,0.0,0.0,0.0,0.0,0.0,0.0,0.0,0.0,0.0,0.0,0.0,0.0,0.0,0.0,0.0,0.0,0.0,0.0,0.0,0.0,0.0,0.0,0.0,0.0,0.0,0.0,0.0,0.0,0.0,0.0,0.0,0.0,0.0,0.0,0.0,0.0,0.0,0.0,0.0,0.0,0.0,0.0,0.0,0.0,0.0,0.0,0.0,0.0,0.0,0.0,0.0,0.0,0.0,0.0,0.0,0.0,0.0,0.0,0.0,0.0,0.0,0.0,0.0,0.0,0.0,0.0,0.0,0.0,0.0,0.0,0.0,0.0,0.0,0.0,0.0,0.0,0.0,0.0,0.0,0.0,0.0,0.0,0.0,0.0,0.0,-3.8496,-4.0982,-4.2949,-4.3633,-4.3691,-4.3457,-4.2832,-4.1542,-3.9836,-3.7682,0.0,0.0,0.0,0.0,0.0,0.0,0.0,0.0,0.0,0.0,0.0,0.0,0.0,0.0,0.0,0.0,0.0,0.0,0.0,0.0,0.0,0.0,0.0,0.0,0.0,0.0,0.0,0.0,0.0,0.0,0.0,0.0,0.0,0.0,0.0,0.0,0.0,0.0,0.0,0.0,0.0,0.0,0.0,0.0,0.0,0.0,0.0,0.0,0.0,0.0,0.0,0.0,0.0,0.0,0.0,0.0,0.0,0.0,0.0,0.0,0.0,0.0,0.0,0.0,0.0,0.0,0.0,0.0,0.0,0.0,0.0,0.0,0.0,0.0,0.0,0.0,0.0,0.0,0.0,0.0,0.0,0.0,0.0,0.0,0.0,0.0,0.0,0.0,0.0,0.0,0.0,0.0,0.0,0.0,0.0,0.0,0.0,0.0,0.0,0.0,0.0,0.0,-3.7391,-3.9376,-4.1066,-4.2004,-4.1835,-4.1445,-4.0937,-4.0117,-3.8651,-3.6355,0.0,0.0,0.0,0.0,0.0,0.0,0.0,0.0,0.0,0.0,0.0,0.0,0.0,0.0,0.0,0.0,0.0,0.0,0.0,0.0,0.0,0.0,0.0,0.0,0.0,0.0,0.0,0.0,0.0,0.0,0.0,0.0,0.0,0.0,0.0,0.0,0.0,0.0,0.0,0.0,0.0,0.0,0.0,0.0,0.0,0.0,0.0,0.0,0.0,0.0,0.0,0.0,0.0,0.0,0.0,0.0,0.0,0.0,0.0,0.0,0.0,0.0,0.0,0.0,0.0,0.0,0.0,0.0,0.0,0.0,0.0,0.0,0.0,0.0,0.0,0.0,0.0,0.0,0.0,0.0,0.0,0.0,0.0,0.0,0.0,0.0,0.0,0.0,0.0,0.0,0.0,0.0,0.0,0.0,0.0,0.0,0.0,0.0,0.0,0.0,0.0,0.0,-3.565,-3.7254,-3.8624,-3.9477,-3.8975,-3.8574,-3.8574,-3.7793,-3.6582,-3.4921,0.0,0.0,0.0,0.0,0.0,0.0,0.0,0.0,0.0,0.0,0.0,0.0,0.0,0.0,0.0,0.0,0.0,0.0,0.0,0.0,0.0,0.0,0.0,0.0,0.0,0.0,0.0,0.0,0.0,0.0,0.0,0.0,0.0,0.0,0.0,0.0,0.0,0.0,0.0,0.0,0.0,0.0,0.0,0.0,0.0,0.0,0.0,0.0,0.0,0.0,0.0,0.0,0.0,0.0,0.0,0.0,0.0,0.0,0.0,0.0,-3.7784,-3.7505,0.0,0.0,0.0,0.0,0.0,0.0,0.0,0.0,0.0,0.0,0.0,0.0,0.0,0.0,0.0,0.0,0.0,0.0,0.0,0.0,0.0,0.0,0.0,0.0,0.0,0.0,0.0,0.0,0.0,0.0,0.0,0.0,0.0,0.0,0.0,0.0,0.0,0.0,0.0,0.0,-3.4835,-3.6837,-3.8315,-3.8579,-3.851,-3.8436,-3.8436,-3.7731,-3.6834,-3.5703,-3.4394,0.0,0.0,0.0,0.0,0.0,0.0,0.0,0.0,0.0,0.0,0.0,0.0,0.0,0.0,0.0,0.0,0.0,0.0,0.0,0.0,0.0,0.0,0.0,0.0,0.0,0.0,0.0,0.0,0.0,0.0,0.0,0.0,0.0,0.0,0.0,0.0,0.0,0.0,0.0,0.0,0.0,0.0,0.0,0.0,0.0,0.0,0.0,0.0,0.0,0.0,0.0,0.0,0.0,0.0,0.0,0.0,0.0,0.0,0.0,-3.9092,-3.8742,0.0,0.0,0.0,0.0,0.0,0.0,0.0,0.0,0.0,0.0,0.0,0.0,0.0,0.0,0.0,0.0,0.0,0.0,0.0,0.0,0.0,0.0,0.0,0.0,0.0,0.0,0.0,0.0,0.0,0.0,0.0,0.0,0.0,0.0,0.0,0.0,0.0,0.0,0.0,0.0,-3.4443,-3.5947,-3.7113,-3.7588,-3.73,-3.7097,-3.7102,-3.6742,-3.5974,-3.4676,-3.3785,0.0,0.0,0.0,0.0,0.0,0.0,0.0,0.0,0.0,0.0,0.0,0.0,0.0,0.0,0.0,0.0,0.0,0.0,0.0,0.0,0.0,0.0,0.0,0.0,0.0,0.0,0.0,0.0,0.0,0.0,0.0,0.0,0.0,0.0,0.0,0.0,0.0,0.0,0.0,0.0,0.0,0.0,0.0,0.0,0.0,0.0,0.0,0.0,0.0,0.0,0.0,0.0,0.0,-4.146,-4.1534,-4.1534,-4.1534,-4.1449,-4.1327,-4.0537,-4.0209,-4.0197,-3.9519,0.0,0.0,0.0,0.0,0.0,0.0,0.0,0.0,0.0,0.0,0.0,0.0,0.0,0.0,0.0,0.0,0.0,0.0,0.0,0.0,0.0,0.0,-3.4612,-3.3744,-3.3537,-3.3507,-3.3327,0.0,0.0,0.0,0.0,0.0,0.0,0.0,0.0,0.0,0.0,0.0,-3.3848,-3.4637,-3.5392,-3.6128,-3.5628,-3.5251,-3.5256,-3.5256,-3.4678,-3.3271,-3.3051,-3.2049,0.0,0.0,0.0,0.0,0.0,0.0,0.0,0.0,0.0,0.0,0.0,0.0,0.0,0.0,0.0,0.0,0.0,0.0,0.0,0.0,0.0,0.0,0.0,0.0,0.0,0.0,0.0,0.0,0.0,0.0,0.0,0.0,-3.5555,-3.4401,0.0,0.0,0.0,0.0,0.0,0.0,0.0,0.0,0.0,0.0,0.0,0.0,0.0,-4.023,-4.0946,-4.1754,-4.2139,-4.2158,-4.2837,-4.3167,-4.3167,-4.3167,-4.2939,-4.2427,-4.1651,0.0,-3.9958,-3.9834,0.0,0.0,0.0,0.0,0.0,0.0,0.0,0.0,0.0,0.0,0.0,0.0,0.0,0.0,0.0,0.0,0.0,0.0,0.0,0.0,0.0,0.0,-3.517,-3.4284,-3.4097,-3.4161,-3.4431,-3.2986,-3.1607,-3.1492,-3.1097,-3.0742,0.0,0.0,0.0,0.0,0.0,0.0,-3.2128,-3.2797,-3.3294,-3.3426,-3.3448,-3.343,-3.3434,-3.35,-3.3408,-3.3139,-3.246,-3.1903,-3.151,-3.0108,0.0,0.0,0.0,0.0,0.0,0.0,0.0,0.0,0.0,0.0,0.0,0.0,0.0,0.0,0.0,0.0,0.0,0.0,0.0,0.0,0.0,0.0,0.0,0.0,0.0,0.0,0.0,0.0,0.0,-3.529,-3.6599,-3.5509,-3.6383,-3.6514,0.0,0.0,0.0,0.0,0.0,0.0,0.0,0.0,0.0,-3.887,-4.0088,-4.1081,-4.1772,-4.2561,-4.2965,-4.2983,-4.3314,-4.3497,-4.3461,-4.302,-4.2715,-4.2413,-4.1307,-4.0293,-3.9431,-3.9156,-3.7897,-3.6131,0.0,0.0,0.0,0.0,-3.5299,-3.4872,-3.4872,-3.4574,-3.4078,-3.3418,0.0,0.0,0.0,0.0,0.0,0.0,0.0,-3.4832,-3.434,-3.4377,-3.4456,-3.4079,-3.3622,-3.334,-3.35,-3.2171,-3.1167,-3.1884,-3.1598,-3.1062,-3.0568,-3.0491,0.0,0.0,0.0,-3.1766,-3.1792,-3.2435,-3.2903,-3.291,-3.2949,-3.3,-3.2993,-3.3006,-3.2828,-3.2334,-3.197,-3.1564,-3.1099,-2.9882,-2.9098,0.0,0.0,0.0,0.0,0.0,0.0,0.0,0.0,0.0,0.0,0.0,0.0,0.0,0.0,0.0,0.0,0.0,0.0,0.0,0.0,0.0,0.0,0.0,0.0,0.0,0.0,0.0,0.0,-3.6044,-3.7317,-3.656,-3.7123,-3.7126,0.0,0.0,0.0,0.0,0.0,0.0,-3.7584,-3.84,-3.9082,-3.959,-4.0978,-4.1996,-4.2598,-4.3185,-4.3497,-4.3497,-4.3375,-4.3304,-4.3267,-4.2321,-4.1796,-4.1578,-4.0199,-3.9185,-3.8498,-3.8419,-3.7403,-3.5932,-3.6344,-3.6016,-3.5349,-3.5915,-3.5542,-3.483,-3.4962,-3.4486,-3.3723,-3.3327,-3.3067,-3.2818,-3.235,0.0,0.0,0.0,0.0,-3.4099,-3.4099,-3.3806,-3.3486,-3.3476,-3.2892,-3.2271,-3.2298,-3.1389,-3.0882,-3.1838,-3.1574,-3.1009,-3.0405,-3.0302,0.0,-3.0452,-3.097,-3.1303,-3.1122,-3.1786,-3.218,-3.1946,-3.1931,-3.1923,-3.1931,-3.1934,-3.166,-3.1064,-3.1244,-3.1099,-3.0501,-2.9847,-2.9438,-2.9272,0.0,0.0,0.0,0.0,0.0,0.0,0.0,0.0,0.0,0.0,0.0,0.0,0.0,0.0,0.0,0.0,0.0,0.0,0.0,0.0,0.0,0.0,0.0,0.0,0.0,0.0,0.0,0.0,0.0,-3.6852,-3.8051,0.0,0.0,0.0,0.0,-3.7473,-3.8544,-3.9211,-3.9287,-4.0029,-4.074,-4.1266,-4.217,-4.2867,-4.3424,-4.3461,-4.3497,-4.3479,-4.2976,-4.275,-4.2714,-4.1381,-4.0458,-3.9825,-3.839,-3.7422,-3.6968,-3.8,-3.7403,-3.5878,-3.5932,-3.5437,-3.4801,-3.5349,-3.5042,-3.4406,-3.4859,-3.4486,-3.3788,-3.3778,-3.3246,-3.2621,-3.2566,-3.2603,0.0,0.0,-3.3209,-3.3815,-3.3815,-3.324,-3.2655,-3.2658,-3.2038,-3.1462,-3.1458,-3.1011,-3.0623,-3.0686,-3.0222,-2.9846,-2.9997,0.0,-3.011,-3.0383,-3.0448,-3.0179,-2.9333,-2.9987,-3.0213,-2.9375,-2.928,-2.9283,-2.93,-2.9297,-2.9256,-2.9217,-3.0006,-3.0448,-3.041,-3.0371,-2.9985,-2.9223,-2.9115,0.0,0.0,0.0,0.0,0.0,0.0,0.0,0.0,0.0,0.0,0.0,0.0,0.0,0.0,0.0,0.0,0.0,0.0,0.0,0.0,0.0,0.0,0.0,0.0,0.0,0.0,0.0,0.0,-3.8244,-3.8667,0.0,-3.7872,-3.801,-3.8252,-3.8474,-3.89,-3.9336,-3.9817,-4.0139,-4.0522,-4.1051,-4.1376,-4.1835,-4.2386,-4.2386,-4.2386,-4.2386,-4.2185,-4.2121,-4.2068,-4.0606,-3.9817,-3.948,-3.7641,-3.6705,-3.6569,-3.6578,-3.6251,-3.5734,-3.6105,-3.605,-3.5846,-3.6414,-3.5775,-3.4634,-3.4802,-3.423,-3.3465,-3.3707,-3.3605,-3.3366,-3.3366,-3.3366,-3.3366,-3.3366,-3.3587,-3.3697,-3.3158,-3.282,-3.2472,-3.1953,-3.1213,-3.063,-3.0617,-3.0073,-2.9554,-2.9562,-2.9625,-2.9731,-2.9795,-2.9483,-2.9248,-2.9356,-2.9037,-2.8679,-2.838,-2.8602,-2.867,-2.8361,-2.8332,-2.8336,-2.8327,-2.8335,-2.8332,-2.8332,-2.8629,-2.8802,-2.8794,-2.9294,-2.9432,-2.9128,-2.9138,-2.8599,0.0,0.0,0.0,0.0,0.0,0.0,0.0,0.0,0.0,0.0,0.0,0.0,0.0,0.0,0.0,0.0,0.0,0.0,0.0,0.0,0.0,0.0,0.0,0.0,0.0,-3.8041,-3.9089,-3.9343,-3.936,-3.936,-3.936,-3.892,-3.8836,-3.9326,-3.936,-3.9563,-4.0054,-4.007,-4.0336,-4.0856,-4.0903,-4.1178,-4.1793,-4.181,-4.181,-4.181,-4.1578,-4.149,-4.1438,-3.9756,-3.8971,-3.8841,-3.6947,-3.6139,-3.6097,-3.5739,-3.547,-3.5311,-3.5882,-3.595,-3.5742,-3.6482,-3.5664,-3.4181,-3.4041,-3.3547,-3.301,-3.3273,-3.346,-3.3597,-3.3597,-3.3697,-3.3807,-3.3807,-3.3597,-3.3276,-3.2738,-3.221,-3.1662,-3.1109,-3.0391,-2.9784,-2.9784,-2.9163,-2.8604,-2.8599,-2.9068,-2.9488,-2.9572,-2.9026,-2.863,-2.8779,-2.8233,-2.7723,-2.7481,-2.7719,-2.7797,-2.7492,-2.7456,-2.7449,-2.746,-2.7449,-2.7467,-2.7467,-2.7745,-2.7898,-2.789,-2.8409,-2.8698,-2.8698,-2.8345,-2.7881,-2.7363,0.0,0.0,0.0,0.0,0.0,0.0,0.0,0.0,0.0,0.0,0.0,0.0,0.0,0.0,0.0,0.0,0.0,0.0,0.0,0.0,0.0,0.0,0.0,-3.8814,-3.902,-3.9309,-4.0054,-4.0104,-4.0087,-4.0104,-4.0087,-4.007,-4.007,-4.007,-4.007,-4.007,-4.007,-4.0319,-4.0856,-4.0874,-4.1178,-4.175,-4.1768,-4.1768,-4.1768,-4.1133,-4.0839,-4.077,-3.8802,-3.7889,-3.7787,-3.6282,-3.5622,-3.5622,-3.5588,-3.5148,-3.4556,-3.5318,-3.503,-3.4296,-3.543,-3.4649,-3.2936,-3.258,-3.2488,-3.2465,-3.2483,-3.281,-3.3195,-3.3195,-3.346,-3.3788,-3.3752,-3.3203,-3.2592,-3.2556,-3.1356,-3.0194,-3.0184,-2.954,-2.8957,-2.8957,-2.8338,-2.7748,-2.7767,-2.8404,-2.8998,-2.926,-2.8616,-2.8177,-2.864,-2.8019,0.0,-2.6631,-2.7277,-2.7479,-2.6651,-2.6545,-2.6545,-2.6545,-2.6544,-2.6553,-2.6553,-2.7341,-2.7813,-2.7802,-2.7832,-2.7871,-2.7879,-2.684,-2.6295,-2.6295,0.0,0.0,0.0,0.0,0.0,0.0,0.0,0.0,0.0,0.0,0.0,0.0,0.0,0.0,0.0,0.0,0.0,0.0,0.0,0.0,0.0,-3.7432,-3.8552,-3.8918,-3.946,-4.0053,-4.0815,-4.0425,-4.029,-4.0849,-4.0392,-4.007,-4.007,-4.007,-4.007,-4.007,-4.007,-4.0171,-4.0336,-4.0336,-4.0417,-4.0563,-4.0563,-4.0563,-4.0563,-4.0417,-4.0046,-3.9501,-3.8408,-3.7601,-3.7043,-3.6045,-3.5622,-3.5571,-3.503,-3.459,-3.4353,-3.5267,-3.4793,-3.3719,-3.4575,-3.3881,-3.2439,-3.2125,-3.2004,-3.2057,-3.2404,-3.2606,-3.2673,-3.2673,-3.3019,-3.324,-3.2661,-3.2548,-3.2309,-3.1155,-3.054,-3.0039,-2.948,-2.8736,-2.8125,-2.8118,-2.7492,-2.6936,-2.6925,-2.7095,-2.7274,-2.735,-2.6799,-2.6409,-2.6534,-2.5981,-2.5532,-2.5437,-2.5554,-2.5659,-2.5668,-2.545,-2.5319,-2.543,-2.5349,-2.5297,-2.5297,-2.5602,-2.5748,-2.5671,-2.6346,-2.6969,-2.7471,-2.6546,-2.6067,0.0,0.0,0.0,0.0,0.0,0.0,0.0,0.0,0.0,0.0,0.0,0.0,0.0,0.0,0.0,0.0,0.0,0.0,0.0,0.0,0.0,0.0,-3.8244,-3.9109,-3.9427,-3.9833,-4.0358,-4.1104,-4.0561,-4.0375,-4.1136,-4.0527,-4.007,-4.007,-4.007,-4.007,-4.007,-4.007,-4.007,-4.007,-4.007,-4.007,-4.007,-4.007,-3.9918,-3.9631,-3.9631,-3.9242,-3.8514,-3.777,-3.7195,-3.6738,-3.596,-3.5436,-3.5115,-3.4675,-3.4049,0.0,0.0,0.0,0.0,0.0,-3.2655,-3.2042,-3.1691,-3.1534,-3.1582,-3.1869,-3.2054,-3.2161,-3.1847,-3.206,-3.2276,-3.1505,-3.122,-3.0909,-2.9997,-2.9503,-2.9145,-2.8847,-2.8393,-2.7996,-2.7837,-2.7184,-2.6502,-2.6151,-2.5818,0.0,-2.5586,-2.5585,-2.5607,-2.5688,-2.5107,-2.4733,-2.4903,-2.4853,-2.4869,-2.508,-2.4917,-2.4821,-2.4907,-2.4847,0.0,0.0,0.0,-2.4877,-2.4804,-2.5356,0.0,0.0,0.0,0.0,0.0,0.0,0.0,0.0,-2.4938,-2.5049,0.0,0.0,0.0,0.0,0.0,0.0,0.0,0.0,0.0,0.0,0.0,0.0,0.0,0.0,0.0,0.0,-3.8633,-3.9343,-3.9986,-4.007,-4.0324,-4.1001,-4.0493,-4.0341,-4.1018,-4.046,-4.007,-4.007,-4.007,-4.007,-4.007,-4.007,0.0,0.0,0.0,-4.007,-4.007,-4.007,-3.9749,-3.9106,-3.9039,-3.8616,-3.7872,-3.7127,-3.6738,-3.6603,-3.5825,-3.5115,-3.4472,-3.4303,-3.3423,-3.2222,-3.2899,-3.2408,-3.1309,-3.1224,-3.1439,-3.1669,-3.1317,0.0,0.0,-3.119,-3.1455,-3.1596,-3.0864,-3.0967,-3.1147,-3.0332,-2.9598,-2.9084,-2.8991,-2.844,-2.7947,-2.8166,-2.8135,-2.7958,-2.7502,-2.6821,-2.606,-2.5355,-2.467,-2.419,-2.419,-2.48,-2.5336,-2.5503,-2.493,-2.4545,-2.4746,-2.4746,-2.4746,-2.479,0.0,0.0,-2.476,-2.4746,-2.4731,-2.4731,-2.4731,-2.4746,-2.476,-2.4746,-2.4731,-2.4731,-2.4561,-2.4461,-2.4461,-2.4284,-2.419,-2.4209,-2.4578,-2.4731,0.0,0.0,0.0,0.0,0.0,0.0,0.0,0.0,0.0,0.0,0.0,0.0,0.0,0.0,0.0,-3.8633,-3.9394,-3.9918,-4.0054,-4.007,-4.0121,-4.0273,-4.0172,-4.0138,-4.029,-4.0155,-4.007,-4.007,-4.007,-4.007,-4.007,-4.007,-4.007,-4.007,-4.007,-4.007,-4.007,-4.007,-4.0003,-3.9868,-3.9276,0.0,-3.7872,-3.7127,-3.6434,-3.5808,-3.5047,-3.4624,-3.4404,-3.3203,-3.2188,-3.1427,-3.1562,-3.181,-3.2023,-3.1444,-3.1235,-3.1278,-3.1213,-3.119,-3.119,-3.119,-3.1224,-3.1179,-3.0455,-3.052,0.0,-2.9166,-2.8934,-2.8965,-2.8287,-2.8027,-2.7771,-2.7245,-2.6568,-2.5877,-2.5189,-2.4638,-2.4208,-2.406,-2.4135,-2.419,-2.419,-2.4337,-2.4448,-2.4485,-2.4357,-2.4339,-2.4545,-2.4428,-2.4426,-2.476,-2.4512,-2.4375,-2.4526,-2.441,-2.4321,-2.4321,-2.4321,-2.4393,-2.4543,-2.441,-2.4321,-2.4321,-2.4266,-2.4266,-2.4266,-2.4209,-2.419,-2.419,-2.4284,-2.4321,0.0,0.0,0.0,0.0,0.0,0.0,0.0,0.0,0.0,0.0,0.0,-3.488,-3.6416,0.0,-3.8238,-3.9361,-3.9834,-4.007,-4.007,-4.007,-4.007,-4.007,-4.007,-4.007,-4.007,-4.007,-4.007,-4.007,-4.007,-4.007,-4.007,-4.007,-4.007,-4.007,-4.007,-4.007,-4.007,-4.007,-3.9884,-3.9529,-3.8802,-3.8058,-3.7313,-3.6552,-3.5994,-3.5571,-3.481,-3.4286,-3.3829,-3.2357,-3.1512,-3.119,-3.119,-3.1444,-3.1708,-3.1343,-3.119,-3.119,-3.119,-3.119,-3.119,-3.119,-3.0959,-3.0501,-2.977,-2.9416,-2.9021,-2.7866,-2.7725,-2.7794,-2.742,-2.7303,-2.7173,-2.6644,-2.6184,-2.5579,-2.4627,-2.4224,-2.3988,-2.3762,-2.384,-2.4005,-2.4171,-2.419,-2.419,-2.419,-2.419,-2.4247,-2.4339,-2.4247,-2.4266,-2.4478,-2.4321,-2.4247,-2.4339,-2.4266,-2.419,-2.419,-2.419,-2.4247,-2.4358,-2.4247,-2.419,-2.419,-2.419,-2.419,-2.419,-2.419,-2.419,-2.419,-2.419,-2.419,0.0,0.0,0.0,0.0,0.0,0.0,0.0,-3.139,-3.2189,-3.3418,-3.431,-3.5457,-3.7411,-3.7908,-3.8477,-3.9868,-4.007,-4.007,-4.007,-4.007,-4.007,-4.007,-4.007,-4.007,-4.007,-4.007,-4.007,-4.007,-4.007,-4.007,-4.007,-4.007,-4.007,-4.007,-4.007,-4.007,-4.007,-4.007,-3.9715,-3.8988,-3.8229,-3.7533,-3.6755,-3.5977,-3.5537,-3.5351,-3.4455,-3.3643,-3.2882,-3.1681,-3.119,-3.119,-3.119,-3.119,-3.119,-3.119,-3.119,-3.119,-3.119,-3.119,-3.1173,-3.1021,-3.0569,-2.9946,-2.9053,-2.8317,-2.7657,-2.6894,-2.6691,-2.6657,-2.6522,-2.6471,-2.6333,-2.579,-2.5652,-2.5349,-2.4242,-2.4033,-2.3954,-2.3574,-2.3562,-2.3697,-2.3955,-2.4072,-2.4113,-2.419,-2.4061,-2.3969,-2.3969,-2.3823,-2.3731,-2.3731,-2.3731,-2.3804,-2.3951,-2.3823,-2.3804,-2.3951,-2.3969,-2.3969,-2.3969,-2.4116,-2.419,-2.419,-2.419,-2.419,-2.419,-2.419,-2.419,-2.419,-2.419,-2.419,-2.9805,-2.8717,-2.8182,-2.9305,-2.9621,-3.0138,0.0,-3.2796,-3.3472,-3.4207,-3.5462,-3.6667,-3.7604,-3.8355,-3.9056,-3.9952,-4.007,-4.007,-4.007,-4.007,-4.007,-4.007,-4.007,-4.007,-4.007,-4.007,-4.007,-4.007,-4.007,-4.007,-4.007,-4.007,-4.007,-4.007,-4.007,-4.007,-4.007,-4.007,-3.9715,-3.8988,-3.8265,-3.7506,-3.6755,-3.5977,-3.525,-3.4539,-3.3136,-3.2121,-3.1427,-3.1258,-3.119,-3.119,-3.119,-3.119,-3.119,-3.119,-3.119,-3.119,-3.119,-3.119,-3.1089,-3.0446,-3.0176,-2.9837,-2.8364,-2.7875,-2.7638,-2.6911,-2.6691,-2.6539,-2.5896,-2.5725,-2.5368,-2.4011,-2.3699,-2.3493,-2.2694,-2.2722,-2.2863,-2.2809,-2.3058,-2.3256,-2.3316,-2.3562,-2.3876,-2.4151,-2.3602,-2.3144,-2.3144,-2.2501,-2.2078,-2.2078,-2.2078,-2.2354,-2.307,-2.2483,-2.2373,-2.3088,-2.3144,-2.3144,-2.3144,-2.3823,-2.419,-2.419,-2.419,-2.419,-2.419,-2.419,-2.419,-2.419,-2.419,-2.419,-2.9604,-2.9358,-2.9246,-2.9057,-2.9879,-3.1031,-3.2243,-3.3021,-3.3799,-3.4861,-3.5522,-3.6165,-3.698,-3.7732,-3.8672,-3.9914,-4.0085,-4.024,-4.0679,-4.0358,-4.007,-4.007,-4.007,-4.007,-4.007,-4.007,-4.007,-4.007,-4.007,-4.007,-4.007,-4.007,-4.007,-4.007,-4.007,-4.007,-4.007,-4.007,-3.9716,-3.8991,-3.8248,-3.752,-3.676,-3.5949,-3.4979,-3.3795,-3.273,-3.1867,-3.119,-3.119,-3.119,-3.119,-3.119,-3.119,-3.119,-3.119,-3.119,-3.119,-3.119,-3.092,-3.0514,-3.0209,-2.9499,-2.8617,-2.7992,-2.752,-2.7097,-2.6793,-2.6403,-2.5979,-2.5676,-2.527,-2.4692,-2.3646,-2.3401,-2.3192,-2.2446,-2.2378,-2.2496,-2.2691,-2.2808,-2.2952,-2.3168,-2.333,-2.3477,-2.3606,-2.3664,-2.3694,-2.3694,-2.2997,-2.2318,-2.1858,-2.1803,-2.195,-2.2263,-2.1987,-2.1932,-2.2281,-2.2299,-2.2299,-2.2299,-2.307,-2.3272,-2.2795,-2.3254,-2.3272,-2.2795,-2.3272,-2.3511,-2.3511,-2.3988,-2.419,-2.9989,-3.0196,-3.0332,-2.9605,-3.0658,-3.192,-3.2421,-3.3155,-3.4038,-3.5011,-3.537,-3.5733,-3.643,-3.71,-3.803,-3.9801,-3.9921,-4.0103,-4.105,-4.0561,-4.007,-4.007,-4.007,-4.007,-4.007,-4.007,-4.007,-4.007,-4.007,-4.007,-4.007,-4.007,-4.007,-4.007,-4.007,-4.007,-4.007,-4.007,-3.9631,-3.8672,-3.8179,-3.7385,-3.6455,-3.5436,-3.4391,-3.3355,-3.2408,-3.1681,-3.119,-3.119,-3.119,-3.119,-3.119,-3.1112,-3.0958,-3.0958,-3.1055,-3.119,-3.119,-3.0712,-3.0065,-2.985,-2.8904,-2.7771,-2.7553,-2.7131,-2.6691,-2.6691,-2.6318,-2.5793,-2.5389,-2.4884,-2.4259,-2.3325,-2.3105,-2.2953,-2.2429,-2.231,-2.2377,-2.2563,-2.2599,-2.2678,-2.2908,-2.2996,-2.3069,-2.3069,-2.3544,-2.3812,-2.3451,-2.2575,-2.184,-2.1473,-2.1235,-2.1307,-2.1766,-2.138,-2.1215,-2.1418,-2.1437,-2.1437,-2.1437,-2.2226,-2.2391,-2.1821,-2.2373,-2.2373,-2.1803,-2.2611,-2.2997,-2.3015,-2.3728,-2.4113,-3.1133,-3.0933,-3.064,-3.1332,-3.2059,-3.2552,-3.2524,-3.3514,-3.4457,-3.4502,-3.504,-3.5733,-3.643,-3.66,-3.7424,-3.9729,-3.9457,-3.9458,-4.0981,-4.0561,-4.007,-4.007,-4.007,-4.007,-4.007,-4.007,-4.007,-4.007,-4.007,-4.007,-4.007,-4.007,-4.007,-4.007,-4.007,-4.007,-4.007,-4.007,-3.936,-3.7956,-3.7922,-3.7127,-3.5577,-3.4125,-3.345,-3.3322,-3.185,-3.1207,-3.119,-3.119,-3.119,-3.119,-3.119,-3.0838,-3.0351,-3.0351,-3.0699,-3.119,-3.119,-3.0718,-2.9978,-2.9276,-2.8477,-2.766,-2.6927,-2.6708,-2.6691,-2.6691,-2.6674,-2.6336,-2.4881,-2.4517,-2.4135,-2.2688,-2.2344,-2.2344,-2.231,-2.231,-2.231,-2.231,-2.231,-2.231,-2.2338,-2.2537,-2.2721,-2.2721,-2.3021,-2.2794,-2.156,-2.0223,-1.9693,-2.0448,-1.984,-2.0039,-2.1674,-2.0315,-1.9711,-2.0484,-2.0539,-2.0539,-2.0539,-2.1363,-2.1821,-2.1803,-2.1821,-2.1821,-2.1803,-2.2611,-2.2997,-2.3015,-2.3474,-2.3896,-3.1295,-3.1921,-3.2478,-3.2281,-3.278,-3.3266,-3.3198,-3.3533,-3.383,-3.3847,-3.4008,-3.422,-3.4485,-3.5293,-3.6495,-3.8375,-3.9208,-4.0038,-4.1049,-4.1407,-4.1187,-4.0206,-4.051,-4.0629,-4.0121,-4.007,-4.007,-4.007,-4.007,-4.007,-4.007,-4.007,-4.007,-4.007,-4.007,-4.007,-4.007,-3.9613,-3.864,-3.7159,-3.575,-3.4785,-3.4203,-3.2803,-3.215,-3.2073,-3.1028,-3.0616,-3.0611,-3.1033,-3.119,-3.1151,-3.0757,-3.0477,-3.0267,-2.9867,-2.9548,-2.9323,-2.9335,-2.8878,-2.8184,-2.7843,-2.6965,-2.6155,-2.6554,-2.6488,-2.6286,-2.6623,-2.6,-2.513,-2.4646,-2.3771,-2.2929,-2.2417,-2.231,-2.231,-2.231,-2.231,-2.231,-2.231,-2.231,-2.231,-2.231,-2.236,-2.25,-2.2669,-2.2996,-2.2686,-2.1209,-2.1075,-2.0614,-1.9362,-1.9416,-1.9595,-1.9668,-1.9324,-1.9211,-1.9483,-1.9501,-1.9501,-1.9501,-2.0119,-2.0207,-1.9704,-2.0189,-2.0459,-2.042,-2.1211,-2.1855,-2.2353,-2.3057,-2.3414,-3.1692,-3.279,-3.3723,-3.3079,-3.3453,-3.3899,-3.3612,-3.3528,-3.3517,-3.3469,-3.3487,-3.3499,-3.3499,-3.4228,-3.5427,-3.7239,-3.8294,-3.9462,-4.0963,-4.1367,-4.1255,-4.0561,-4.0916,-4.0916,-4.0155,-4.0324,-4.0358,-4.0104,-4.007,-4.007,-4.007,-4.007,-4.007,-4.007,-4.007,-4.007,-4.007,-3.9127,-3.7763,-3.6043,-3.4387,-3.3603,-3.3571,-3.2151,-3.1512,-3.1454,-3.0414,-3.0092,-3.0314,-3.0718,-3.0885,-3.0817,-3.0443,-3.0038,-2.9601,-2.9232,-2.8654,-2.8139,-2.8331,-2.7767,-2.6936,-2.6856,-2.6091,-2.5322,-2.5975,-2.5955,-2.5732,-2.5782,-2.513,-2.4298,-2.395,-2.3159,-2.2421,-2.2333,-2.231,-2.231,-2.231,-2.231,-2.231,-2.231,-2.231,-2.231,-2.231,-2.231,-2.2377,-2.2537,-2.273,-2.2485,-2.1428,-2.1463,-2.1127,-1.9947,-1.9979,-1.9909,-1.9471,-1.9323,-1.9147,-1.8861,-1.8861,-1.8861,-1.8861,-1.9178,-1.9137,-1.8603,-1.9119,-1.9348,-1.9308,-2.0374,-2.1135,-2.1644,-2.2576,-2.3093,-3.2374,-3.344,-3.4391,-3.3773,-3.4129,-3.4479,-3.3786,-3.3565,-3.3501,-3.3444,-3.3421,-3.338,-3.335,-3.3425,-3.4181,-3.6321,-3.6843,-3.7939,-4.0778,-4.0699,-4.0544,-4.1187,-4.1271,-4.0967,-4.0206,-4.0747,-4.0849,-4.0121,-4.007,-4.007,-4.007,-4.007,-4.007,-4.007,-4.007,-4.007,-4.0037,-3.8546,-3.6745,-3.4573,-3.3849,-3.3505,-3.3441,-3.2017,-3.1402,-3.1306,-2.9964,-2.9702,-3.0202,-3.0224,-3.0253,-3.0235,-3.0211,-2.9496,-2.8511,-2.8479,-2.8046,-2.759,-2.809,-2.7363,-2.6255,-2.6221,-2.5686,-2.5116,-2.517,-2.5185,-2.5027,-2.4411,-2.423,-2.3968,-2.2967,-2.2687,-2.2604,-2.2303,-2.2225,-2.2225,-2.2225,-2.2254,-2.2254,-2.2254,-2.2282,-2.231,-2.231,-2.231,-2.231,-2.231,-2.231,-2.2224,-2.1978,-2.1326,-2.115,-2.1824,-2.1256,-2.0837,-2.0845,-2.0138,-1.9376,-1.8672,-1.8584,-1.8566,-1.8566,-1.8566,-1.8547,-1.8547,-1.8547,-1.8565,-1.8617,-2.0068,-2.0849,-2.0933,-2.2091,-2.2813,-3.3778,-3.4607,-3.529,-3.5093,-3.5227,-3.5161,-3.4479,-3.3965,-3.3435,-3.2928,-3.2387,-3.1884,-3.136,-3.2482,-3.3895,-3.5038,-3.7429,-3.9602,-4.0886,-4.2456,-4.3081,-4.2117,-4.2016,-4.1728,-4.0984,-4.0578,-4.029,-4.0087,-4.007,-4.007,-4.007,-4.007,-4.007,-4.007,-4.007,-3.9834,-3.9278,-3.6771,-3.473,-3.313,-3.241,-3.2034,-3.1983,-3.0699,-3.0091,-3.0036,-2.9109,-2.8808,-2.9,-2.9419,-2.9626,-2.9599,-2.9141,-2.8763,-2.8463,-2.7993,-2.7094,-2.6156,-2.6285,-2.6075,-2.5697,-2.5095,-2.4472,-2.4147,-2.4949,-2.4901,-2.4667,-2.4889,-2.4535,-2.3948,-2.3181,-2.2607,-2.2059,-2.1471,-2.1342,-2.1343,-2.1324,-2.1584,-2.1794,-2.1794,-2.2061,-2.231,-2.231,-2.231,-2.231,-2.231,-2.231,-2.2078,-2.1481,-2.1704,-2.1567,-2.0609,-2.0849,-2.0849,-2.0291,-1.9722,-1.9317,-1.9125,-1.8603,-1.831,-1.831,-1.8103,-1.8014,-1.8014,-1.8014,-1.8271,-1.8819,-1.9236,-2.0007,-2.1113,-2.1429,-2.1907,-3.3981,-3.4793,-3.5537,-3.5199,-3.5131,-3.5026,-3.466,-3.3789,-3.2884,-3.223,-3.1581,-3.0855,-3.0218,-3.1495,-3.2841,-3.363,-3.6452,-3.9049,-4.0398,-4.2016,-4.2895,-4.2354,-4.2286,-4.1863,-4.0815,-4.0629,-4.0443,-4.0104,-4.007,-4.007,-4.007,-4.007,-4.007,-4.007,-3.9799,-3.8824,-3.7135,-3.5503,-3.3803,-3.2093,-3.1709,-3.1482,-3.1437,-3.0462,-2.9834,-2.9544,-2.8843,-2.8526,-2.8545,-2.8891,-2.9016,-2.895,-2.8623,-2.8324,-2.8042,-2.771,-2.6916,-2.6004,-2.5704,-2.542,-2.5047,-2.4298,-2.3837,-2.3724,-2.4307,-2.428,-2.4038,-2.4111,-2.3784,-2.3274,-2.2523,-2.1988,-2.1596,-2.1103,-2.099,-2.0984,-2.1021,-2.1183,-2.1337,-2.1337,-2.1705,-2.2003,-2.2003,-2.2003,-2.2061,-2.2282,-2.231,-2.2158,-2.1735,-2.204,-2.1989,-2.1083,-2.1414,-2.1363,-2.0602,-1.9955,-1.9469,-1.915,-1.843,-1.8018,-1.8018,-1.7883,-1.7811,-1.7811,-1.7811,-1.8014,-1.842,-1.8741,-1.9333,-2.0204,-2.0517,-2.1075,-3.3609,-3.4421,-3.5318,-3.4658,-3.4489,-3.4489,-3.4489,-3.3401,-3.2223,-3.1614,-3.0964,-3.0268,-2.9621,-3.0597,-3.1691,-3.2407,-3.4903,-3.7598,-3.9831,-4.0734,-4.1504,-4.2354,-4.2269,-4.1644,-4.0358,-4.073,-4.0781,-4.0121,-3.9986,-3.9986,-4.007,-4.007,-4.0037,-3.9935,-3.9156,-3.7435,-3.4716,-3.4494,-3.3432,-3.1482,-3.1482,-3.1482,-3.1452,-3.081,-3.0145,-2.9529,-2.8861,-2.8521,-2.8394,-2.8394,-2.8394,-2.8384,-2.84,-2.8066,-2.7625,-2.7625,-2.7186,-2.6494,-2.5854,-2.5151,-2.4507,-2.3804,-2.3595,-2.3595,-2.3595,-2.3595,-2.3492,-2.2978,-2.2803,-2.2596,-2.1624,-2.1356,-2.1275,-2.091,-2.0845,-2.0816,-2.0816,-2.089,-2.0926,-2.1007,-2.1275,-2.1521,-2.1521,-2.1521,-2.1658,-2.2077,-2.2123,-2.2152,-2.2209,-2.2254,-2.231,-2.231,-2.231,-2.204,-2.1397,-2.0534,-1.9714,-1.9096,-1.8268,-1.7811,-1.7811,-1.7811,-1.7811,-1.7811,-1.7811,-1.7811,-1.7811,-1.8437,-1.8792,-1.891,-1.957,-2.0348,-3.3609,-3.4032,-3.4658,-3.4523,-3.4489,-3.4489,-3.4489,-3.3401,-3.2223,-3.1614,-3.0964,-3.013,-2.8967,-3.0283,-3.1691,-3.2407,-3.4924,-3.777,-4.0462,-4.1014,-4.1683,-4.3078,-4.2134,-4.1288,-4.1035,-4.0561,-4.0223,-4.0087,-3.9465,-3.9428,-4.007,-4.007,-3.98,-3.9191,-3.7879,-3.6388,-3.47,-3.3552,-3.2467,-3.1482,-3.1482,-3.1482,-3.1467,-3.0789,-3.0169,-2.9529,-2.8861,-2.8283,-2.7765,-2.7765,-2.7765,-2.775,-2.776,-2.7695,-2.7625,-2.7625,-2.719,-2.65,-2.5819,-2.5153,-2.45,-2.3831,-2.3595,-2.3595,-2.3595,-2.3595,-2.358,-2.3477,-2.3419,-2.3178,-2.1939,-2.1614,-2.134,-2.0203,-1.9925,-1.9935,-1.9935,-2.0189,-2.055,-2.0926,-2.1071,-2.1086,-2.1086,-2.1086,-2.1118,-2.1229,-2.1229,-2.1354,-2.1688,-2.2061,-2.231,-2.231,-2.231,-2.226,-2.2124,-2.0795,-1.9951,-1.9816,-1.8532,-1.7811,-1.7811,-1.7811,-1.7811,-1.7811,-1.7811,-1.7811,-1.7811,-1.7929,-1.8302,-1.8894,-1.9029,-1.9841,-3.3028,-3.3698,-3.4404,-3.4015,-3.3931,-3.3829,-3.3423,-3.2555,-3.152,-3.0583,-3.0133,-2.9574,-2.8318,-2.9669,-3.1106,-3.142,-3.387,-3.6585,-3.9054,-3.9797,-4.0624,-4.2061,-4.1644,-4.1052,-4.0646,-4.029,-4.007,-4.007,-3.9746,-3.9518,-3.9465,-3.9487,-3.8989,-3.782,-3.7133,-3.5943,-3.4174,-3.311,-3.2249,-3.1482,-3.1482,-3.1482,-3.1452,-3.08,-3.0179,-2.9544,-2.8914,-2.8216,-2.7625,-2.7625,-2.7625,-2.7625,-2.7625,-2.7625,-2.7625,-2.7625,-2.7181,-2.6515,-2.5836,-2.5152,-2.4506,-2.3833,-2.3595,-2.3595,-2.3595,-2.3595,-2.3595,-2.3595,-2.3374,-2.2918,-2.1951,-2.1451,-2.0926,-1.9921,-1.969,-1.969,-1.969,-2.0035,-2.0314,-2.0311,-2.0499,-2.0616,-2.0616,-2.0616,-2.0715,-2.0959,-2.0991,-2.1055,-2.1244,-2.1477,-2.1797,-2.2254,-2.231,-2.231,-2.231,-2.088,-2.0002,-2.0002,-1.8616,-1.7811,-1.7811,-1.7811,-1.7811,-1.7811,-1.7811,-1.7811,-1.7811,-1.7811,-1.798,-1.8335,-1.8335,-1.9147,-3.2067,-3.3094,-3.4083,-3.3355,-3.3288,-3.322,-3.2459,-3.1715,-3.0878,-2.9805,-2.9496,-2.9088,-2.7993,-2.9057,-3.0178,-3.0462,-3.2505,-3.4929,-3.755,-3.83,-3.9272,-4.0981,-4.1068,-4.073,-4.0138,-4.007,-4.007,-4.007,-3.9631,-3.9179,-3.8753,-3.8525,-3.7801,-3.6313,-3.6191,-3.5235,-3.3392,-3.2732,-3.2043,-3.1482,-3.1482,-3.1482,-3.1452,-3.0806,-3.0167,-2.955,-2.8875,-2.8196,-2.7625,-2.7625,-2.7625,-2.7625,-2.7625,-2.7625,-2.7625,-2.7625,-2.7175,-2.6519,-2.5824,-2.5166,-2.4507,-2.3819,-2.3595,-2.3595,-2.3595,-2.3595,-2.3595,-2.3595,-2.3169,-2.254,-2.1872,-2.1198,-2.054,-1.9846,-1.969,-1.969,-1.969,-1.9945,-2.0089,-1.9747,-1.998,-2.0193,-2.0193,-2.0193,-2.0296,-2.0665,-2.0698,-2.0764,-2.0829,-2.0862,-2.115,-2.1945,-2.202,-2.1982,-2.1916,-2.0656,-1.9841,-1.9765,-1.8515,-1.7811,-1.7811,-1.7811,-1.7811,-1.7811,-1.7811,-1.7749,-1.7681,-1.7681,-1.7765,-1.7916,-1.7916,-1.8771,-3.0672,-3.1959,-3.3322,-3.2577,-3.2899,-3.322,-3.2459,-3.1715,-3.1015,-3.0335,-2.9761,-2.918,-2.8559,-2.8612,-2.916,-3.0313,-3.1237,-3.323,-3.7291,-3.74,-3.8052,-4.0862,-4.0595,-4.0155,-4.0087,-4.007,-4.007,-4.007,-3.8262,-3.7375,-3.8033,-3.7412,-3.635,-3.4952,-3.43,-3.3565,-3.267,-3.1992,-3.1569,-3.1482,-3.1482,-3.1482,-3.1452,-3.0818,-3.0177,-2.9577,-2.8869,-2.8218,-2.7625,-2.7625,-2.7625,-2.7625,-2.7625,-2.7625,-2.7625,-2.7625,-2.7203,-2.65,-2.5843,-2.5138,-2.447,-2.3831,-2.3595,-2.3595,-2.3595,-2.3595,-2.3595,-2.3595,-2.3169,-2.2538,-2.1873,-2.1213,-2.0543,-1.9863,-1.969,-1.969,-1.969,-1.9726,-1.9747,-1.9726,-1.9726,-1.9747,-1.9747,-1.9747,-1.9782,-1.9818,-1.9818,-1.9945,-2.0314,-2.0348,-2.055,-2.1055,-2.1134,-2.0985,-2.0673,-1.9915,-1.9323,-1.9022,-1.8251,-1.7811,-1.7811,-1.7811,-1.7811,-1.7811,-1.7811,-1.7658,-1.7344,-1.7344,-1.7691,-1.8335,-1.8335,-1.9327,-2.9713,-3.1205,-3.2544,-3.1816,-3.2171,-3.2527,-3.1799,-3.1393,-3.1015,-3.0435,-3.0123,-2.9629,-2.8701,-2.8839,-2.9455,-3.0424,-3.1106,-3.2578,-3.5575,-3.5716,-3.6448,-3.8966,-3.9004,-3.9158,-4.0037,-3.9681,-3.9076,-3.8197,-3.6899,-3.5938,-3.5446,-3.5493,-3.5065,-3.3975,-3.3813,-3.3349,-3.2604,-3.1896,-3.1482,-3.1482,-3.1482,-3.1482,-3.1437,-3.0402,-2.9853,-2.9522,-2.8464,-2.7829,-2.7625,-2.7625,-2.7625,-2.7625,-2.7625,-2.7625,-2.7625,-2.7625,-2.7186,-2.6523,-2.5854,-2.5186,-2.4491,-2.3807,-2.3595,-2.3595,-2.3595,-2.3595,-2.3595,-2.3595,-2.2876,-2.2028,-2.1766,-2.091,-2.0042,-1.9779,-1.969,-1.969,-1.969,-1.969,-1.969,-1.969,-1.969,-1.969,-1.969,-1.969,-1.969,-1.969,-1.969,-1.9747,-1.9909,-1.9929,-2.0,-2.0208,-2.0335,-2.0347,-2.0208,-1.9167,-1.8443,-1.8306,-1.7609,-1.7191,-1.7191,-1.7191,-1.7191,-1.7191,-1.7191,-1.7126,-1.7002,-1.7002,-1.7349,-1.8028,-1.7633,-1.8524,-2.9205,-3.0782,-3.2104,-3.1376,-3.1732,-3.2127,-3.136,-3.119,-3.1095,-3.0658,-3.0435,-3.0038,-2.918,-2.9265,-2.9797,-3.0707,-3.1271,-3.2289,-3.437,-3.4868,-3.5578,-3.713,-3.7746,-3.8271,-3.9059,-3.8854,-3.8003,-3.6316,-3.5696,-3.4701,-3.3142,-3.3487,-3.351,-3.2942,-3.2982,-3.2819,-3.2251,-3.1743,-3.1482,-3.1482,-3.1482,-3.1377,-3.1195,-3.0088,-2.9475,-2.922,-2.8083,-2.7625,-2.7625,-2.7625,-2.7625,-2.7625,-2.7625,-2.7625,-2.7625,-2.7625,-2.7056,-2.6238,-2.5729,-2.5029,-2.4206,-2.3763,-2.3595,-2.3595,-2.3595,-2.3595,-2.358,-2.3389,-2.2416,-2.1355,-2.1164,-2.04,-1.969,-1.969,-1.969,-1.969,-1.969,-1.969,-1.969,-1.969,-1.969,-1.969,-1.969,-1.969,-1.969,-1.969,-1.969,-1.969,-1.969,-1.969,-1.9615,-1.942,-1.9333,-1.9357,-1.948,-1.8384,-1.7677,-1.7578,-1.7087,-1.6789,-1.6789,-1.6789,-1.6789,-1.6789,-1.6997,-1.704,-1.6934,-1.6934,-1.7409,-1.825,-1.7583,-1.8321,-2.9206,-3.0707,-3.2104,-3.1376,-3.1732,-3.2127,-3.136,-3.119,-3.119,-3.119,-3.0699,-3.0309,-3.0293,-2.9821,-2.987,-3.1246,-3.1486,-3.224,-3.439,-3.5266,-3.5742,-3.5814,-3.707,-3.761,-3.69,-3.7477,-3.7003,-3.4876,-3.4723,-3.3779,-3.1627,-3.1554,-3.1554,-3.1539,-3.1524,-3.1524,-3.1524,-3.1524,-3.1482,-3.1482,-3.1482,-3.118,-3.0492,-2.9864,-2.922,-2.8562,-2.7874,-2.7625,-2.7625,-2.7625,-2.7625,-2.7625,-2.7625,-2.7625,-2.7625,-2.7625,-2.6752,-2.563,-2.5615,-2.4747,-2.3625,-2.361,-2.3595,-2.3595,-2.3595,-2.3595,-2.3492,-2.2876,-2.1724,-2.0579,-1.9867,-1.9726,-1.969,-1.969,-1.969,-1.969,-1.969,-1.969,-1.969,-1.969,-1.969,-1.969,-1.969,-1.969,-1.969,-1.969,-1.969,-1.969,-1.969,-1.969,-1.9435,-1.8792,-1.8134,-1.7861,-1.8192,-1.765,-1.7155,-1.6811,-1.6789,-1.6789,-1.6789,-1.6789,-1.6789,-1.6789,-1.7449,-1.7634,-1.7293,-1.7293,-1.8005,-1.9387,-1.8703,-1.9327,-2.8942,-2.9989,-3.0869,-3.1123,-3.1376,-3.1478,-3.1241,-3.119,-3.119,-3.119,-3.1055,-3.0797,-3.0393,-2.9805,-2.9854,-3.1246,-3.113,-3.1432,-3.3039,-3.4302,-3.5025,-3.5038,-3.6274,-3.6654,-3.5454,-3.557,-3.5017,-3.3379,-3.3278,-3.2764,-3.1539,-3.1482,-3.1482,-3.1482,-3.1482,-3.1482,-3.1482,-3.1031,-3.1031,-3.1467,-3.1061,-3.0717,-3.0492,-2.9903,-2.9208,-2.8569,-2.7889,-2.7625,-2.7625,-2.7625,-2.7625,-2.7625,-2.7625,-2.7625,-2.7625,-2.7625,-2.6737,-2.5601,-2.5591,-2.4712,-2.3595,-2.3595,-2.3595,-2.3595,-2.3595,-2.3595,-2.3396,-2.2306,-2.171,-2.1116,-1.9999,-1.969,-1.969,-1.969,-1.969,-1.969,-1.969,-1.969,-1.969,-1.969,-1.969,-1.969,-1.969,-1.969,-1.969,-1.969,-1.969,-1.969,-1.969,-1.969,-1.9435,-1.8777,-1.8523,-1.8062,-1.7257,-1.6622,-1.6239,-1.6123,-1.6123,-1.6294,-1.6708,-1.6739,-1.6952,-1.741,-1.7624,-1.7684,-1.7559,-1.7559,-1.7802,-1.8273,-1.897,-1.951,-2.9108,-2.9789,-3.0294,-3.1021,-3.0987,-3.0852,-3.114,-3.1015,-3.0935,-3.1151,-3.1015,-3.0838,-3.0658,-3.0335,-3.0353,-3.1313,-3.1358,-3.1476,-3.2148,-3.365,-3.4663,-3.4676,-3.5163,-3.5209,-3.4386,-3.4306,-3.3816,-3.2672,-3.2586,-3.2272,-3.1539,-3.1482,-3.1482,-3.1482,-3.1482,-3.1482,-3.1482,-3.1061,-3.1076,-3.1467,-3.1106,-3.0615,-3.0142,-2.9778,-2.908,-2.8196,-2.7769,-2.7625,0.0,-2.7625,-2.7625,-2.7625,-2.7625,-2.7625,-2.7625,-2.7625,-2.6737,-2.5616,-2.5606,-2.4715,-2.3595,-2.3595,-2.3595,-2.3595,-2.3595,-2.3419,-2.3041,-2.2,-2.1507,-2.1049,-1.9999,-1.969,-1.969,-1.969,-1.969,-1.969,-1.969,-1.969,-1.969,-1.969,-1.969,-1.969,-1.969,-1.969,-1.969,-1.969,-1.969,-1.969,-1.969,-1.969,-1.9435,-1.8777,-1.8702,-1.8179,-1.6816,-1.6353,-1.6144,-1.6144,-1.6144,-1.6428,-1.7055,-1.7085,-1.7279,-1.7682,-1.7936,-1.8089,-1.8089,-1.8343,-1.8328,-1.8119,-1.9181,-1.9642,0.0,-3.0065,-3.02,-3.0965,-3.0644,-3.0362,-3.0999,-3.0699,0.0,-3.0975,-3.0617,-3.041,-3.1043,-3.1089,-3.113,-3.1314,-3.1872,-3.2077,-3.1605,-3.3201,-3.4484,-3.4533,-3.3908,-3.3429,-3.3471,-3.3427,-3.3182,-3.2586,-3.2547,-3.2216,-3.1539,-3.1482,-3.1482,-3.1482,-3.1482,-3.1482,-3.1482,-3.1422,-3.1422,-3.1482,-3.1377,-3.0753,-2.9603,-2.9559,-2.8836,-2.7625,-2.7625,-2.7625,-2.7625,-2.7625,-2.7625,-2.7625,-2.7625,-2.7625,-2.7625,-2.7625,-2.6767,-2.5595,-2.5604,-2.4714,-2.3595,-2.3595,-2.358,-2.3522,-2.3522,-2.3141,-2.2538,-2.1879,-2.1193,-2.0491,-1.9809,-1.9639,-1.9624,-1.9581,-1.9654,-1.969,-1.9603,-1.9639,-1.969,-1.9603,-1.9639,-1.969,-1.9639,-1.969,-1.969,-1.969,-1.969,-1.969,-1.969,-1.969,-1.9435,-1.8777,-1.8747,-1.8238,-1.6891,-1.6786,-1.6756,-1.6712,-1.6756,-1.707,-1.7727,-1.7757,-1.7772,-1.7832,-1.8463,-1.8777,-1.8777,-1.939,-1.9375,-1.8792,-1.9405,-1.969,-2.9426,0.0,-2.9606,-3.0336,-3.0704,-3.0853,0.0,-3.0393,-3.0208,-2.9892,-2.9717,-2.979,-3.0474,-3.0178,-3.0032,-3.0621,-3.082,-3.0881,-3.076,-3.2072,-3.3234,-3.3851,-3.3215,-3.2528,-3.2038,-3.1992,-3.1951,-3.1796,-3.1739,-3.1682,-3.1539,-3.1482,-3.1482,-3.1482,-3.1482,-3.1482,-3.1482,-3.1001,-3.1001,-3.1467,-3.0522,-2.9873,-2.9589,-2.9089,-2.8396,-2.7625,-2.7625,-2.7625,-2.7625,-2.7625,-2.7625,-2.7625,-2.7625,-2.7625,-2.7625,-2.7625,-2.6742,-2.5584,-2.5604,-2.4716,-2.3595,-2.3595,-2.3286,-2.2891,-2.2891,-2.2801,-2.2544,-2.1896,-2.0918,-1.9929,-1.9257,-1.9095,-1.8973,-1.857,-1.9107,-1.9479,-1.865,-1.9132,-1.9442,-1.865,-1.9132,-1.9566,-1.9169,-1.9442,-1.969,-1.969,-1.969,-1.969,-1.969,-1.969,-1.9435,-1.8777,-1.9151,-1.8927,-1.7578,-1.7458,-1.7249,-1.6741,-1.7189,-1.7757,-1.8448,-1.8463,-1.8717,-1.9211,-1.9375,-1.945,-1.945,-1.9615,-1.9615,-1.9465,-1.9615,-1.969,-2.8497,-2.8701,-2.8939,-2.9713,-2.9861,-2.9881,-2.987,-2.9673,-2.9451,-2.9406,-2.918,-2.9153,-2.9811,-2.9888,-2.991,-3.0002,-3.0536,-3.1021,-3.1358,-3.2022,-3.268,-3.3127,-3.2755,-3.2264,-3.1569,-3.1482,-3.1482,-3.1482,-3.1482,-3.1482,-3.1482,-3.1482,-3.1482,-3.1482,-3.1482,-3.1482,-3.1482,-3.1165,-3.1165,-3.1467,-3.0458,-2.9878,-2.958,-2.8902,-2.8248,-2.7625,-2.7625,-2.7625,-2.7625,-2.7625,-2.7625,-2.7625,-2.7625,-2.7625,-2.7625,-2.7625,-2.6781,-2.5589,-2.5595,-2.4547,-2.3183,-2.3183,-2.2774,-2.2236,-2.2239,-2.1852,-2.1392,-2.0954,-2.0223,-1.9395,-1.8717,-1.8535,-1.8456,-1.8175,-1.8528,-1.8817,-1.8224,-1.8574,-1.8779,-1.8224,-1.8574,-1.8968,-1.8893,-1.9132,-1.9406,-1.9639,-1.969,-1.969,-1.969,-1.969,-1.9555,-1.9196,-1.9465,-1.9271,-1.8268,-1.8448,-1.8343,-1.7652,-1.7951,-1.8463,-1.9121,-1.9151,-1.9316,-1.9675,-1.969,-1.969,-1.969,-1.969,-1.969,-1.969,-1.969,-1.969,-2.7295,-2.7796,-2.8389,-2.9066,-2.8869,-2.8626,-2.9127,-2.8873,-2.8606,-2.9042,-2.8732,-2.8573,-2.928,-2.9894,-3.0148,-2.9697,-3.0566,-3.1512,-3.2231,-3.2324,-3.2324,-3.2324,-3.2324,-3.2131,-3.1569,-3.1482,-3.1482,-3.1482,-3.1482,-3.1482,-3.1482,-3.1377,-3.1362,-3.1482,-3.1377,-3.1377,-3.1482,-3.1482,-3.1482,-3.1467,-3.0745,-3.0078,-2.9579,-2.882,-2.8159,-2.7625,-2.7625,0.0,-2.7625,-2.7625,-2.7625,-2.7625,-2.7625,-2.7625,-2.756,-2.75,-2.6592,-2.5402,-2.5104,-2.3941,-2.2541,-2.2571,-2.2117,-2.1538,-2.1482,-2.0656,-1.9686,-1.9577,-1.9208,-1.8727,-1.8152,-1.7987,-1.7947,-1.7867,-1.7987,-1.8066,-1.7907,-1.7987,-1.8066,-1.7907,-1.7987,-1.8224,-1.8574,-1.8727,-1.893,-1.9406,-1.9442,-1.9479,-1.9566,-1.9566,-1.9603,-1.969,-1.969,-1.9465,-1.8897,-1.9361,-1.94,-1.8778,-1.8817,-1.9106,-1.966,-1.953,-1.953,-1.969,-1.9603,-1.9603,-1.969,-1.969,-1.969,-1.969,-1.969,-1.969,-2.6557,-2.7199,-2.7856,-2.848,-2.8917,-2.9143,-2.8717,-2.8559,-2.8367,-2.7944,-2.7795,-2.8107,-2.9357,-2.9623,-2.979,-3.0286,-3.0533,-3.0854,-3.1567,-3.1614,-3.1614,-3.1614,-3.1614,-3.1599,-3.1482,-3.1482,-3.1482,-3.1482,-3.1482,-3.1482,-3.1482,-3.0986,-3.0926,-3.1452,-3.0971,-3.0941,-3.1467,-3.1482,-3.1482,-3.1467,-3.0297,-2.9714,-2.9549,-2.8323,-2.7697,-2.7625,0.0,-2.7625,-2.7625,-2.7625,-2.7625,-2.7625,-2.7625,-2.7625,-2.753,-2.695,-2.5958,-2.459,-2.2881,-2.2105,-2.1829,-2.1841,-2.1459,-2.0869,-2.0412,-1.9434,-1.8374,-1.7887,-1.774,-1.7626,-1.7442,-1.7435,-1.7312,-1.6837,-1.7422,-1.7867,-1.6951,-1.7463,-1.7827,-1.6909,-1.7463,-1.7987,-1.7626,-1.7907,-1.8263,-1.8341,-1.8341,-1.8496,-1.8968,-1.9006,-1.9207,-1.9639,-1.969,-1.9645,-1.954,-1.963,-1.9449,-1.8912,-1.9294,-1.957,-1.969,-1.8817,-1.8765,-1.969,-1.9244,-1.9244,-1.969,-1.969,-1.969,-1.969,-1.969,-1.969,-2.5884,-2.6273,-2.6774,-2.7777,-2.879,-2.9335,-2.8682,-2.8556,-2.847,-2.818,-2.7829,-2.7874,-2.8861,-2.9335,-2.9894,-3.0908,-3.1031,-3.1135,-3.148,-3.1482,-3.1482,-3.1482,-3.1482,-3.1482,-3.1482,-3.1482,-3.1482,-3.1482,-3.1482,-3.1317,-3.1001,-3.0672,-3.0492,-3.0477,-3.0163,-3.0163,-3.0477,-3.0477,-3.0836,-3.1467,-3.0216,-2.9631,-2.954,-2.8219,-2.7625,-2.7625,0.0,-2.7358,-2.6997,-2.699,-2.6781,-2.6453,-2.6825,-2.6781,-2.6279,-2.5322,-2.4408,-2.3428,-2.2131,-2.1479,-2.1199,-2.1193,-2.0785,-2.0233,-1.9977,-1.9111,-1.8164,-1.7887,-1.739,-1.6911,-1.6884,-1.6879,-1.6795,-1.6552,-1.6879,-1.7118,-1.6595,-1.6879,-1.7076,-1.6595,-1.6909,-1.7229,-1.7312,-1.7504,-1.7787,-1.8066,-1.8106,-1.8185,-1.8458,-1.8458,-1.8574,-1.8817,-1.9095,-1.9169,-1.8855,-1.9095,-1.9169,-1.893,-1.8855,-1.8855,-1.8855,-1.838,-1.8341,-1.8817,-1.8893,-1.9006,-1.9281,-1.9566,-1.969,-1.969,-1.969,-1.969,-2.5196,-2.5495,-2.5854,-2.6856,-2.7889,-2.8682,-2.8801,-2.8592,-2.8442,-2.8771,-2.8412,-2.8203,-2.8727,-2.937,-3.0118,-3.1135,-3.1377,-3.1482,-3.1482,-3.1482,-3.1482,-3.1482,-3.1482,-3.1482,-3.1482,-3.1482,-3.1482,-3.1482,-3.1317,-3.1061,-3.0537,-3.0372,-3.0073,-2.9594,-2.9729,-2.9804,-2.9804,-2.9809,-3.0216,-3.1021,-2.9885,-2.9392,-2.9334,-2.8136,-2.7625,-2.756,-2.7419,-2.7011,-2.65,-2.6318,-2.5897,-2.5459,-2.6021,-2.5692,-2.4857,-2.3754,-2.2886,-2.2188,-2.1509,-2.0965,-2.0592,-2.0592,-2.0233,-1.9798,-1.9633,-1.9022,-1.8343,-1.8092,-1.738,-1.6679,-1.6559,-1.6522,-1.6522,-1.6522,-1.6522,-1.6522,-1.6522,-1.6522,-1.6522,-1.6522,-1.6522,-1.6637,-1.7034,-1.7118,-1.7229,-1.7666,-1.7747,-1.7787,-1.7907,-1.7907,-1.7947,-1.8106,-1.8458,-1.8535,-1.8145,-1.838,-1.8535,-1.8535,-1.8145,-1.7987,-1.8106,-1.7867,-1.7827,-1.8106,-1.838,-1.8574,-1.8688,-1.9244,-1.953,-1.953,-1.9639,-1.969,-2.4507,-2.5151,-2.563,-2.5734,-2.5824,-2.6527,-2.8951,-2.8599,-2.8045,-2.925,-2.9475,-2.9445,-2.9505,-3.0028,-3.0477,-3.0567,-3.1106,-3.1482,-3.1482,-3.1482,-3.1482,-3.1482,-3.1482,-3.1482,-3.1482,-3.1482,-3.1482,-3.1482,-3.0941,-3.0552,-3.0507,-2.9968,-2.9624,-2.9579,-3.0133,-3.0432,-3.0432,-3.0434,-3.0172,-2.9722,-2.9029,-2.867,-2.867,-2.7912,-2.7625,-2.7545,-2.6905,-2.6541,-2.644,-2.5736,-2.5442,-2.5428,-2.5455,-2.4767,-2.3657,-2.2938,-2.1927,-2.0862,-2.0168,-1.99,-1.9888,-1.9888,-1.9823,-1.9709,-1.9202,-1.8971,-1.8748,-1.7743,-1.7389,-1.7222,-1.6641,-1.6522,-1.6522,-1.6522,-1.6522,-1.6522,-1.6522,-1.6522,-1.6522,-1.6522,-1.6522,-1.6522,-1.6552,-1.6552,-1.6552,-1.6595,-1.6637,-1.6795,-1.7312,-1.7353,-1.7544,-1.8066,-1.8145,-1.8145,-1.8106,-1.7666,-1.7435,-1.7435,-1.7394,-1.7585,-1.8066,-1.7146,-1.7076,-1.8066,-1.7666,-1.7666,-1.8185,-1.8688,-1.8968,-1.8968,-1.9479,-1.969,-2.334,-2.3879,-2.4567,-2.539,-2.5401,-2.5875,-2.8412,-2.9516,-3.0069,-3.0128,-2.9849,-2.9579,-2.9579,-3.0088,-3.0507,-3.0507,-3.1091,-3.1482,-3.1482,-3.1482,-3.1482,-3.1482,-3.1482,-3.1482,-3.1482,-3.1482,-3.1482,-3.1482,-3.0896,-3.0342,-2.9953,-2.9325,-2.8771,-2.8389,-2.8562,-2.8682,-2.8682,-2.8681,-2.8553,-2.8353,-2.8521,-2.8608,-2.856,-2.7897,-2.7375,-2.6905,-2.6606,-2.5993,-2.51,-2.4846,-2.4421,-2.3974,-2.358,-2.3261,-2.2874,-2.1781,-2.0888,-2.0156,-1.9888,-1.9798,-1.9798,-1.9798,-1.9798,-1.9786,-1.9544,-1.9046,-1.848,-1.8437,-1.7619,-1.6804,-1.6541,-1.6522,-1.6522,-1.6522,-1.6522,-1.6522,-1.6522,-1.6522,-1.6522,-1.6522,-1.6522,-1.6522,-1.6522,-1.6522,-1.6522,-1.6522,-1.6522,-1.6552,-1.6795,-1.6795,-1.6879,-1.7076,-1.7118,-1.7229,-1.7585,-1.7118,-1.6795,-1.6795,-1.6795,-1.6879,-1.7118,-1.671,-1.668,-1.7118,-1.7229,-1.7394,-1.7585,-1.8145,-1.8419,-1.8419,-1.8968,-1.9207,-2.2727,-2.3131,-2.3864,-2.5016,-2.5237,-2.5741,-2.7829,-2.9539,-3.073,-3.0788,-3.0163,-2.9639,-2.9834,-3.0058,-3.0283,-3.0477,-3.1091,-3.1482,-3.1482,-3.1482,-3.1482,-3.1482,-3.1482,-3.1482,-3.1482,-3.1482,-3.1482,-3.1482,-3.0717,-3.0028,-2.9609,-2.8951,-2.8278,-2.764,-2.803,-2.8128,-2.7897,-2.7942,-2.7906,-2.7927,-2.8163,-2.8287,-2.8268,-2.756,-2.6965,-2.6482,-2.5993,-2.5244,-2.4296,-2.3863,-2.3359,-2.282,-2.2459,-2.2301,-2.211,-2.1091,-2.0335,-1.9798,-1.9798,-1.9798,-1.9798,-1.9798,-1.9798,-1.9798,-1.9798,-1.9296,-1.8707,-1.8759,-1.7907,-1.6942,-1.6573,-1.6522,-1.6522,-1.6522,-1.6522,-1.6522,-1.6522,-1.6522,-1.6522,-1.6522,-1.6522,-1.6522,-1.6522,-1.6522,-1.6522,-1.6522,-1.6522,-1.6522,-1.6522,-1.6522,-1.6522,-1.6522,-1.6522,-1.6637,-1.7034,-1.671,-1.6446,-1.6271,-1.6258,-1.6333,-1.6509,-1.6522,-1.6522,-1.6522,-1.6879,-1.7034,-1.7034,-1.7585,-1.7867,-1.7867,-1.8419,-1.8727,-2.2873,-2.3116,-2.3759,-2.4403,-2.509,-2.5974,-2.7275,-2.8255,-2.9402,-3.1135,-3.0477,-2.9759,-3.0387,-2.9998,-2.9789,-3.0402,-3.1091,-3.1482,-3.1482,-3.1482,-3.1482,-3.1482,-3.1482,-3.1482,-3.1482,-3.1482,-3.1482,-3.1467,-3.0313,-2.9579,-2.9564,-2.8951,-2.8278,-2.764,-2.8876,-2.9241,-2.8583,-2.8586,-2.8557,-2.8584,-2.7927,-2.7575,-2.756,-2.684,-2.6497,-2.6374,-2.4939,-2.4296,-2.4197,-2.2832,-2.2309,-2.2307,-2.2299,-2.1949,-2.1445,-2.0888,-2.0322,-1.9798,-1.9798,-1.9798,-1.9798,-1.9798,-1.9798,-1.9798,-1.9798,-1.9798,-1.9572,-1.8518,-1.8216,-1.7941,-1.6796,-1.6479,-1.6479,-1.6522,-1.6522,-1.6522,-1.6522,-1.6522,-1.6522,-1.6522,-1.6522,-1.6522,-1.6522,-1.6522,-1.6522,-1.6522,-1.6522,-1.6522,-1.6522,-1.6522,-1.6522,-1.6522,-1.6522,-1.6522,-1.6522,-1.6522,-1.6283,-1.5731,-1.5693,-1.5932,-1.6471,-1.6509,-1.6509,-1.6509,-1.6522,-1.6522,-1.6522,-1.7034,-1.7312,-1.7312,-1.7827,-1.838,-2.2144,-2.2458,-2.3221,-2.4358,-2.5671,-2.6688,-2.6582,-2.8015,-2.9546,-3.0068,-2.9363,-2.8737,-2.8911,-2.9173,-2.9478,-2.9653,-3.0659,-3.1482,-3.1482,-3.1482,-3.1482,-3.1482,-3.1482,-3.1482,-3.1482,-3.1482,-3.133,-3.0851,-3.0043,-2.9385,-2.8921,-2.8248,-2.7835,-2.7625,-2.8015,-2.8098,-2.7919,-2.7912,-2.7928,-2.7868,-2.7682,-2.734,-2.6832,-2.6606,-2.5931,-2.4953,-2.4491,-2.3777,-2.283,-2.2043,-2.1733,-2.1674,-2.1325,-2.1049,-2.0851,-2.0281,-1.9964,-1.9798,-1.9798,-1.9798,-1.9798,-1.9798,-1.9798,-1.9798,-1.9798,-1.9278,-1.87,-1.8744,-1.7895,-1.7032,-1.7135,-1.6516,-1.5981,-1.6417,-1.6522,-1.6522,-1.6522,-1.6522,-1.6522,-1.6522,-1.6522,-1.6522,-1.6522,-1.6522,-1.6522,-1.6522,-1.6522,-1.6522,-1.6522,-1.6522,-1.6522,-1.6522,-1.6522,-1.6522,-1.6522,-1.6522,-1.6446,-1.6283,-1.5906,-1.5593,-1.5367,-1.5731,-1.5944,-1.5944,-1.6321,-1.6522,-1.6522,-1.668,-1.6752,-1.6752,-1.7312,-1.7626,-2.2531,-2.271,-2.3334,-2.4629,-2.5597,-2.6119,-2.5631,-2.6885,-2.8228,-2.8592,-2.8068,-2.7697,-2.8193,-2.8377,-2.8751,-2.9561,-3.044,-3.1161,-3.1482,-3.1482,-3.1482,-3.1482,-3.1275,-3.1187,-3.1452,-3.1021,-3.0663,-3.0522,-2.9684,-2.9026,-2.8622,-2.7949,-2.7625,-2.7625,-2.7625,-2.7625,-2.7625,-2.7625,-2.7625,-2.7575,-2.7331,-2.6778,-2.6077,-2.6042,-2.5408,-2.4296,-2.3974,-2.3145,-2.1958,-2.1863,-2.1575,-2.1162,-2.0822,-2.0727,-2.0648,-2.0049,-1.9798,-1.9798,-1.9798,-1.9798,-1.9798,-1.9798,-1.9798,-1.9798,-1.9798,-1.9182,-1.8561,-1.8643,-1.7597,-1.6497,-1.6642,-1.5963,-1.5463,-1.6287,-1.6156,-1.586,-1.6107,-1.5964,-1.5788,-1.5788,-1.5976,-1.6064,-1.5832,-1.6194,-1.6423,-1.6194,-1.6337,-1.6522,-1.6522,-1.6522,-1.6522,-1.6522,-1.6522,-1.6522,-1.6522,-1.6522,-1.6421,-1.6208,-1.5881,-1.5442,-1.4928,-1.5404,-1.5693,-1.5693,-1.6233,-1.6522,-1.6522,-1.6522,-1.6522,-1.6522,-1.6837,-1.7118,-2.3613,-2.3613,-2.3813,-2.5185,-2.5127,-2.4736,-2.4569,-2.5145,-2.595,-2.6903,-2.6685,-2.6641,-2.7732,-2.7478,-2.7746,-2.9697,-3.0043,-3.0404,-3.1291,-3.1407,-3.1422,-3.1467,-3.0908,-3.0746,-3.1334,-3.0312,-2.9766,-3.0287,-2.9227,-2.854,-2.8502,-2.7919,-2.7625,-2.7625,-2.7625,-2.7625,-2.7625,-2.7625,-2.7569,-2.7469,-2.6805,-2.6108,-2.5273,-2.5322,-2.487,-2.4124,-2.3371,-2.2445,-2.1511,-2.1992,-2.1543,-2.059,-2.0627,-2.0643,-2.0526,-1.9987,-1.9798,-1.9798,-1.9798,-1.9798,-1.9798,-1.9798,-1.9798,-1.9786,-1.9762,-1.9331,-1.8802,-1.8297,-1.727,-1.6202,-1.5712,-1.512,-1.489,-1.6044,-1.5516,-1.4832,-1.5389,-1.5107,-1.4698,-1.4698,-1.5141,-1.532,-1.4789,-1.5611,-1.6151,-1.5588,-1.5964,-1.6337,-1.6337,-1.638,-1.6423,-1.6423,-1.6466,-1.6522,-1.6522,-1.6522,-1.6308,-1.5806,-1.5718,-1.5467,-1.5004,-1.5429,-1.5693,-1.5693,-1.6233,-1.6522,-1.6522,-1.6522,-1.6522,-1.6522,-1.6522,-1.6752,-2.4024,-2.3927,-2.3879,-2.5185,-2.4954,-2.4381,-2.415,-2.394,-2.4105,-2.5531,-2.5602,-2.5455,-2.5708,-2.6089,-2.6599,-2.7468,-2.8218,-2.9087,-3.0381,-3.0585,-3.0776,-3.1422,-3.0908,-3.0585,-3.0717,-3.0044,-2.943,-2.9045,-2.8749,-2.8381,-2.7829,-2.77,-2.7625,-2.7625,-2.7625,-2.7625,-2.7625,-2.7625,-2.7316,-2.6726,-2.6596,-2.5825,-2.4557,-2.4541,-2.4099,-2.3346,-2.2747,-2.208,-2.1475,-2.1144,-2.0648,-1.9972,-1.9999,-1.9987,-1.9974,-1.9849,-1.9798,-1.9798,-1.9798,-1.9798,-1.9798,-1.9798,-1.9798,-1.9724,-1.9302,-1.8808,-1.8278,-1.7699,-1.6704,-1.5735,-1.5608,-1.4822,-1.4176,-1.4926,-1.4903,-1.4731,-1.488,-1.4789,-1.4698,-1.4698,-1.4789,-1.4835,-1.4698,-1.4926,-1.5017,-1.4926,-1.5017,-1.5107,-1.5107,-1.5511,-1.5776,-1.5776,-1.6238,-1.6522,-1.6522,-1.6522,-1.6471,-1.6346,-1.5932,-1.5643,-1.5517,-1.563,-1.5693,-1.5693,-1.6233,-1.6522,-1.6522,-1.6522,-1.6522,-1.6522,-1.6522,-1.6552,-2.4515,-2.4602,-2.4499,-2.4833,-2.4608,-2.4197,-2.3685,-2.3351,-2.3305,-2.415,-2.4236,-2.4236,-2.4519,-2.4854,-2.5402,-2.6357,-2.6897,-2.77,-2.917,-2.9679,-3.0029,-3.0541,-2.9971,-2.9653,-3.0018,-2.8581,-2.7866,-2.8567,-2.7963,-2.758,-2.759,-2.7625,-2.7625,-2.7625,-2.7625,-2.7625,-2.7625,-2.7625,-2.7205,-2.6516,-2.6148,-2.5208,-2.3764,-2.3764,-2.3482,-2.3053,-2.2558,-2.2002,-2.145,-2.0907,-2.0335,-1.9798,-1.9798,-1.9798,-1.9798,-1.9798,-1.9798,-1.9798,-1.9798,-1.9798,-1.9798,-1.9798,-1.9635,-1.9384,-1.9075,-1.8469,-1.7689,-1.7074,-1.6061,-1.5085,-1.48,-1.4035,-1.3467,-1.3742,-1.3836,-1.3931,-1.4201,-1.4061,-1.3836,-1.3836,-1.4061,-1.4201,-1.3884,-1.4086,-1.4367,-1.4665,-1.472,-1.4695,-1.4695,-1.496,-1.5186,-1.5186,-1.5466,-1.5744,-1.6051,-1.6051,-1.6194,-1.6466,-1.6245,-1.6082,-1.6082,-1.6082,-1.5969,-1.5706,-1.6233,-1.6522,-1.6522,-1.6522,-1.6522,-1.6522,-1.6522,-1.6522,-2.4924,-2.5184,-2.5146,-2.4737,-2.4473,-2.4118,-2.3484,-2.3198,-2.3078,-2.3078,-2.3078,-2.3215,-2.3766,-2.3854,-2.423,-2.5537,-2.5751,-2.6286,-2.7781,-2.8469,-2.8915,-2.9197,-2.8512,-2.8297,-2.8983,-2.6832,-2.6147,-2.7929,-2.6963,-2.6579,-2.7174,-2.7333,-2.7405,-2.7405,-2.753,-2.7625,-2.7625,-2.7625,-2.7195,-2.6301,-2.5404,-2.4334,-2.3078,-2.3078,-2.3078,-2.304,-2.2548,-2.1995,-2.1443,-2.0891,-2.0326,-1.9798,-1.9798,-1.9798,-1.9798,-1.9798,-1.9798,-1.9798,-1.9798,-1.9798,-1.9786,-1.9698,-1.9384,-1.8982,-1.8765,-1.8109,-1.7255,-1.6459,-1.5507,-1.456,-1.3956,-1.3324,-1.2881,-1.2881,-1.2881,-1.3065,-1.3552,-1.3238,-1.2881,-1.2881,-1.3286,-1.3505,-1.2968,-1.3294,-1.3825,-1.4325,-1.4408,-1.4399,-1.4399,-1.4474,-1.4558,-1.4514,-1.4652,-1.4926,-1.541,-1.5454,-1.5688,-1.6293,-1.6324,-1.638,-1.6522,-1.6522,-1.6308,-1.5844,-1.6283,-1.6522,-1.6522,-1.6522,-1.6522,-1.6522,-1.6522,-1.6522,-2.4911,-2.5145,-2.5269,-2.5859,-2.5145,-2.4292,-2.4176,-2.359,-2.3078,-2.3078,-2.3078,-2.3103,-2.3238,-2.3203,-2.3485,-2.4189,-2.4278,-2.4762,-2.6221,-2.6467,-2.6799,-2.7549,-2.703,-2.6706,-2.682,-2.5964,-2.5547,-2.5832,-2.5658,-2.5617,-2.5673,-2.6321,-2.6672,-2.6672,-2.728,-2.7625,-2.7625,-2.7625,-2.6893,-2.5536,-2.4099,-2.3271,-2.3078,-2.3078,-2.3078,-2.304,-2.2548,-2.1995,-2.1443,-2.0891,-2.0326,-1.9798,-1.9798,-1.9798,-1.9798,-1.9798,-1.9798,-1.9798,-1.9798,-1.9798,-1.9723,-1.9284,-1.9033,-1.8844,-1.7924,-1.7521,-1.7172,-1.6025,-1.522,-1.456,-1.3956,-1.3324,-1.2881,-1.2881,-1.2881,-1.2929,-1.3017,-1.2978,-1.2881,-1.2881,-1.2978,-1.2968,-1.2929,-1.2968,-1.3055,-1.3132,-1.3162,-1.3133,-1.3133,-1.3583,-1.393,-1.3931,-1.4376,-1.4744,-1.4789,-1.4835,-1.5062,-1.5676,-1.572,-1.5952,-1.6466,-1.6522,-1.6484,-1.6409,-1.6471,-1.6522,-1.6522,-1.6522,-1.6522,-1.6522,-1.6522,-1.6522,-2.5524,-2.5811,-2.5768,-2.5771,-2.5575,-2.5126,-2.399,-2.3767,-2.3649,-2.3185,-2.3078,-2.3078,-2.3078,-2.3078,-2.3175,-2.3457,-2.3482,-2.3846,-2.493,-2.5354,-2.5724,-2.6185,-2.5942,-2.5782,-2.5809,-2.4802,-2.4452,-2.5342,-2.505,-2.4954,-2.5387,-2.6104,-2.6307,-2.5923,-2.6592,-2.6796,-2.6358,-2.6358,-2.585,-2.4799,-2.361,-2.2915,-2.2673,-2.2673,-2.2673,-2.2636,-2.2083,-2.1525,-2.1037,-2.0451,-2.0037,-1.9798,-1.9798,-1.9798,-1.9798,-1.9798,-1.9798,-1.9798,-1.9798,-1.9798,-1.9761,-1.9535,-1.9058,-1.848,-1.799,-1.74,-1.666,-1.5447,-1.4914,-1.4471,-1.3542,-1.3113,-1.2881,-1.2881,-1.2881,-1.2881,-1.2881,-1.2881,-1.2881,-1.2881,-1.2881,-1.2881,-1.2881,-1.2881,-1.2881,-1.2881,-1.2881,-1.2881,-1.2881,-1.3135,-1.329,-1.3296,-1.3515,-1.3836,-1.4143,-1.419,-1.4457,-1.505,-1.541,-1.572,-1.5996,-1.6337,-1.6522,-1.6522,-1.6522,-1.6522,-1.6522,-1.6522,-1.6522,-1.6522,-1.6522,-1.6522,-2.5661,-2.5844,-2.5688,-2.5412,-2.5664,-2.5614,-2.4176,-2.407,-2.4118,-2.3543,-2.3245,-2.3078,-2.3078,-2.3078,-2.3078,-2.3078,-2.3078,-2.3339,-2.3929,-2.4406,-2.4669,-2.4821,-2.4752,-2.4734,-2.4834,-2.3798,-2.358,-2.4732,-2.4309,-2.4223,-2.4758,-2.5521,-2.567,-2.5163,-2.585,-2.5959,-2.542,-2.5216,-2.486,-2.4279,-2.3471,-2.2827,-2.2318,-2.2317,-2.2153,-2.1863,-2.1468,-2.1049,-2.0644,-2.0035,-1.9798,-1.9798,-1.9798,-1.9798,-1.9798,-1.9798,-1.9798,-1.9798,-1.9798,-1.9798,-1.9773,-1.9648,-1.897,-1.8179,-1.8041,-1.721,-1.6051,-1.5017,-1.4574,-1.4244,-1.318,-1.2881,-1.2881,-1.2881,-1.2881,-1.2881,-1.2881,-1.2881,-1.2881,-1.2881,-1.2881,-1.2881,-1.2881,-1.2881,-1.2881,-1.2881,-1.2881,-1.2881,-1.2881,-1.2881,-1.2881,-1.2881,-1.2881,-1.3055,-1.3552,-1.3552,-1.3826,-1.4422,-1.505,-1.5454,-1.5576,-1.6194,-1.6522,-1.6522,-1.6522,-1.6522,-1.6522,-1.6522,-1.6522,-1.6522,-1.6522,-1.6522,-2.4675,-2.4545,-2.4413,-2.5301,-2.5304,-2.5217,-2.5358,-2.4833,-2.4292,-2.4234,-2.3649,-2.3078,-2.3078,-2.3078,-2.3078,-2.3078,-2.3078,-2.3125,-2.3185,-2.321,-2.3223,-2.3185,-2.321,-2.3223,-2.321,-2.3138,-2.315,-2.3175,-2.3163,-2.3163,-2.3248,-2.3987,-2.4369,-2.4339,-2.5087,-2.5466,-2.5395,-2.4734,-2.4352,-2.4258,-2.347,-2.2832,-2.2284,-2.2306,-2.1741,-2.0765,-2.0778,-2.0756,-2.0627,-2.0037,-1.9798,-1.9798,-1.9798,-1.9798,-1.9798,-1.9798,-1.9798,-1.9798,-1.9798,-1.9798,-1.9723,-1.9233,-1.8681,-1.8103,-1.7589,-1.6618,-1.5499,-1.488,-1.4286,-1.3695,-1.3045,-1.2881,-1.2881,-1.2881,-1.2881,-1.2881,-1.2881,-1.2881,-1.2881,-1.2881,-1.2881,-1.2881,-1.2881,-1.2881,-1.2881,-1.2881,-1.2881,-1.2881,-1.2881,-1.2881,-1.2881,-1.2881,-1.2881,-1.2929,-1.2929,-1.2978,-1.319,-1.3826,-1.4422,-1.5005,-1.5588,-1.6194,-1.6522,-1.6522,-1.6522,-1.6522,-1.6522,-1.6522,-1.6522,-1.6522,-1.6522,-1.6522,-2.4662,-2.4675,-2.4565,-2.4656,-2.5272,-2.5654,-2.4832,-2.5141,-2.5314,-2.4473,-2.3746,-2.3257,-2.3122,-2.3078,-2.3078,-2.3078,-2.3078,-2.3078,-2.3078,-2.3078,-2.3078,-2.3078,-2.3078,-2.3078,-2.3078,-2.3078,-2.3078,-2.3078,-2.3078,-2.3078,-2.3078,-2.3876,-2.4086,-2.3568,-2.4307,-2.4432,-2.3901,-2.3666,-2.3555,-2.3555,-2.3248,-2.2845,-2.2297,-2.1913,-2.1399,-2.0678,-2.0305,-2.0112,-2.01,-1.9886,-1.9798,-1.9798,-1.9798,-1.9798,-1.9798,-1.9798,-1.9798,-1.9798,-1.9798,-1.9798,-1.9709,-1.9047,-1.8511,-1.8012,-1.6967,-1.615,-1.5398,-1.4411,-1.3954,-1.3647,-1.3074,-1.2881,-1.2881,-1.2881,-1.2881,-1.2881,-1.2881,-1.2881,-1.2881,-1.2881,-1.2881,-1.2881,-1.2881,-1.2881,-1.2881,-1.2881,-1.2881,-1.2881,-1.2881,-1.2881,-1.2881,-1.2881,-1.2881,-1.2881,-1.2881,-1.2881,-1.2968,-1.319,-1.3779,-1.4365,-1.5017,-1.5599,-1.6095,-1.6479,-1.6522,-1.6522,-1.6522,-1.6522,-1.6522,-1.6522,-1.6522,-1.6522,-2.4529,-2.4526,-2.4456,-2.4527,-2.5048,-2.5454,-2.5103,-2.5485,-2.5722,-2.5103,-2.4121,-2.3398,-2.3487,-2.3153,-2.2865,-2.304,-2.3078,-2.3078,-2.3078,-2.3078,-2.3078,-2.3078,-2.3078,-2.3078,-2.3078,-2.3078,-2.3078,-2.3078,-2.3078,-2.3078,-2.3078,-2.3593,-2.3666,-2.3138,-2.3593,-2.3666,-2.3138,-2.3078,-2.3078,-2.3078,-2.3078,-2.2749,-2.202,-2.1656,-2.1075,-2.0412,-1.9977,-1.9798,-1.9798,-1.9798,-1.9798,-1.9798,-1.9798,-1.9798,-1.9798,-1.9798,-1.9798,-1.9798,-1.9798,-1.9643,-1.9371,-1.8874,-1.8247,-1.7579,-1.6676,-1.5856,-1.505,-1.4212,-1.3767,-1.3408,-1.2987,-1.2881,-1.2881,-1.2881,-1.2881,-1.2881,-1.2881,-1.2881,-1.2881,-1.2881,-1.2881,-1.2881,-1.2881,-1.2881,-1.2881,-1.2881,-1.2881,-1.2881,-1.2881,-1.2881,-1.2881,-1.2881,-1.2881,-1.2881,-1.2881,-1.2881,-1.2881,-1.2881,-1.3467,-1.3956,-1.4376,-1.5186,-1.5776,-1.6194,-1.638,-1.6522,-1.6522,-1.6522,-1.6522,-1.6522,-1.6522,-1.6522,0.0,0.0,0.0,-2.4913,-2.4643,-2.4577,-2.6224,-2.5842,-2.5322,-2.6117,-2.4727,-2.3612,-2.4178,-2.3219,-2.2472,-2.2952,-2.3065,-2.3065,-2.3065,-2.3065,-2.3078,-2.3078,-2.3078,-2.3078,-2.3078,-2.3078,-2.3078,-2.3078,-2.3078,-2.3078,-2.3078,-2.3078,-2.3078,-2.3078,-2.3078,-2.3078,-2.3078,-2.3078,-2.3078,-2.3078,-2.3078,-2.2566,-2.1497,-2.1508,-2.0907,-1.9811,-1.9811,-1.9798,-1.9798,-1.9798,-1.9798,-1.9798,-1.9798,-1.9798,-1.9798,-1.9798,-1.9798,-1.9798,-1.9798,-1.9307,-1.8715,-1.8661,-1.782,-1.6785,-1.6757,-1.5651,-1.4429,-1.4417,-1.3663,-1.2929,-1.2881,-1.2881,-1.2881,-1.2881,-1.2881,-1.2881,-1.2881,-1.2881,-1.2881,-1.2881,-1.2881,-1.2881,-1.2881,-1.2881,-1.2881,-1.2881,-1.2881,-1.2881,-1.2881,-1.2881,-1.2881,-1.2881,-1.2881,-1.2881,-1.2881,-1.2881,-1.2881,-1.2881,-1.3467,-1.3768,-1.3815,-1.4903,-1.5543,-1.5588,-1.6194,-1.6466,-1.6466,-1.6479,-1.6522,-1.6522,-1.6522,-1.6522,-2.419,0.0,0.0,0.0,0.0,0.0,-2.4805,-2.5001,-2.5166,-2.5264,-2.425,-2.3354,-2.3507,-2.2869,-2.2184,-2.1691,-2.2431,-2.287,-2.2333,-2.2747,-2.3078,-2.3078,-2.3078,-2.3078,-2.3078,-2.3078,-2.3078,-2.3078,-2.3078,-2.3078,-2.3078,-2.3078,-2.3078,-2.3078,-2.3078,-2.3078,-2.3078,-2.3078,-2.3078,-2.3078,-2.3078,-2.2757,-2.2097,-2.1681,-2.1108,-2.0425,-1.9989,-1.9798,-1.9798,-1.9798,-1.9798,-1.9798,-1.9798,-1.9798,-1.9798,-1.9798,-1.9798,-1.9695,-1.9202,-1.8874,-1.8501,-1.7468,-1.697,-1.6636,-1.5669,-1.5123,-1.4821,-1.4323,-1.3759,-1.3272,-1.2998,-1.2881,-1.2881,-1.2881,-1.2881,-1.2881,-1.2881,-1.2881,-1.2881,-1.2881,-1.2881,-1.2881,-1.2881,-1.2881,-1.2881,-1.2881,-1.2881,-1.2881,-1.2881,-1.2881,-1.2881,-1.2881,-1.2881,-1.2881,-1.2881,-1.2881,-1.2881,-1.2881,-1.3065,-1.3324,-1.3768,-1.4133,-1.4503,-1.4926,-1.5543,-1.5864,-1.5864,-1.6281,-1.6522,-1.6522,-1.6522,-1.6522,-2.4281,-2.419,-2.4224,-2.4377,0.0,0.0,-2.4818,-2.4932,-2.5095,-2.5642,-2.4719,-2.3945,-2.4239,-2.3432,-2.2413,-2.1528,-2.2067,-2.2286,-2.1459,-2.2043,-2.2565,-2.2565,-2.287,-2.3078,-2.3078,-2.3346,-2.3371,-2.3138,-2.3346,-2.3371,-2.3138,-2.3078,-2.3078,-2.3078,-2.3078,-2.3078,-2.3078,-2.3078,-2.3078,-2.3078,-2.2857,-2.2485,-2.195,-2.1383,-2.0872,-2.0322,-1.9964,-1.9798,-1.9798,-1.9798,-1.9798,-1.9798,-1.9798,-1.9798,-1.9798,-1.9798,-1.9592,-1.9294,-1.8859,-1.833,-1.7609,-1.6794,-1.6392,-1.6093,-1.5305,-1.5029,-1.4915,-1.4493,-1.3962,-1.3399,-1.3008,-1.2881,-1.2881,-1.2881,-1.2881,-1.2881,-1.2881,-1.2881,-1.2881,-1.2881,-1.2881,-1.2881,-1.2881,-1.2881,-1.2881,-1.2881,-1.2881,-1.2881,-1.2881,-1.2881,-1.2881,-1.2881,-1.2881,-1.2881,-1.2881,-1.2881,-1.2881,-1.2881,-1.2881,-1.3065,-1.342,-1.3684,-1.3956,-1.4329,-1.4915,-1.5365,-1.5588,-1.6194,-1.6522,-1.6522,-1.6522,-1.6522,-2.4649,-2.4465,-2.463,-2.5346,-2.478,0.0,-2.56,-2.5235,-2.5005,-2.635,-2.5494,-2.4719,-2.5408,-2.4312,-2.3019,-2.2064,-2.1967,-2.1673,-2.0751,-2.1342,-2.1825,-2.1886,-2.2639,-2.3142,-2.3215,-2.3672,-2.3796,-2.3218,-2.3621,-2.3679,-2.315,-2.3078,-2.3078,-2.3078,-2.3078,-2.3078,-2.3078,-2.3078,-2.3088,-2.2987,-2.2548,-2.2004,-2.1378,-2.09,-2.0374,-1.9798,-1.9798,-1.9798,-1.9798,-1.9798,-1.9798,-1.9798,-1.9798,-1.9734,-1.9709,-1.9786,-1.927,-1.8608,-1.8586,-1.7699,-1.6483,-1.6422,-1.592,-1.541,-1.5342,-1.51,-1.48,-1.4655,-1.4116,-1.3399,-1.3008,-1.2881,-1.2881,-1.2881,-1.2881,-1.2881,-1.2881,-1.2881,-1.2881,-1.2881,-1.2881,-1.2881,-1.2881,-1.2881,-1.2881,-1.2881,-1.2881,-1.2881,-1.2881,-1.2881,-1.2881,-1.2881,-1.2881,-1.2881,-1.2881,-1.2881,-1.2881,-1.2881,-1.2881,-1.2881,-1.2881,-1.342,-1.3684,-1.3684,-1.4376,-1.5017,-1.5588,-1.6194,-1.6522,-1.6522,-1.6522,-1.6522,-2.6172,-2.6135,-2.6172,-2.6337,-2.6203,0.0,-2.5253,-2.4967,-2.4831,-2.4813,-2.4264,-2.3785,-2.3775,-2.399,-2.3522,-2.1448,-2.1966,-2.2145,-2.0809,-2.1029,-2.1467,-2.1861,-2.2712,-2.3435,-2.3774,-2.3951,-2.398,-2.3838,-2.3504,-2.3248,-2.3138,-2.3078,-2.3078,-2.3078,-2.3078,-2.3078,-2.3078,-2.3078,-2.2892,-2.247,-2.2375,-2.1797,-2.0828,-2.0768,-2.0371,-1.9798,-1.9798,-1.9798,-1.9798,-1.9798,-1.9798,-1.9798,-1.9798,-1.9443,-1.9013,-1.9556,-1.8985,-1.7809,-1.7809,-1.7236,-1.6422,-1.58,-1.5545,-1.5342,-1.5032,-1.4877,-1.4646,-1.3965,-1.3626,-1.3399,-1.3008,-1.2881,-1.2881,-1.2881,-1.2881,-1.2881,-1.2881,-1.2881,-1.2881,-1.2881,-1.2881,-1.2881,-1.2881,-1.2881,-1.2881,-1.2881,-1.2881,-1.2881,-1.2881,-1.2881,-1.2881,-1.2881,-1.2881,-1.2881,-1.2881,-1.2881,-1.2881,-1.2881,-1.2881,-1.2881,-1.2881,-1.3017,-1.3055,-1.3055,-1.4165,-1.5017,-1.5588,-1.6194,-1.6522,-1.6522,-1.6522,-1.6522,-2.6722,-2.6612,-2.6502,-2.6098,-2.63,0.0,0.0,-2.5448,-2.5804,-2.5989,-2.539,-2.4813,-2.4876,-2.5013,-2.4557,-2.2901,-2.2929,-2.2817,-2.1891,-2.1659,-2.1735,-2.2228,-2.2847,-2.3487,-2.431,-2.4161,-2.398,-2.402,-2.3455,-2.3078,-2.3078,-2.3078,-2.3078,-2.3078,-2.3078,-2.3078,-2.3078,-2.3078,-2.2971,-2.2693,-2.215,-2.1628,-2.1069,-2.0515,-2.0079,-1.9798,-1.9798,-1.9798,-1.9798,-1.9798,-1.9798,-1.9798,-1.9798,-1.9366,-1.8733,-1.9093,-1.8301,-1.7048,-1.7047,-1.659,-1.5873,-1.5545,-1.541,-1.5342,-1.5177,-1.4966,-1.4643,-1.3733,-1.3525,-1.3399,-1.3008,-1.2881,-1.2881,-1.2881,-1.2881,-1.2881,-1.2881,-1.2881,-1.2881,-1.2881,-1.2881,-1.2881,-1.2881,-1.2881,-1.2881,-1.2881,-1.2881,-1.2881,-1.2881,-1.2881,-1.2881,-1.2881,-1.2881,-1.2881,-1.2881,-1.2881,-1.2881,-1.2881,-1.2881,-1.2881,-1.2881,-1.2881,-1.2881,-1.2881,-1.3789,-1.4549,-1.5141,-1.5776,-1.6194,-1.6522,-1.6522,-1.6522,-2.7255,-2.6961,-2.6704,-2.6209,-2.6465,-2.6667,0.0,0.0,0.0,-2.7475,-2.68,-2.6171,-2.6391,-2.6224,-2.5782,-2.4871,-2.4353,-2.3902,-2.3497,-2.2805,-2.2394,-2.2582,-2.2898,-2.3527,-2.4524,-2.4262,-2.3949,-2.3866,-2.3371,-2.3078,-2.3078,-2.3078,-2.3078,-2.3078,-2.3078,-2.3078,-2.3078,-2.3078,-2.3027,-2.2962,-2.1982,-2.1459,-2.1328,-2.0258,-1.9798,-1.9798,-1.9798,-1.9798,-1.9798,-1.9798,-1.9798,-1.9798,-1.9798,-1.9263,-1.8522,-1.8627,-1.7705,-1.6317,-1.6466,-1.6032,-1.541,-1.541,-1.5264,-1.5119,-1.5041,-1.4733,-1.4279,-1.3596,-1.3399,-1.333,-1.2998,-1.2881,-1.2881,-1.2881,-1.2881,-1.2881,-1.2881,-1.2881,-1.2881,-1.2881,-1.2881,-1.2881,-1.2881,-1.2881,-1.2881,-1.2881,-1.2881,-1.2881,-1.2881,-1.2881,-1.2881,-1.2881,-1.2881,-1.2881,-1.2881,-1.2881,-1.2881,-1.2881,-1.2881,-1.2881,-1.2881,-1.2881,-1.2881,-1.2881,-1.3505,-1.405,-1.4514,-1.5141,-1.5776,-1.6522,-1.6522,-1.6522,-2.8737,-2.8209,-2.7805,-2.8448,-2.8117,-2.764,-2.7548,0.0,-2.7493,-2.6869,0.0,-2.6465,-2.6188,0.0,0.0,-2.5967,-2.5974,-2.5886,-2.5378,-2.4493,-2.3498,-2.2259,-2.2778,-2.3513,-2.4025,-2.4026,-2.3755,-2.3228,-2.315,-2.3078,-2.3078,-2.3078,-2.3078,-2.3078,-2.3078,-2.3078,-2.3078,-2.3078,-2.2887,-2.2397,-2.1763,-2.1237,-2.0785,-2.0079,-1.9798,-1.9798,-1.9798,-1.9798,-1.9798,-1.9798,-1.9798,-1.9798,-1.9798,-1.8936,-1.7821,-1.8449,-1.734,-1.5601,-1.63,-1.6002,-1.541,-1.541,-1.4877,-1.4194,-1.3821,-1.3446,-1.3076,-1.3008,-1.2949,-1.2949,-1.2929,-1.2881,-1.2881,-1.2881,-1.2881,-1.2881,-1.2881,-1.2881,-1.2881,-1.2881,-1.2881,-1.2881,-1.2881,-1.2881,-1.2881,-1.2881,-1.2881,-1.2881,-1.2881,-1.2881,-1.2881,-1.2881,-1.2881,-1.2881,-1.2881,-1.2881,-1.2881,-1.2881,-1.2881,-1.2881,-1.2881,-1.2881,-1.2881,-1.2881,-1.3505,-1.3815,-1.3909,-1.4514,-1.5377,-1.6522,-1.6522,-1.6522,-2.836,-2.8126,-2.7864,-2.7937,-2.8058,-2.8088,-2.7834,-2.8154,-2.8411,-2.8058,0.0,0.0,0.0,0.0,0.0,0.0,-2.677,-2.6657,-2.6181,-2.5064,-2.3977,-2.3243,-2.2943,-2.2832,-2.2973,-2.3592,-2.3761,-2.313,-2.3078,-2.3078,-2.3078,-2.3078,-2.3078,-2.3078,-2.3078,-2.3078,-2.3078,-2.3078,-2.2965,-2.2786,-2.2247,-2.1681,-2.1145,-2.0608,-2.0125,-1.9798,-1.9798,-1.9798,-1.9798,-1.9798,-1.9798,-1.9759,-1.932,-1.8768,-1.8201,-1.8104,-1.719,-1.6035,-1.5888,-1.5654,-1.541,-1.541,-1.4972,-1.4433,-1.4008,-1.3578,-1.3203,-1.2949,-1.2881,-1.2881,-1.2881,-1.2881,-1.2881,-1.2881,-1.2881,-1.2881,-1.2881,-1.2881,-1.2881,-1.2881,-1.2881,-1.2881,-1.2881,-1.2881,-1.2881,-1.2881,-1.2881,-1.2881,-1.2881,-1.2881,-1.2881,-1.2881,-1.2881,-1.2881,-1.2881,-1.2881,-1.2881,-1.2881,-1.2881,-1.2881,-1.2881,-1.2881,-1.2881,-1.2881,-1.3152,-1.3467,-1.3815,-1.405,-1.4778,-1.5964,-1.5964,-1.6194,-2.7897,-2.7738,-2.7573,-2.7543,-2.7807,-2.808,-2.8123,-2.8594,-2.8994,-2.8994,-2.8539,0.0,0.0,0.0,-2.8031,-2.7743,0.0,-2.7313,-2.6946,-2.5751,-2.47,-2.4154,-2.3232,-2.2626,-2.2598,-2.3308,-2.3575,-2.3153,-2.3078,-2.3078,-2.3078,-2.3078,-2.3078,-2.3078,-2.3078,-2.3078,-2.3078,-2.3078,-2.3078,-2.3065,-2.2439,-2.1882,-2.1468,-2.0752,-2.02,-1.9798,-1.9798,-1.9709,-1.9519,-1.9519,-1.9379,-1.9162,-1.8608,-1.8549,-1.8589,-1.7621,-1.6948,-1.6369,-1.5654,-1.541,-1.541,-1.5264,-1.4944,-1.4522,-1.4086,-1.3665,-1.3272,-1.2998,-1.2881,-1.2939,-1.3076,-1.3135,-1.3203,-1.334,-1.3399,-1.334,-1.3193,-1.3135,-1.3076,-1.2939,-1.2881,-1.2881,-1.2881,-1.2881,-1.2881,-1.2881,-1.2881,-1.2881,-1.2881,-1.2881,-1.2881,-1.2881,-1.2881,-1.2881,-1.2881,-1.2881,-1.2881,-1.2881,-1.2881,-1.2881,-1.2881,-1.2881,-1.2881,-1.2881,-1.2881,-1.3104,-1.3552,-1.3552,-1.419,-1.5365,-1.5543,-1.5908,-2.7897,-2.7321,-2.7014,-2.8083,-2.7807,-2.7538,-2.8686,-2.8975,-2.8994,-2.8994,-2.8975,-2.8957,-2.8957,-2.8957,-2.8957,-2.8938,-2.8615,0.0,0.0,-2.7043,-2.5897,-2.4447,-2.3671,-2.3293,-2.3258,-2.3213,-2.3128,-2.3078,-2.3078,-2.3078,-2.3078,-2.3078,-2.3078,-2.3078,-2.3078,-2.3078,-2.3078,-2.3078,-2.3078,-2.3065,-2.2039,-2.1505,-2.1455,-2.0338,-1.9823,-1.9798,-1.9798,-1.9379,-1.8761,-1.8761,-1.8283,-1.7686,-1.7646,-1.8061,-1.8511,-1.7078,-1.6524,-1.6369,-1.5654,-1.541,-1.5342,-1.4954,-1.4473,-1.4053,-1.365,-1.3262,-1.2939,-1.2881,-1.2881,-1.3008,-1.3606,-1.3793,-1.3931,-1.4488,-1.4628,-1.4478,-1.3872,-1.3793,-1.3596,-1.3008,-1.2881,-1.2881,-1.2881,-1.2881,-1.2881,-1.2881,-1.2881,-1.2881,-1.2881,-1.2881,-1.2881,-1.2881,-1.2881,-1.2881,-1.2881,-1.2881,-1.2881,-1.2881,-1.2881,-1.2881,-1.2881,-1.2881,-1.2881,-1.2881,-1.2881,-1.2929,-1.2929,-1.2929,-1.3573,-1.4744,-1.532,-1.5908,0.0,0.0,-2.5518,-2.6672,-2.6739,-2.6841,-2.7996,-2.8255,-2.8334,-2.8565,-2.8412,-2.843,-2.8905,-2.8773,-2.8682,-2.897,-2.8658,-2.829,0.0,-2.6605,-2.5313,-2.446,-2.3829,-2.3176,-2.2293,-2.3248,-2.3555,-2.265,-2.287,-2.3078,-2.3078,-2.3078,-2.3078,-2.3078,-2.3078,-2.3078,-2.3078,-2.3078,-2.3078,-2.3078,-2.2718,-2.2343,-2.2008,-2.1255,-2.0715,-2.0351,-1.9962,-1.9359,-1.8715,-1.8704,-1.8267,-1.7549,-1.7048,-1.7302,-1.7852,-1.6863,-1.6806,-1.7065,-1.5826,-1.541,-1.541,-1.5255,-1.4887,-1.4487,-1.4013,-1.3606,-1.3262,-1.2949,-1.2881,-1.3066,-1.3654,-1.3788,-1.3948,-1.4553,-1.4688,-1.462,-1.4418,-1.4414,-1.4209,-1.3606,-1.3527,-1.3389,-1.2949,-1.2881,-1.2881,-1.2881,-1.2881,-1.2881,-1.2881,-1.2881,-1.2881,-1.2881,-1.2881,-1.2881,-1.2881,-1.2881,-1.2881,-1.2881,-1.2881,-1.2881,-1.2881,-1.2881,-1.2881,-1.2881,-1.2881,-1.2881,-1.2881,-1.3286,-1.392,-1.4698,-1.532,-1.5908,-2.5067,-2.4847,0.0,-2.5599,-2.6016,-2.6434,-2.7328,-2.7703,-2.7964,-2.8183,-2.8047,-2.8037,-2.8507,-2.8489,-2.8471,-2.8749,-2.8565,-2.8219,0.0,-2.6639,-2.5657,-2.5116,-2.4157,-2.3195,-2.2341,-2.3085,-2.3322,-2.2613,-2.2747,-2.287,-2.3065,-2.3078,-2.3078,-2.3078,-2.3078,-2.3078,-2.3078,-2.3078,-2.3078,-2.3078,-2.2899,-2.2623,-2.2297,-2.1744,-2.1192,-2.0706,-2.0275,-1.945,-1.8333,-1.8306,-1.7696,-1.6754,-1.6284,-1.6545,-1.7137,-1.6667,-1.6787,-1.7036,-1.5843,-1.541,-1.541,-1.541,-1.5109,-1.4687,-1.4247,-1.3831,-1.3409,-1.3008,-1.2881,-1.3076,-1.3931,-1.4109,-1.4316,-1.5124,-1.5325,-1.5258,-1.5057,-1.5015,-1.4769,-1.3952,-1.382,-1.359,-1.2988,-1.2881,-1.2881,-1.2881,-1.2881,-1.2881,-1.2881,-1.2881,-1.2881,-1.2881,-1.2881,-1.2881,-1.2881,-1.2881,-1.2881,-1.2881,-1.2881,-1.2881,-1.2881,-1.2881,-1.2881,-1.2881,-1.2881,-1.2881,-1.2881,-1.3505,-1.4097,-1.4698,-1.532,-1.5908]},{"header":{"parameterUnit":"m.s-1","parameterCategory":1,"la1":30.6,"la2":29.2853,"lo1":-89.7004,"lo2":-87.6739,"dy":0.0162,"dx":0.0183,"nx":112,"ny":82,"refTime":"2026-05-20T12:00:00:Z","depth":0,"parameterNumber":3,"parameterNumberName":"V-component_of_WINDS"},"data":[0.0,0.0,0.0,0.0,0.0,0.0,0.0,0.0,0.0,0.0,0.0,0.0,0.0,0.0,0.0,0.0,0.0,0.0,0.0,0.0,0.0,0.0,0.0,0.0,0.0,0.0,0.0,0.0,0.0,0.0,0.0,0.0,0.0,0.0,0.0,0.0,0.0,0.0,0.0,0.0,0.0,0.0,0.0,0.0,0.0,0.0,0.0,0.0,0.0,0.0,0.0,0.0,0.0,0.0,0.0,0.0,0.0,0.0,0.0,0.0,0.0,0.0,0.0,0.0,0.0,0.0,0.0,0.0,0.0,0.0,0.0,0.0,0.0,0.0,0.0,0.0,0.0,0.0,0.0,0.0,0.0,0.0,0.0,0.0,0.0,0.0,0.0,0.0,0.0,0.0,0.0,0.0,-0.2499,-0.4258,-0.444,-0.6835,-0.8772,-0.9727,0.0,0.0,0.0,0.0,0.0,0.0,0.0,0.0,0.0,0.0,0.0,0.0,0.0,0.0,0.0,0.0,0.0,0.0,0.0,0.0,0.0,0.0,0.0,0.0,0.0,0.0,0.0,0.0,0.0,0.0,0.0,0.0,0.0,0.0,0.0,0.0,0.0,0.0,0.0,0.0,0.0,0.0,0.0,0.0,0.0,0.0,0.0,0.0,0.0,0.0,0.0,0.0,0.0,0.0,0.0,0.0,0.0,0.0,0.0,0.0,0.0,0.0,0.0,0.0,0.0,0.0,0.0,0.0,0.0,0.0,0.0,0.0,0.0,0.0,0.0,0.0,0.0,0.0,0.0,0.0,0.0,0.0,0.0,0.0,0.0,0.0,0.0,0.0,0.0,0.0,0.0,0.0,0.0,0.0,0.0,0.0,0.0,0.0,0.0,0.0,0.0,0.0,0.0,0.0,0.0,0.0,-0.1528,-0.3087,-0.4369,-0.5785,-0.7607,-0.971,0.0,0.0,0.0,0.0,0.0,0.0,0.0,0.0,0.0,0.0,0.0,0.0,0.0,0.0,0.0,0.0,0.0,0.0,0.0,0.0,0.0,0.0,0.0,0.0,0.0,0.0,0.0,0.0,0.0,0.0,0.0,0.0,0.0,0.0,0.0,0.0,0.0,0.0,0.0,0.0,0.0,0.0,0.0,0.0,0.0,0.0,0.0,0.0,0.0,0.0,0.0,0.0,0.0,0.0,0.0,0.0,0.0,0.0,0.0,0.0,0.0,0.0,0.0,0.0,0.0,0.0,0.0,0.0,0.0,0.0,0.0,0.0,0.0,0.0,0.0,0.0,0.0,0.0,0.0,0.0,0.0,0.0,0.0,0.0,0.0,0.0,0.0,0.0,0.0,0.0,0.0,0.0,0.0,0.0,0.0,0.0,0.0,0.0,0.0,0.0,0.0,0.0,0.0,0.0,0.0,0.0,-0.1304,-0.2726,-0.4239,-0.5579,-0.7027,-0.8601,-0.8221,0.0,0.0,0.0,0.0,0.0,0.0,0.0,0.0,0.0,0.0,0.0,0.0,0.0,0.0,0.0,0.0,0.0,0.0,0.0,0.0,0.0,0.0,0.0,0.0,0.0,0.0,0.0,0.0,0.0,0.0,0.0,0.0,0.0,0.0,0.0,0.0,0.0,0.0,0.0,0.0,0.0,0.0,0.0,0.0,0.0,0.0,0.0,0.0,0.0,0.0,0.0,0.0,0.0,0.0,0.0,0.0,0.0,0.0,0.0,0.0,0.0,0.0,0.0,0.0,0.0,0.0,0.0,0.0,0.0,0.0,0.0,0.0,0.0,0.0,0.0,0.0,0.0,0.0,0.0,0.0,0.0,0.0,0.0,0.0,0.0,0.0,0.0,0.0,0.0,0.0,0.0,0.0,0.0,0.0,0.0,0.0,0.0,0.0,0.0,0.0,0.0,0.0,0.0,0.0,0.0,-0.0967,-0.2255,-0.3611,-0.4947,-0.6098,-0.7186,-0.7121,0.0,0.0,0.0,0.0,0.0,0.0,0.0,0.0,0.0,0.0,0.0,0.0,0.0,0.0,0.0,0.0,0.0,0.0,0.0,0.0,0.0,0.0,0.0,0.0,0.0,0.0,0.0,0.0,0.0,0.0,0.0,0.0,0.0,0.0,0.0,0.0,0.0,0.0,0.0,0.0,0.0,0.0,0.0,0.0,0.0,0.0,0.0,0.0,0.0,0.0,0.0,0.0,0.0,0.0,0.0,0.0,0.0,0.0,0.0,0.0,0.0,0.0,0.0,0.0,0.0,0.0,0.0,0.0,0.0,0.0,0.0,0.0,0.0,0.0,0.0,0.0,0.0,0.0,0.0,0.0,0.0,0.0,0.0,0.0,0.0,0.0,0.0,0.0,0.0,0.0,0.0,0.0,0.0,0.0,0.0,0.0,0.0,0.0,0.0,0.0,0.0,0.0,0.0,0.0,0.0,-0.0105,-0.0733,-0.2229,-0.3188,-0.4385,-0.5698,-0.6346,0.0,0.0,0.0,0.0,0.0,0.0,0.0,0.0,0.0,0.0,0.0,0.0,0.0,0.0,0.0,0.0,0.0,0.0,0.0,0.0,0.0,0.0,0.0,0.0,0.0,0.0,0.0,0.0,0.0,0.0,0.0,0.0,0.0,0.0,0.0,0.0,0.0,0.0,0.0,0.0,0.0,0.0,0.0,0.0,0.0,0.0,0.0,0.0,0.0,0.0,0.0,0.0,0.0,0.0,0.0,0.0,0.0,0.0,0.0,0.0,0.0,0.0,0.0,0.0,0.0,0.0,0.0,0.0,0.0,0.0,0.0,0.0,0.0,0.0,0.0,0.0,0.0,0.0,0.0,0.0,0.0,0.0,0.0,0.0,0.0,0.0,0.0,0.0,0.0,0.0,0.0,0.0,0.0,0.0,0.0,0.0,0.0,0.0,0.0,0.0,0.0,0.0,0.0,0.0,0.0,0.0,-0.0515,-0.1922,-0.236,-0.3425,-0.5312,0.0,0.0,0.0,0.0,0.0,0.0,0.0,0.0,0.0,0.0,0.0,0.0,0.0,0.0,0.0,0.0,0.0,0.0,0.0,0.0,0.0,0.0,0.0,0.0,0.0,0.0,0.0,0.0,0.0,0.0,0.0,0.0,0.0,0.0,0.0,0.0,0.0,0.0,0.0,0.0,0.0,0.0,0.0,0.0,0.0,0.0,0.0,0.0,0.0,0.0,0.0,0.0,0.0,0.0,0.0,0.0,0.0,0.0,0.0,0.0,0.0,0.0,0.0,0.0,0.0,0.0,0.0,0.0,0.0,0.0,0.0,0.0,0.0,0.0,0.0,0.0,0.0,0.0,0.0,0.0,0.0,0.0,0.0,0.0,0.0,0.0,0.0,0.0,0.0,0.0,0.0,0.0,0.0,0.0,0.0,0.0,0.0,0.0,0.0,0.0,0.0,0.0,0.0088,0.0369,0.0385,0.0,0.0,-0.04,-0.1264,-0.1716,-0.2493,-0.4126,0.0,0.0,0.0,0.0,0.0,0.0,0.0,0.0,0.0,0.0,0.0,0.0,0.0,0.0,0.0,0.0,0.0,0.0,0.0,0.0,0.0,0.0,0.0,0.0,0.0,0.0,0.0,0.0,0.0,0.0,0.0,0.0,0.0,0.0,0.0,0.0,0.0,0.0,0.0,0.0,0.0,0.0,0.0,0.0,0.0,0.0,0.0,0.0,0.0,0.0,0.0,0.0,0.0,0.0,0.0,0.0,0.0,0.0,0.0,0.0,0.0,0.0,0.0,0.0,0.0,0.0,0.0,0.0,0.0,0.0,0.0,0.0,0.0,0.0,0.0,0.0,0.0,0.0,0.0,0.0,0.0,0.0,0.0,0.0,0.0,0.0,0.0,0.0,0.0,0.0,0.0,0.0,0.0,0.0,0.0,0.0,0.0,0.0,0.0,0.0,0.0,0.0,0.0168,0.1087,0.1332,0.0095,0.0,0.0,0.0,-0.099,-0.1546,0.0,0.0,0.0,0.0,0.0,0.0,0.0,0.0,0.0,0.0,0.0,0.0,0.0,0.0,0.0,0.0,0.0,0.0,0.0,0.0,0.0,0.0,0.0,0.0,0.0,0.0,0.0,0.0,0.0,0.0,0.0,0.0,0.0,0.0,0.0,0.0,0.0,0.0,0.0,0.0,0.0,0.0,0.0,0.0,0.0,0.0,0.0,0.0,0.0,0.0,0.0,0.0,0.0,0.0,0.0,0.0,0.0,0.0,0.0,0.0,0.0,0.0,0.0,0.0,0.0,0.0,0.0,0.0,0.0,0.0,0.0,0.0,0.0,0.0,0.0,0.0,0.0,0.0,0.0,0.0,0.0,0.0,0.0,0.0,0.0,0.0,0.0,0.0,0.0,0.0,0.0,0.0,0.0,0.0,0.0,0.0,0.0,0.0,0.0,0.0,0.0,0.0,0.0,0.0168,0.1073,0.1312,0.0095,0.0,0.0,0.0,-0.0272,-0.0782,-0.1563,0.0,0.0,0.0,0.0,0.0,0.0,0.0,0.0,0.0,0.0,0.0,0.0,0.0,0.0,0.0,0.0,0.0,0.0,0.0,0.0,0.0,0.0,0.0,0.0,0.0,0.0,0.0,0.0,0.0,0.0,0.0,0.0,0.0,0.0,0.0,0.0,0.0,0.0,0.0,0.0,0.0,0.0,0.0,0.0,0.0,0.0,0.0,0.0,0.0,0.0,0.0,0.0,0.0,0.0,0.0,0.0,0.0,0.0,0.0,0.0,0.0,0.0,0.0,0.0,0.0,0.0,0.0,0.0,0.0,0.0,0.0,0.0,0.0,0.0,0.0,0.0,0.0,0.0,0.0,0.0,0.0,0.0,0.0,0.0,0.0,0.0,0.0,0.0,0.0,0.0,0.0,0.0,0.0,0.0,0.0,0.0,0.0,0.0,0.0,0.0,0.0,0.0,0.0898,0.1719,0.1973,0.0825,0.0274,0.0,0.0,0.0,-0.0253,-0.0952,0.0,0.0,0.0,0.0,0.0,0.0,0.0,0.0,0.0,0.0,0.0,0.0,0.0,0.0,0.0,0.0,0.0,0.0,0.0,0.0,0.0,0.0,0.0,0.0,0.0,0.0,0.0,0.0,0.0,0.0,0.0,0.0,0.0,0.0,0.0,0.0,0.0,0.0,0.0,0.0,0.0,0.0,0.0,0.0,0.0,0.0,0.0,0.0,0.0,0.0,0.0,0.0,0.0,0.0,0.0,0.0,0.0,0.0,0.0,0.0,0.0,0.0,0.0,0.0,0.0,0.0,0.0,0.0,0.0,0.0,0.0,0.0,0.0,0.0,0.0,0.0,0.0,0.0,0.0,0.0,0.0,0.0,0.0,0.0,0.0,0.0,0.0,0.0,0.0,0.0,0.0,0.0,0.0,0.0,0.0,0.0,0.0,0.0,0.0,0.0,0.0,0.0,0.1946,0.285,0.3125,0.2069,0.085,0.0168,0.0168,0.0082,0.008,0.0152,0.0,0.0,0.0,0.0,0.0,0.0,0.0,0.0,0.0,0.0,0.0,0.0,0.0,0.0,0.0,0.0,0.0,0.0,0.0,0.0,0.0,0.0,0.0,0.0,0.0,0.0,0.0,0.0,0.0,0.0,0.0,0.0,0.0,0.0,0.0,0.0,0.0,0.0,0.0,0.0,0.0,0.0,0.0,0.0,0.0,0.0,0.0,0.0,0.0,0.0,0.0,0.0,0.0,0.0,0.0,0.0,0.0,0.0,0.0,0.0,1.0656,1.0049,0.0,0.0,0.0,0.0,0.0,0.0,0.0,0.0,0.0,0.0,0.0,0.0,0.0,0.0,0.0,0.0,0.0,0.0,0.0,0.0,0.0,0.0,0.0,0.0,0.0,0.0,0.0,0.0,0.0,0.0,0.0,0.0,0.0,0.0,0.0,0.0,0.0,0.0,0.0,0.0,0.1826,0.3385,0.4112,0.2952,0.185,0.1258,0.1258,0.0494,0.0321,0.1169,0.0225,0.0,0.0,0.0,0.0,0.0,0.0,0.0,0.0,0.0,0.0,0.0,0.0,0.0,0.0,0.0,0.0,0.0,0.0,0.0,0.0,0.0,0.0,0.0,0.0,0.0,0.0,0.0,0.0,0.0,0.0,0.0,0.0,0.0,0.0,0.0,0.0,0.0,0.0,0.0,0.0,0.0,0.0,0.0,0.0,0.0,0.0,0.0,0.0,0.0,0.0,0.0,0.0,0.0,0.0,0.0,0.0,0.0,0.0,0.0,1.2796,1.203,0.0,0.0,0.0,0.0,0.0,0.0,0.0,0.0,0.0,0.0,0.0,0.0,0.0,0.0,0.0,0.0,0.0,0.0,0.0,0.0,0.0,0.0,0.0,0.0,0.0,0.0,0.0,0.0,0.0,0.0,0.0,0.0,0.0,0.0,0.0,0.0,0.0,0.0,0.0,0.0,0.2182,0.3461,0.4639,0.4782,0.3674,0.2594,0.1863,0.1604,0.1728,0.2197,0.1697,0.0,0.0,0.0,0.0,0.0,0.0,0.0,0.0,0.0,0.0,0.0,0.0,0.0,0.0,0.0,0.0,0.0,0.0,0.0,0.0,0.0,0.0,0.0,0.0,0.0,0.0,0.0,0.0,0.0,0.0,0.0,0.0,0.0,0.0,0.0,0.0,0.0,0.0,0.0,0.0,0.0,0.0,0.0,0.0,0.0,0.0,0.0,0.0,0.0,0.0,0.0,0.0,0.0,1.509,1.5117,1.5117,1.5117,1.5291,1.5451,1.5055,1.4239,1.3061,1.2936,0.0,0.0,0.0,0.0,0.0,0.0,0.0,0.0,0.0,0.0,0.0,0.0,0.0,0.0,0.0,0.0,0.0,0.0,0.0,0.0,0.0,0.0,0.9599,0.9437,0.938,0.8588,0.5801,0.0,0.0,0.0,0.0,0.0,0.0,0.0,0.0,0.0,0.0,0.0,0.2813,0.3793,0.5132,0.6452,0.5404,0.4094,0.2852,0.3084,0.3186,0.313,0.2964,0.2522,0.0,0.0,0.0,0.0,0.0,0.0,0.0,0.0,0.0,0.0,0.0,0.0,0.0,0.0,0.0,0.0,0.0,0.0,0.0,0.0,0.0,0.0,0.0,0.0,0.0,0.0,0.0,0.0,0.0,0.0,0.0,0.0,1.841,1.7623,0.0,0.0,0.0,0.0,0.0,0.0,0.0,0.0,0.0,0.0,0.0,0.0,0.0,1.4643,1.4903,1.5197,1.5337,1.5344,1.5591,1.5712,1.5712,1.5712,1.6268,1.7357,1.6828,0.0,1.4248,1.4302,0.0,0.0,0.0,0.0,0.0,0.0,0.0,0.0,0.0,0.0,0.0,0.0,0.0,0.0,0.0,0.0,0.0,0.0,0.0,0.0,0.0,0.0,1.0753,1.0645,1.0587,1.0038,0.8187,0.6561,0.5431,0.5411,0.3956,0.269,0.0,0.0,0.0,0.0,0.0,0.0,0.3732,0.5048,0.6096,0.6346,0.6124,0.5895,0.552,0.441,0.388,0.3996,0.3197,0.3072,0.3799,0.2965,0.0,0.0,0.0,0.0,0.0,0.0,0.0,0.0,0.0,0.0,0.0,0.0,0.0,0.0,0.0,0.0,0.0,0.0,0.0,0.0,0.0,0.0,0.0,0.0,0.0,0.0,0.0,0.0,0.0,1.9161,1.9154,1.8583,1.7942,1.7221,0.0,0.0,0.0,0.0,0.0,0.0,0.0,0.0,0.0,1.5311,1.5791,1.577,1.5204,1.5491,1.5638,1.5645,1.5765,1.5832,1.5818,1.5658,1.5865,1.6387,1.6689,1.6279,1.5433,1.6119,1.5891,1.5151,0.0,0.0,0.0,0.0,1.1384,1.1246,1.1246,1.1151,1.0908,1.0137,0.0,0.0,0.0,0.0,0.0,0.0,0.0,1.0318,1.0663,1.1253,1.1696,1.1651,1.1659,1.1398,1.0402,0.9606,0.8424,0.6198,0.5005,0.4365,0.4228,0.4217,0.0,0.0,0.0,0.4112,0.2014,0.4414,0.6172,0.5803,0.581,0.5745,0.5669,0.5228,0.4979,0.4977,0.4635,0.4296,0.4094,0.42,0.3573,0.0,0.0,0.0,0.0,0.0,0.0,0.0,0.0,0.0,0.0,0.0,0.0,0.0,0.0,0.0,0.0,0.0,0.0,0.0,0.0,0.0,0.0,0.0,0.0,0.0,0.0,0.0,0.0,1.9979,2.0051,1.9645,1.912,1.851,0.0,0.0,0.0,0.0,0.0,0.0,1.7927,1.8213,1.7811,1.6601,1.7078,1.6755,1.5504,1.5718,1.5832,1.5832,1.6109,1.6298,1.6285,1.6246,1.6464,1.6799,1.7167,1.7344,1.7443,1.7711,1.7441,1.6851,1.5992,1.5474,1.5096,1.3967,1.3466,1.3196,1.2898,1.2552,1.2191,1.1313,1.0984,1.0742,0.989,0.0,0.0,0.0,0.0,1.1162,1.1162,1.1723,1.2271,1.2184,1.2134,1.2066,1.1596,1.158,1.0558,0.735,0.6352,0.5887,0.5498,0.5411,0.0,0.4212,0.4974,0.4608,0.1767,0.4114,0.5892,0.5418,0.5272,0.5199,0.5272,0.5487,0.5583,0.5477,0.5579,0.5274,0.4422,0.5062,0.4662,0.3077,0.0,0.0,0.0,0.0,0.0,0.0,0.0,0.0,0.0,0.0,0.0,0.0,0.0,0.0,0.0,0.0,0.0,0.0,0.0,0.0,0.0,0.0,0.0,0.0,0.0,0.0,0.0,0.0,0.0,2.117,2.1748,0.0,0.0,0.0,0.0,1.9507,1.8903,1.8598,1.8529,1.8879,1.8459,1.7199,1.7467,1.7102,1.5805,1.5818,1.5832,1.5825,1.7037,1.7598,1.7584,1.8316,1.9297,2.0401,1.9561,1.9897,2.0809,1.8637,1.7441,1.6921,1.6851,1.6619,1.6228,1.5096,1.4515,1.4163,1.312,1.2552,1.2298,1.2211,1.2018,1.1793,1.1773,1.1786,0.0,0.0,1.2005,1.2224,1.2224,1.2263,1.2209,1.1806,1.174,1.1607,1.1217,1.1134,1.0769,0.9455,0.8027,0.6685,0.556,0.0,0.5377,0.5289,0.5369,0.5321,0.5172,0.5287,0.5463,0.5378,0.49,0.4638,0.4903,0.5034,0.5159,0.5152,0.5291,0.5369,0.5362,0.5355,0.495,0.3977,0.3898,0.0,0.0,0.0,0.0,0.0,0.0,0.0,0.0,0.0,0.0,0.0,0.0,0.0,0.0,0.0,0.0,0.0,0.0,0.0,0.0,0.0,0.0,0.0,0.0,0.0,0.0,0.0,0.0,2.208,2.2324,0.0,2.1865,2.1505,2.1313,2.1436,2.1231,2.1247,2.1506,2.1567,2.1094,1.9911,1.9957,1.9397,1.8211,1.8211,1.8211,1.8211,1.8672,1.8864,1.884,1.8612,1.8779,1.9256,1.9179,1.9414,1.9752,1.9654,1.9478,1.9201,1.8496,1.8171,1.797,1.6787,1.6022,1.5511,1.5132,1.4179,1.3098,1.2519,1.2231,1.2144,1.2144,1.2144,1.2144,1.2144,1.2225,1.2265,1.2315,1.2271,1.2141,1.163,1.1207,1.0922,1.0842,1.0797,1.0684,1.0251,0.8846,0.7897,0.8614,0.6874,0.5421,0.5375,0.5382,0.538,0.5388,0.5043,0.4991,0.5384,0.4996,0.4742,0.4677,0.4869,0.4996,0.4996,0.5113,0.5143,0.5077,0.5165,0.5057,0.4744,0.468,0.4466,0.0,0.0,0.0,0.0,0.0,0.0,0.0,0.0,0.0,0.0,0.0,0.0,0.0,0.0,0.0,0.0,0.0,0.0,0.0,0.0,0.0,0.0,0.0,0.0,0.0,2.1963,2.2568,2.2715,2.2725,2.2725,2.2725,2.2471,2.2422,2.2705,2.2725,2.2842,2.3125,2.3135,2.2589,2.1382,2.1293,2.0755,1.9488,1.9497,1.9497,1.9497,1.9943,2.0124,2.0099,1.9713,1.9536,1.9577,1.9542,1.952,1.9599,2.0323,2.0478,2.0284,1.9788,1.9418,1.9104,1.7695,1.6916,1.6487,1.6055,1.5024,1.3757,1.3107,1.2677,1.2311,1.2311,1.2265,1.2305,1.2305,1.2311,1.2276,1.2322,1.2284,1.2075,1.1323,1.0837,1.062,1.062,1.0615,1.0552,1.0338,0.9515,0.9227,1.04,0.8323,0.6216,0.5269,0.5105,0.5076,0.5093,0.4763,0.4652,0.5033,0.4903,0.4717,0.4534,0.4717,0.4843,0.4843,0.4955,0.4982,0.4918,0.5009,0.506,0.506,0.5253,0.5293,0.5195,0.0,0.0,0.0,0.0,0.0,0.0,0.0,0.0,0.0,0.0,0.0,0.0,0.0,0.0,0.0,0.0,0.0,0.0,0.0,0.0,0.0,0.0,0.0,2.2184,2.2415,2.2695,2.3125,2.3154,2.3144,2.3154,2.3144,2.3135,2.3135,2.3135,2.3135,2.3135,2.3135,2.258,2.1382,2.1391,2.0755,1.9579,1.9588,1.9588,1.9588,2.0845,2.1373,2.1337,2.173,2.1875,2.1816,2.0947,2.0566,2.0566,2.0547,2.0293,1.9951,2.0391,2.0225,1.9502,1.7665,1.7087,1.7054,1.5715,1.4806,1.4285,1.4293,1.3423,1.2328,1.2328,1.2344,1.2298,1.2285,1.2249,1.2267,1.2253,1.2272,1.197,1.0837,1.0606,1.0611,1.0611,1.0595,1.0444,0.9765,1.0128,1.0555,1.0578,0.9575,0.788,0.505,0.4626,0.0,0.4516,0.4565,0.4537,0.452,0.4561,0.4561,0.4561,0.468,0.4742,0.4742,0.4882,0.4904,0.4965,0.4908,0.4914,0.4979,0.5522,0.5829,0.5829,0.0,0.0,0.0,0.0,0.0,0.0,0.0,0.0,0.0,0.0,0.0,0.0,0.0,0.0,0.0,0.0,0.0,0.0,0.0,0.0,0.0,2.1611,2.2483,2.2357,2.2668,2.3008,2.3092,2.3105,2.3262,2.3584,2.332,2.3135,2.3135,2.3135,2.3135,2.3135,2.3135,2.296,2.2589,2.2589,2.2403,2.2138,2.2138,2.2138,2.2138,2.2403,2.2427,2.2122,2.1952,2.1709,2.1387,2.081,2.0566,2.0537,2.0225,1.9971,1.9834,2.0361,2.0088,1.937,1.9165,1.8684,1.7981,1.6368,1.587,1.5896,1.563,1.4688,1.3701,1.3701,1.3006,1.2263,1.1968,1.1766,1.168,1.1648,1.1342,1.1008,1.0657,1.0246,1.0098,1.0513,1.0622,1.0272,0.9271,0.9197,0.9458,0.9887,0.9688,0.9029,0.7797,0.6719,0.566,0.4657,0.5374,0.563,0.4584,0.5759,0.6313,0.558,0.5852,0.6073,0.6073,0.5617,0.559,0.6104,0.578,0.5856,0.6469,0.6557,0.662,0.0,0.0,0.0,0.0,0.0,0.0,0.0,0.0,0.0,0.0,0.0,0.0,0.0,0.0,0.0,0.0,0.0,0.0,0.0,0.0,0.0,0.0,2.208,2.2808,2.2648,2.2882,2.3183,2.3374,2.3183,2.331,2.375,2.3398,2.3135,2.3135,2.3135,2.3135,2.3135,2.3135,2.3135,2.3135,2.3135,2.3135,2.3135,2.3135,2.3047,2.2881,2.2881,2.2656,2.2236,2.1807,2.1475,2.1211,2.0762,2.0459,2.0273,2.0019,1.9658,0.0,0.0,0.0,0.0,0.0,1.8475,1.7488,1.7028,1.7033,1.7148,1.6945,1.6421,1.5773,1.5791,1.5035,1.4034,1.3454,1.2614,1.202,1.2043,1.1325,1.0608,1.0571,1.0334,1.0052,0.9858,0.9827,0.9646,0.8941,0.8827,0.0,0.925,0.9312,0.9194,0.8845,0.7796,0.6627,0.5521,0.6081,0.6258,0.5445,0.6386,0.6825,0.6268,0.6426,0.0,0.0,0.0,0.6145,0.6588,0.6322,0.0,0.0,0.0,0.0,0.0,0.0,0.0,0.0,0.6916,0.6653,0.0,0.0,0.0,0.0,0.0,0.0,0.0,0.0,0.0,0.0,0.0,0.0,0.0,0.0,0.0,0.0,2.2305,2.2715,2.3086,2.3135,2.3281,2.3672,2.3379,2.3291,2.3682,2.3359,2.3135,2.3135,2.3135,2.3135,2.3135,2.3135,0.0,0.0,0.0,2.3135,2.3135,2.3135,2.2949,2.2578,2.2539,2.2295,2.1865,2.1435,2.1211,2.1133,2.0684,2.0273,1.9902,1.9805,1.9297,1.8603,1.8994,1.8711,1.8076,1.8027,1.7248,1.6486,1.7628,0.0,0.0,1.8008,1.7978,1.7967,1.7909,1.7254,1.6387,1.5455,1.4118,1.2949,1.306,1.1926,1.0798,1.0882,1.08,1.0384,0.9336,0.8909,0.8783,0.8792,0.8797,0.8804,0.8804,0.8782,0.8786,0.8781,0.8221,0.7563,0.6804,0.6804,0.6804,0.6642,0.0,0.0,0.675,0.6804,0.6858,0.6858,0.6858,0.6804,0.675,0.6804,0.6858,0.6858,0.7509,0.783,0.783,0.848,0.8804,0.8752,0.7456,0.6858,0.0,0.0,0.0,0.0,0.0,0.0,0.0,0.0,0.0,0.0,0.0,0.0,0.0,0.0,0.0,2.2305,2.2744,2.3047,2.3125,2.3135,2.3164,2.3252,2.3193,2.3174,2.3262,2.3184,2.3135,2.3135,2.3135,2.3135,2.3135,2.3135,2.3135,2.3135,2.3135,2.3135,2.3135,2.3135,2.3096,2.3018,2.2676,0.0,2.1865,2.1435,2.1035,2.0674,2.0234,1.999,1.9863,1.917,1.8584,1.8144,1.8223,1.8458,1.8675,1.8154,1.7852,1.7696,1.793,1.8008,1.8008,1.8008,1.8027,1.791,1.7406,1.6485,0.0,1.4383,1.3878,1.3584,1.3644,1.2773,1.2003,1.2416,1.1829,1.1118,1.0887,0.9767,0.8811,0.8817,0.8784,0.8804,0.8804,0.8798,0.8778,0.8791,0.8685,0.8321,0.7563,0.7996,0.7937,0.675,0.767,0.8156,0.7557,0.8049,0.8374,0.8374,0.8374,0.8103,0.7503,0.8049,0.8374,0.8374,0.8533,0.8593,0.8593,0.8752,0.8804,0.8804,0.848,0.8374,0.0,0.0,0.0,0.0,0.0,0.0,0.0,0.0,0.0,0.0,0.0,2.3417,2.3536,0.0,2.2975,2.284,2.2998,2.3135,2.3135,2.3135,2.3135,2.3135,2.3135,2.3135,2.3135,2.3135,2.3135,2.3135,2.3135,2.3135,2.3135,2.3135,2.3135,2.3135,2.3135,2.3135,2.3135,2.3135,2.3027,2.2822,2.2402,2.1973,2.1543,2.1103,2.0781,2.0537,2.0098,1.9795,1.9531,1.8682,1.8193,1.8008,1.8008,1.8154,1.8399,1.8096,1.8008,1.8008,1.8008,1.8008,1.8008,1.8008,1.7784,1.7521,1.7187,1.6305,1.5269,1.4739,1.4587,1.4623,1.4579,1.4213,1.3696,1.3357,1.27,1.2064,1.1747,1.104,1.012,0.9003,0.8795,0.8797,0.8798,0.8804,0.8804,0.8804,0.8804,0.8646,0.8321,0.8586,0.8533,0.7777,0.8374,0.8646,0.8262,0.8593,0.8804,0.8804,0.8804,0.8646,0.8268,0.8586,0.8804,0.8804,0.8804,0.8804,0.8804,0.8804,0.8804,0.8804,0.8804,0.8804,0.0,0.0,0.0,0.0,0.0,0.0,0.0,2.4635,2.5262,2.6226,2.5737,2.5058,2.4762,2.4501,2.4043,2.325,2.3135,2.3135,2.3135,2.3135,2.3135,2.3135,2.3135,2.3135,2.3135,2.3135,2.3135,2.3135,2.3135,2.3135,2.3135,2.3135,2.3135,2.3135,2.3135,2.3135,2.3135,2.3135,2.293,2.251,2.2183,2.167,2.1221,2.0771,2.0518,2.041,1.9893,1.9424,1.8984,1.8291,1.8008,1.8008,1.8008,1.8008,1.8008,1.8008,1.8008,1.8008,1.8008,1.8008,1.7998,1.791,1.756,1.7116,1.6943,1.6266,1.5489,1.5449,1.541,1.5391,1.5312,1.5283,1.4974,1.3858,1.3282,1.2846,1.2352,1.2245,1.1748,0.9946,0.946,0.9334,0.9316,0.912,0.8956,0.8804,0.8758,0.8724,0.8724,0.8671,0.8637,0.8637,0.8637,0.8664,0.8717,0.8671,0.8664,0.8717,0.8724,0.8724,0.8724,0.8778,0.8804,0.8804,0.8804,0.8804,0.8804,0.8804,0.8804,0.8804,0.8804,0.8804,2.0009,2.1542,2.2924,2.405,2.4526,2.5065,0.0,2.7276,2.7838,2.845,2.8082,2.738,2.6453,2.5387,2.4405,2.3299,2.3135,2.3135,2.3135,2.3135,2.3135,2.3135,2.3135,2.3135,2.3135,2.3135,2.3135,2.3135,2.3135,2.3135,2.3135,2.3135,2.3135,2.3135,2.3135,2.3135,2.3135,2.3135,2.293,2.251,2.2316,2.1873,2.1221,2.0771,2.0352,1.9941,1.9131,1.8545,1.8144,1.8047,1.8008,1.8008,1.8008,1.8008,1.8008,1.8008,1.8008,1.8008,1.8008,1.8008,1.7949,1.7578,1.7422,1.7227,1.6458,1.6094,1.5957,1.5537,1.541,1.5322,1.4951,1.4778,1.4499,1.3723,1.3204,1.2889,1.284,1.279,1.2738,1.2513,1.1749,1.1217,1.1184,1.0368,0.9465,0.891,0.8591,0.8424,0.8424,0.819,0.7981,0.7981,0.7981,0.8136,0.8397,0.8183,0.8143,0.8404,0.8424,0.8424,0.8424,0.8671,0.8804,0.8804,0.8804,0.8804,0.8804,0.8804,0.8804,0.8804,0.8804,0.8804,2.0062,2.1923,2.3472,2.4166,2.5071,2.6038,2.7055,2.7708,2.836,2.9252,2.9282,2.8767,2.7614,2.6543,2.5475,2.4579,2.373,2.3232,2.3486,2.3301,2.3135,2.3135,2.3135,2.3135,2.3135,2.3135,2.3135,2.3135,2.3135,2.3135,2.3135,2.3135,2.3135,2.3135,2.3135,2.3135,2.3135,2.3135,2.3046,2.2853,2.2306,2.1771,2.133,2.086,2.0195,1.9512,1.8896,1.8398,1.8008,1.8008,1.8008,1.8008,1.8008,1.8008,1.8008,1.8008,1.8008,1.8008,1.8008,1.7852,1.7617,1.7441,1.7031,1.6605,1.6243,1.5889,1.5644,1.5469,1.5167,1.4924,1.4824,1.459,1.4184,1.3652,1.3375,1.3188,1.2959,1.292,1.2792,1.232,1.1936,1.1569,1.1175,1.0694,1.0269,1.002,0.9203,0.8624,0.8624,0.837,0.8123,0.7902,0.7882,0.7935,0.8103,0.8003,0.7983,0.811,0.8116,0.8116,0.8116,0.8397,0.847,0.8297,0.8464,0.847,0.8297,0.847,0.8557,0.8557,0.8731,0.8804,1.9944,2.1638,2.3065,2.3867,2.5049,2.6313,2.7085,2.7821,2.8561,2.9377,2.9679,2.9456,2.8335,2.7452,2.6629,2.5601,2.4344,2.3622,2.382,2.3418,2.3135,2.3135,2.3135,2.3135,2.3135,2.3135,2.3135,2.3135,2.3135,2.3135,2.3135,2.3135,2.3135,2.3135,2.3135,2.3135,2.3135,2.3135,2.2997,2.278,2.2154,2.1693,2.1154,2.0769,2.0157,1.9258,1.8711,1.8291,1.8008,1.8008,1.8008,1.8008,1.8008,1.8144,1.8327,1.8327,1.8202,1.8008,1.8008,1.7821,1.7534,1.7321,1.6772,1.6196,1.5988,1.5664,1.541,1.541,1.5118,1.4817,1.4658,1.4439,1.4076,1.3467,1.334,1.3252,1.2949,1.2881,1.2725,1.2187,1.208,1.1931,1.1484,1.1216,1.1065,1.1065,1.0115,0.92,0.8885,0.8328,0.7949,0.7816,0.7729,0.7702,0.7868,0.7729,0.7669,0.7796,0.7802,0.7802,0.7802,0.809,0.815,0.7888,0.8143,0.8143,0.7882,0.823,0.8427,0.8434,0.8871,0.8956,1.9834,2.0571,2.1755,2.3718,2.46,2.5432,2.693,2.8122,2.8913,2.895,2.9402,2.9456,2.8335,2.8084,2.744,2.5677,2.5016,2.4537,2.39,2.3418,2.3135,2.3135,2.3135,2.3135,2.3135,2.3135,2.3135,2.3135,2.3135,2.3135,2.3135,2.3135,2.3135,2.3135,2.3135,2.3135,2.3135,2.3135,2.2725,2.1914,2.1894,2.1435,2.0644,2.0606,2.0099,1.9238,1.8389,1.8018,1.8008,1.8008,1.8008,1.8008,1.8008,1.8529,1.9243,1.9243,1.8721,1.8008,1.8008,1.8004,1.7835,1.6988,1.6691,1.6538,1.5704,1.542,1.541,1.541,1.54,1.5205,1.4365,1.437,1.4288,1.3165,1.29,1.29,1.2881,1.2881,1.2881,1.2881,1.2881,1.2881,1.2832,1.2236,1.1765,1.1765,1.1166,1.0268,0.9041,0.7813,0.7168,0.7493,0.7221,0.7244,0.7835,0.7344,0.7174,0.7506,0.7527,0.7527,0.7527,0.7776,0.7888,0.7882,0.7888,0.7888,0.7882,0.823,0.8427,0.8434,0.9365,0.9413,1.965,2.0631,2.1599,2.292,2.3598,2.4391,2.5937,2.6554,2.7152,2.815,2.8536,2.8587,2.8175,2.7823,2.7252,2.6129,2.5584,2.4898,2.3939,2.3906,2.3779,2.3213,2.3389,2.3457,2.3164,2.3135,2.3135,2.3135,2.3135,2.3135,2.3135,2.3135,2.3135,2.3135,2.3135,2.3135,2.3135,2.2755,2.2988,2.3787,2.3662,2.3243,2.2531,2.1815,2.128,2.0828,1.9672,1.867,1.8031,1.8007,1.8008,1.8076,1.8664,1.9044,1.9375,2.0336,2.0213,1.95,1.9233,1.8933,1.8566,1.7398,1.7179,1.7066,1.5798,1.537,1.5407,1.5371,1.5392,1.5324,1.5029,1.4212,1.3372,1.3008,1.2881,1.2881,1.2881,1.2881,1.2881,1.2881,1.2881,1.2881,1.2881,1.2715,1.2344,1.1864,1.1216,1.0458,0.9554,0.9328,0.9017,0.8369,0.8442,0.852,0.845,0.7906,0.7664,0.7773,0.778,0.778,0.778,0.8385,0.8629,0.8415,0.8622,0.8737,0.8826,0.9113,0.9446,0.9719,1.0205,1.0364,1.9231,2.0094,2.1073,2.1999,2.2564,2.3298,2.4646,2.538,2.6068,2.7103,2.7728,2.8109,2.8109,2.7841,2.743,2.6932,2.6074,2.5262,2.4735,2.4246,2.3818,2.3418,2.3623,2.3623,2.3184,2.3281,2.3301,2.3154,2.3135,2.3135,2.3135,2.3135,2.3135,2.3135,2.3135,2.3135,2.3135,2.3047,2.3711,2.5004,2.4641,2.4526,2.4503,2.3467,2.2685,2.2127,2.1296,1.9823,1.8035,1.8004,1.8375,1.8977,1.9208,1.9694,2.0344,2.1238,2.1495,2.1205,2.0584,1.9897,1.9213,1.8372,1.7516,1.684,1.6949,1.6218,1.5385,1.5415,1.5399,1.5331,1.4893,1.4053,1.3273,1.2959,1.2881,1.2881,1.2881,1.2881,1.2881,1.2881,1.2881,1.2881,1.2881,1.2881,1.2725,1.2236,1.1832,1.1149,1.0106,1.0123,0.9964,0.9354,0.9423,0.9389,0.908,0.8654,0.8325,0.8201,0.8201,0.8201,0.8201,0.8689,0.8873,0.8724,0.8865,0.9022,0.9106,0.9501,0.9856,1.015,1.0829,1.1015,1.8691,1.9307,2.0157,2.1104,2.1638,2.2178,2.322,2.4611,2.5706,2.5779,2.6944,2.8009,2.7984,2.8047,2.8052,2.787,2.6645,2.5832,2.6104,2.4454,2.3408,2.3779,2.3828,2.3652,2.3213,2.3525,2.3584,2.3164,2.3135,2.3135,2.3135,2.3135,2.3135,2.3135,2.3135,2.3135,2.3115,2.3969,2.4668,2.535,2.4819,2.5248,2.6481,2.5354,2.4205,2.3166,2.3096,2.1187,1.8147,1.8071,1.8996,2.049,1.9713,2.0462,2.1877,2.1951,2.2408,2.2845,2.1848,2.0807,1.9875,1.9759,1.7902,1.6155,1.8881,1.7799,1.5639,1.5627,1.5511,1.5196,1.4143,1.4039,1.3988,1.3203,1.3027,1.3027,1.3027,1.2978,1.2978,1.2978,1.2929,1.2881,1.2881,1.2881,1.2881,1.2881,1.2881,1.2319,1.072,1.0229,1.0145,1.041,1.0195,0.9939,0.9831,0.9498,0.919,0.8806,0.8765,0.8756,0.8756,0.8756,0.8797,0.8797,0.8797,0.8805,0.883,0.9464,0.9777,0.9873,1.1195,1.1499,1.9502,1.998,2.0477,2.0775,2.0854,2.1231,2.2178,2.3235,2.4292,2.5039,2.611,2.6753,2.6314,2.7256,2.7817,2.7007,2.7069,2.6964,2.6298,2.551,2.4873,2.4316,2.4258,2.4092,2.3662,2.3428,2.3262,2.3144,2.3135,2.3135,2.3135,2.3135,2.3135,2.3135,2.3135,2.3114,2.3137,2.4454,2.5002,2.4739,2.555,2.6173,2.6482,2.5306,2.4476,2.3891,2.3362,2.1906,1.9838,1.8562,1.8783,1.9965,2.0595,2.1283,2.1939,2.2567,2.2434,2.185,2.1572,2.1304,2.0809,1.9431,1.8863,1.8613,1.8294,1.8426,1.8672,1.867,1.75,1.6153,1.5857,1.5829,1.559,1.4482,1.4463,1.46,1.4316,1.3884,1.3552,1.3552,1.319,1.2881,1.2881,1.2881,1.2881,1.2881,1.2881,1.2619,1.1846,1.1969,1.1893,1.1365,1.1497,1.1497,1.1132,1.0376,0.9842,0.9745,0.9479,0.9279,0.9279,0.9677,0.9883,0.9883,0.9883,1.0024,1.0324,1.0498,1.092,1.1583,1.194,1.2206,1.9619,2.0088,2.0518,2.0322,2.0283,2.0426,2.0929,2.1734,2.2601,2.3524,2.4453,2.5209,2.5244,2.6427,2.7313,2.6871,2.685,2.6838,2.6866,2.5747,2.4766,2.4453,2.4414,2.417,2.3564,2.3457,2.335,2.3154,2.3135,2.3135,2.3135,2.3135,2.3135,2.3135,2.2862,2.2869,2.3205,2.4515,2.5242,2.5414,2.6139,2.6533,2.6496,2.5561,2.5034,2.468,2.3566,2.2589,2.1608,2.0608,2.0602,2.1227,2.1374,2.1832,2.2506,2.2944,2.2585,2.182,2.1568,2.133,2.0924,1.9589,1.9475,1.9643,1.8821,1.9141,1.9815,1.9788,1.8919,1.7859,1.7361,1.6872,1.6127,1.4776,1.4903,1.5246,1.4994,1.4558,1.419,1.419,1.3695,1.3286,1.3286,1.3286,1.319,1.2929,1.2881,1.2793,1.2549,1.2725,1.2695,1.2233,1.2363,1.2334,1.1895,1.1175,1.0681,1.0452,1.0059,0.9834,0.9834,1.0118,1.0283,1.0283,1.0283,1.04,1.0635,1.082,1.1162,1.1606,1.1846,1.2168,1.9404,1.9873,2.0391,2.001,1.9912,1.9912,1.9912,2.0368,2.1026,2.1829,2.2808,2.3755,2.4526,2.5674,2.671,2.7193,2.6541,2.6326,2.7631,2.5701,2.4205,2.4453,2.4404,2.4043,2.3301,2.3516,2.3545,2.3164,2.3319,2.3319,2.3135,2.3135,2.3115,2.3057,2.2493,2.2605,2.3416,2.4491,2.5538,2.6533,2.6533,2.6533,2.6508,2.5967,2.5633,2.5332,2.3791,2.3096,2.3096,2.3096,2.3096,2.2985,2.199,2.2225,2.3078,2.3078,2.2811,2.2329,2.1694,2.1104,2.0473,1.9974,1.9798,1.9798,1.9798,1.9798,1.9799,1.9799,1.9823,1.9556,1.8469,1.7449,1.6325,1.4778,1.4937,1.5474,1.5474,1.5108,1.4789,1.4709,1.4283,1.3909,1.3909,1.3909,1.3732,1.32,1.3162,1.3113,1.3017,1.2978,1.2881,1.2881,1.2881,1.2725,1.2353,1.1855,1.1439,1.1025,1.0547,1.0283,1.0283,1.0283,1.0283,1.0283,1.0283,1.0283,1.0283,1.0645,1.085,1.0918,1.1299,1.1748,1.9404,1.9648,2.001,1.9932,1.9912,1.9912,1.9912,2.0368,2.1026,2.1829,2.2808,2.3646,2.4091,2.541,2.671,2.7193,2.7408,2.7694,2.8331,2.689,2.5543,2.4996,2.4326,2.3838,2.3691,2.3418,2.3223,2.3144,2.4303,2.4399,2.3135,2.3135,2.2978,2.2627,2.2201,2.2408,2.3405,2.5283,2.6291,2.6533,2.6533,2.6533,2.6521,2.6413,2.5996,2.5332,2.3791,2.3109,2.3092,2.3092,2.3092,2.308,2.2884,2.2932,2.3078,2.3078,2.3018,2.2834,2.1857,2.0827,1.9929,1.982,1.9798,1.9798,1.9798,1.9798,1.9786,1.9787,1.9825,1.9535,1.849,1.8056,1.7591,1.636,1.6207,1.6287,1.6287,1.5844,1.5276,1.4789,1.4617,1.456,1.456,1.456,1.4514,1.4387,1.4387,1.4201,1.3684,1.319,1.2881,1.2881,1.2881,1.2852,1.2773,1.2067,1.1577,1.1498,1.0753,1.0283,1.0283,1.0283,1.0283,1.0283,1.0283,1.0283,1.0283,1.0352,1.0566,1.0908,1.0986,1.1455,2.0042,1.9949,1.9863,1.9639,1.959,1.9531,1.9297,1.9272,1.9696,2.1019,2.1693,2.2286,2.3344,2.4895,2.6101,2.6364,2.6821,2.7195,2.7346,2.6216,2.5139,2.4529,2.4043,2.3701,2.3467,2.3262,2.3135,2.3135,2.3764,2.4217,2.4303,2.4079,2.3659,2.3063,2.2312,2.2569,2.3929,2.5637,2.6466,2.6533,2.6533,2.6533,2.6508,2.619,2.5775,2.5345,2.4154,2.3467,2.3078,2.3078,2.3078,2.3078,2.3078,2.3078,2.3078,2.3078,2.2908,2.2546,2.1776,2.1011,2.0291,1.991,1.9798,1.9798,1.9798,1.9798,1.9798,1.9798,1.9788,1.966,1.9166,1.816,1.7173,1.6641,1.6522,1.6522,1.6522,1.6008,1.5588,1.5656,1.5377,1.5186,1.5186,1.5186,1.505,1.4744,1.4698,1.4606,1.4329,1.4014,1.3621,1.2978,1.2881,1.2881,1.2881,1.2116,1.1606,1.1606,1.0802,1.0283,1.0283,1.0283,1.0283,1.0283,1.0283,1.0283,1.0283,1.0283,1.0381,1.0586,1.0586,1.1055,2.0331,2.0082,1.9678,1.9258,1.9219,1.918,1.874,1.8311,1.8462,2.0009,2.0462,2.1037,2.2567,2.4166,2.5322,2.5561,2.6088,2.6441,2.6293,2.5471,2.454,2.39,2.3711,2.3516,2.3174,2.3135,2.3135,2.3135,2.3461,2.4245,2.5529,2.5378,2.4666,2.3694,2.2505,2.2772,2.4484,2.5804,2.6532,2.6533,2.6533,2.6533,2.6508,2.585,2.5426,2.5127,2.4444,2.3764,2.3078,2.3078,2.3078,2.3078,2.3078,2.3078,2.3078,2.3078,2.2702,2.2056,2.1669,2.1117,2.0564,1.9987,1.9798,1.9798,1.9798,1.9798,1.9798,1.9798,1.9788,1.9767,1.9521,1.8185,1.6781,1.6579,1.6522,1.6522,1.6522,1.6151,1.5908,1.6423,1.6107,1.5776,1.5776,1.5776,1.5644,1.5152,1.5107,1.5017,1.4926,1.488,1.4468,1.3382,1.3296,1.3208,1.2974,1.2228,1.1687,1.1469,1.0744,1.0283,1.0283,1.0283,1.0283,1.0283,1.0283,1.0351,1.0467,1.0467,1.0517,1.0606,1.0606,1.1002,1.954,1.9393,1.9238,1.8809,1.8994,1.918,1.874,1.8311,1.8269,1.9233,2.0074,2.091,2.1815,2.3169,2.4469,2.5435,2.6095,2.6432,2.6355,2.5824,2.5067,2.395,2.3437,2.3184,2.3144,2.3135,2.3135,2.3135,2.4493,2.5687,2.6385,2.6318,2.569,2.4247,2.2703,2.2747,2.4507,2.5791,2.649,2.6533,2.6533,2.6533,2.6508,2.5745,2.4987,2.4273,2.4117,2.3678,2.3078,2.3078,2.3078,2.3078,2.3078,2.3078,2.3078,2.3078,2.2424,2.1555,2.1494,2.0814,1.9904,1.982,1.9798,1.9798,1.9798,1.9798,1.9798,1.9798,1.9788,1.9592,1.8599,1.8198,1.7779,1.6741,1.6522,1.6522,1.6522,1.6479,1.6423,1.6479,1.6479,1.6423,1.6423,1.6423,1.638,1.6337,1.6337,1.6151,1.5588,1.5543,1.5276,1.4606,1.4525,1.4155,1.317,1.2687,1.2016,1.1038,1.0537,1.0283,1.0283,1.0283,1.0283,1.0283,1.0283,1.0505,1.0943,1.0943,1.1162,1.1569,1.1569,1.1785,2.0041,1.9499,1.8789,1.8369,1.8574,1.8779,1.8359,1.8125,1.8269,1.911,1.9562,2.0268,2.1628,2.2633,2.3429,2.4093,2.4742,2.5111,2.5026,2.4893,2.4585,2.3995,2.3785,2.3529,2.3115,2.291,2.3018,2.3753,2.5242,2.623,2.6469,2.6504,2.6065,2.514,2.3457,2.3028,2.3906,2.5599,2.6533,2.6533,2.6533,2.6533,2.6496,2.5511,2.4828,2.4553,2.3779,2.3351,2.3078,2.3078,2.3078,2.3078,2.3078,2.3078,2.3078,2.3078,2.2811,2.2355,2.1694,2.1606,2.1572,2.0243,1.9798,1.9798,1.9798,1.9798,1.9798,1.9798,1.9798,1.9403,1.7626,1.7161,1.7042,1.6597,1.6522,1.6522,1.6522,1.6522,1.6522,1.6522,1.6522,1.6522,1.6522,1.6522,1.6522,1.6522,1.6522,1.6423,1.6194,1.6139,1.6051,1.5788,1.4842,1.405,1.363,1.2868,1.2265,1.1831,1.1435,1.1217,1.1217,1.1217,1.1217,1.1217,1.1217,1.1282,1.1468,1.1468,1.1757,1.2217,1.1894,1.2319,1.9885,1.9328,1.8535,1.8115,1.832,1.8455,1.8105,1.8008,1.8134,1.8787,1.911,1.9694,2.091,2.1655,2.225,2.2826,2.3245,2.3675,2.3955,2.3852,2.3885,2.4228,2.3701,2.3223,2.2893,2.2546,2.2835,2.4151,2.5228,2.603,2.6481,2.6518,2.6299,2.5853,2.4741,2.4174,2.4413,2.582,2.6533,2.6533,2.6533,2.6445,2.6176,2.5247,2.4732,2.4519,2.3565,2.3078,2.3078,2.3078,2.3078,2.3078,2.3078,2.3078,2.3078,2.3078,2.2905,2.2509,2.1781,2.1758,2.1891,2.0295,1.9798,1.9798,1.9798,1.9798,1.9786,1.98,1.9315,1.8482,1.691,1.652,1.6522,1.6522,1.6522,1.6522,1.6522,1.6522,1.6522,1.6522,1.6522,1.6522,1.6522,1.6522,1.6522,1.6522,1.6522,1.6522,1.6522,1.6522,1.6459,1.6296,1.5037,1.4128,1.3959,1.3174,1.2551,1.2251,1.1964,1.1811,1.1811,1.1811,1.1811,1.1811,1.1957,1.2099,1.2247,1.2247,1.259,1.326,1.2716,1.3128,1.8606,1.8633,1.8535,1.8115,1.832,1.8455,1.8105,1.8008,1.8008,1.8008,1.8721,1.9309,1.9299,2.002,2.0915,2.1879,2.2047,2.2366,2.3306,2.3011,2.3211,2.4614,2.3051,2.2043,2.2281,2.2076,2.2564,2.4082,2.42,2.4881,2.6421,2.6477,2.6477,2.6465,2.6452,2.6452,2.6452,2.6452,2.6533,2.6533,2.6533,2.6163,2.5586,2.5059,2.4519,2.3966,2.3389,2.3078,2.3078,2.3078,2.3078,2.3078,2.3078,2.3078,2.3078,2.3078,2.2447,2.1506,2.1493,2.0765,1.9823,1.9811,1.9798,1.9798,1.9798,1.9798,1.9799,1.9798,1.8229,1.6516,1.6523,1.6479,1.6522,1.6522,1.6522,1.6522,1.6522,1.6522,1.6522,1.6522,1.6522,1.6522,1.6522,1.6522,1.6522,1.6522,1.6522,1.6522,1.6522,1.6522,1.6308,1.5768,1.5216,1.4658,1.4149,1.3605,1.2869,1.1881,1.1811,1.1811,1.1811,1.1811,1.1811,1.1811,1.2332,1.2812,1.3269,1.3269,1.3816,1.4742,1.4222,1.4236,1.8438,1.8198,1.7822,1.7969,1.8115,1.8174,1.8037,1.8008,1.8008,1.8008,1.8202,1.8596,1.9177,2.0009,2.0904,2.1879,2.2514,2.3258,2.4337,2.4018,2.4072,2.5108,2.3896,2.3127,2.3578,2.3544,2.3842,2.4699,2.4737,2.5254,2.6465,2.6533,2.6533,2.6533,2.6533,2.6533,2.6533,2.6038,2.6038,2.6521,2.6063,2.5774,2.5586,2.5315,2.4836,2.4079,2.3401,2.3078,2.3078,2.3078,2.3078,2.3078,2.3078,2.3078,2.3078,2.3078,2.2435,2.1387,2.0631,2.0101,1.9798,1.9798,1.9798,1.9798,1.9798,1.9798,1.9458,1.7983,1.7038,1.6498,1.6486,1.6522,1.6522,1.6522,1.6522,1.6522,1.6522,1.6522,1.6522,1.6522,1.6522,1.6522,1.6522,1.6522,1.6522,1.6522,1.6522,1.6522,1.6522,1.6522,1.6308,1.5756,1.5542,1.5089,1.4162,1.3581,1.3092,1.2768,1.2768,1.2961,1.335,1.3374,1.3545,1.3911,1.4082,1.4256,1.441,1.441,1.4545,1.4863,1.543,1.5381,1.8101,1.781,1.749,1.791,1.7891,1.7812,1.7978,1.8269,1.8405,1.8076,1.8269,1.8529,1.8787,1.9233,1.9995,2.1022,2.1855,2.2868,2.4225,2.3892,2.4047,2.5309,2.4966,2.4425,2.3966,2.391,2.4232,2.4957,2.5004,2.5441,2.6465,2.6533,2.6533,2.6533,2.6533,2.6533,2.6533,2.6063,2.6076,2.6521,2.6101,2.5803,2.5517,2.5432,2.4836,2.3764,2.3301,2.3078,0.0,2.3078,2.3078,2.3078,2.3078,2.3078,2.3078,2.3078,2.2435,2.14,2.0828,2.0283,1.9798,1.9798,1.9798,1.9798,1.9798,1.9825,1.9334,1.7111,1.6503,1.652,1.6486,1.6522,1.6522,1.6522,1.6522,1.6522,1.6522,1.6522,1.6522,1.6522,1.6522,1.6522,1.6522,1.6522,1.6522,1.6522,1.6522,1.6522,1.6522,1.6522,1.6308,1.5756,1.5693,1.5254,1.4173,1.3783,1.3546,1.3546,1.3546,1.3785,1.4374,1.44,1.4563,1.4903,1.5117,1.5178,1.5178,1.5392,1.5379,1.5203,1.6095,1.612,0.0,1.7534,1.7612,1.7968,1.7782,1.7529,1.7988,1.8721,0.0,1.8337,1.8854,1.9187,1.8377,1.8221,1.8612,1.9949,2.0599,2.1636,2.3386,2.3139,2.3479,2.5437,2.6137,2.5767,2.3875,2.3734,2.4108,2.5004,2.5087,2.5511,2.6465,2.6533,2.6533,2.6533,2.6533,2.6533,2.6533,2.6483,2.6483,2.6533,2.6445,2.6034,2.5396,2.5357,2.452,2.3078,2.3078,2.3078,2.3078,2.3078,2.3078,2.3078,2.3078,2.3078,2.3078,2.3078,2.246,2.1668,2.1868,2.1015,1.9798,1.9798,1.9786,1.9825,1.9825,1.994,1.9592,1.7171,1.6558,1.6593,1.6622,1.6552,1.6539,1.665,1.6565,1.6522,1.6595,1.6552,1.6522,1.6595,1.6552,1.6522,1.6552,1.6522,1.6522,1.6522,1.6522,1.6522,1.6522,1.6522,1.6308,1.5756,1.5731,1.5304,1.4236,1.4148,1.4123,1.4085,1.4123,1.4387,1.4941,1.4966,1.4979,1.5029,1.5492,1.5756,1.5756,1.6271,1.6258,1.5768,1.6283,1.6522,1.9942,0.0,1.841,1.8864,1.8449,1.8083,0.0,1.9177,1.9431,1.9879,2.0139,2.0379,2.0555,2.026,2.0544,2.235,2.2805,2.3376,2.4798,2.5284,2.5732,2.621,2.642,2.634,2.5828,2.5791,2.5873,2.6094,2.6164,2.6233,2.6465,2.6533,2.6533,2.6533,2.6533,2.6533,2.6533,2.6013,2.6013,2.6521,2.5611,2.529,2.5383,2.5065,2.4253,2.3078,2.3078,2.3078,2.3078,2.3078,2.3078,2.3078,2.3078,2.3078,2.3078,2.3078,2.2941,2.2635,2.1868,2.0832,1.9798,1.9798,1.98,1.9811,1.9811,2.1169,2.1866,1.7652,1.709,1.7709,1.7723,1.7118,1.6785,1.7855,1.728,1.671,1.7544,1.7076,1.6752,1.7544,1.7076,1.6637,1.7034,1.6752,1.6522,1.6522,1.6522,1.6522,1.6522,1.6522,1.6308,1.5756,1.607,1.5881,1.4815,1.4714,1.4538,1.411,1.4488,1.4966,1.548,1.5492,1.5706,1.612,1.6258,1.6321,1.6321,1.6459,1.6459,1.6333,1.6459,1.6522,2.167,2.0472,1.9336,1.976,1.9392,1.9036,1.9771,2.0204,2.0526,2.059,2.091,2.1181,2.1068,2.1025,2.1433,2.2918,2.3537,2.4345,2.5735,2.628,2.6463,2.6468,2.6525,2.6478,2.649,2.6533,2.6533,2.6533,2.6533,2.6533,2.6533,2.6533,2.6533,2.6533,2.6533,2.6533,2.6533,2.6151,2.6151,2.6521,2.5899,2.5405,2.5152,2.5458,2.4664,2.3078,2.3078,2.3078,2.3078,2.3078,2.3078,2.3078,2.3078,2.3078,2.3078,2.3078,2.3076,2.3041,2.2446,2.1151,1.9801,1.9801,1.9797,2.0022,2.1197,2.253,2.294,1.9798,1.8693,1.8405,1.8154,1.7666,1.7437,1.8175,1.7814,1.7394,1.7987,1.7626,1.7435,1.7987,1.7626,1.7229,1.7312,1.7076,1.6795,1.6552,1.6522,1.6522,1.6522,1.6522,1.6409,1.6107,1.6333,1.617,1.5329,1.548,1.5392,1.4878,1.513,1.5492,1.6045,1.607,1.6208,1.6509,1.6522,1.6522,1.6522,1.6522,1.6522,1.6522,1.6522,1.6522,2.2802,2.1716,2.0437,2.0733,2.0403,2.0138,2.0681,2.1365,2.1753,2.1101,2.1553,2.1925,2.1371,2.1422,2.1904,2.2994,2.3881,2.4953,2.6334,2.6528,2.6528,2.6528,2.6528,2.6487,2.649,2.6533,2.6533,2.6533,2.6533,2.6533,2.6533,2.6445,2.6433,2.6533,2.6445,2.6445,2.6533,2.6533,2.6533,2.6521,2.6375,2.5803,2.482,2.561,2.4913,2.3078,2.3078,0.0,2.3078,2.3078,2.3078,2.3078,2.3078,2.3078,2.3125,2.3075,2.3116,2.3073,2.2703,2.1368,1.9855,2.0234,2.0356,2.0799,2.2936,2.345,2.305,2.1743,2.033,1.9057,1.8391,1.8224,1.8263,1.8341,1.8224,1.8145,1.8302,1.8224,1.8145,1.8302,1.8224,1.7987,1.7626,1.7463,1.7271,1.6795,1.6752,1.671,1.6637,1.6637,1.6595,1.6522,1.6522,1.6333,1.5856,1.6245,1.6351,1.5967,1.586,1.6032,1.6497,1.668,1.668,1.6522,1.6595,1.6595,1.6522,1.6522,1.6522,1.6522,1.6522,1.6522,2.2284,2.2521,2.2457,2.1854,2.1106,2.0692,2.1542,2.1815,2.2063,2.2628,2.2811,2.317,2.3986,2.3248,2.3066,2.4855,2.517,2.5548,2.6371,2.6527,2.6527,2.6527,2.6527,2.6515,2.6533,2.6533,2.6533,2.6533,2.6533,2.6533,2.6533,2.6,2.595,2.6508,2.5988,2.5963,2.6521,2.6533,2.6533,2.6521,2.5876,2.5266,2.4795,2.3977,2.3447,2.3078,0.0,2.3078,2.3078,2.3078,2.3078,2.3078,2.3078,2.3078,2.31,2.3119,2.3067,2.2831,2.0967,2.0079,2.0178,2.2323,2.3012,2.3076,2.3481,2.2855,2.1704,2.0397,2.0318,2.0365,1.9118,1.8779,1.8893,1.9369,1.8765,1.8341,1.9244,1.8727,1.838,1.9281,1.8727,1.8224,1.8574,1.8302,1.7947,1.7867,1.7867,1.7706,1.7229,1.7188,1.6993,1.6552,1.6522,1.6484,1.6396,1.6471,1.6685,1.7029,1.6625,1.6421,1.6522,1.7394,1.7422,1.6522,1.6951,1.6951,1.6522,1.6522,1.6522,1.6522,1.6522,1.6522,2.1719,2.2046,2.2268,2.2493,2.2696,2.2919,2.302,2.3021,2.3158,2.3541,2.3351,2.3389,2.4217,2.4075,2.4316,2.582,2.6038,2.6126,2.6414,2.6533,2.6533,2.6533,2.6533,2.6533,2.6533,2.6533,2.6533,2.6533,2.6533,2.6395,2.6013,2.5737,2.5586,2.5573,2.531,2.531,2.5573,2.5573,2.5875,2.6521,2.6151,2.5871,2.5679,2.3889,2.3078,2.3078,0.0,2.3573,2.4308,2.3462,2.3076,2.3097,2.3114,2.3076,2.3147,2.3305,2.3366,2.3224,2.2228,2.1857,2.2048,2.323,2.3596,2.3585,2.3598,2.2179,2.0621,2.0759,2.0542,2.0154,1.9509,1.9332,1.9406,1.9639,1.9332,1.9095,1.9603,1.9332,1.9132,1.9603,1.9281,1.8968,1.8893,1.8688,1.8419,1.8145,1.8106,1.8027,1.7747,1.7747,1.7626,1.7394,1.7118,1.7034,1.7353,1.7118,1.7034,1.7271,1.7353,1.7353,1.7353,1.7827,1.7867,1.7394,1.7312,1.7188,1.6909,1.6637,1.6522,1.6522,1.6522,1.6522,2.1142,2.1393,2.1694,2.2535,2.3401,2.4067,2.4167,2.3991,2.3866,2.4142,2.3841,2.3665,2.4104,2.4644,2.5272,2.6126,2.6445,2.6533,2.6533,2.6533,2.6533,2.6533,2.6533,2.6533,2.6533,2.6533,2.6533,2.6533,2.6395,2.6063,2.5624,2.5485,2.5234,2.4833,2.4946,2.5008,2.5008,2.5124,2.558,2.6261,2.644,2.6465,2.6412,2.4137,2.3078,2.3125,2.311,2.3793,2.482,2.4328,2.415,2.416,2.416,2.4169,2.4109,2.3754,2.3596,2.3587,2.3576,2.3593,2.3584,2.3584,2.3585,2.3595,2.3606,2.2076,2.0462,2.1277,2.0805,1.9966,1.9735,1.969,1.969,1.969,1.969,1.969,1.969,1.969,1.969,1.969,1.969,1.9566,1.9169,1.9095,1.8968,1.8535,1.8458,1.8419,1.8302,1.8302,1.8263,1.8106,1.7747,1.7666,1.8066,1.7827,1.7666,1.7666,1.8066,1.8224,1.8106,1.8341,1.838,1.8106,1.7827,1.7626,1.7504,1.6951,1.668,1.668,1.6552,1.6522,2.0564,2.1104,2.1506,2.1594,2.1669,2.2259,2.4293,2.3891,2.3428,2.4544,2.4732,2.4707,2.4757,2.5197,2.5573,2.5649,2.6101,2.6533,2.6533,2.6533,2.6533,2.6533,2.6533,2.6533,2.6533,2.6533,2.6533,2.6533,2.5963,2.5636,2.5598,2.5146,2.4858,2.482,2.5285,2.5536,2.5536,2.6108,2.6112,2.5497,2.6138,2.6502,2.6387,2.4157,2.3078,2.3113,2.3081,2.3174,2.3495,2.619,2.7283,2.7269,2.7297,2.7267,2.6975,2.449,2.3617,2.358,2.3614,2.3611,2.3596,2.3596,2.3625,2.3593,2.3606,2.2911,2.1951,2.124,2.1001,2.0708,1.9921,1.969,1.969,1.969,1.969,1.969,1.969,1.969,1.969,1.969,1.969,1.969,1.9639,1.9639,1.9639,1.9603,1.9566,1.9406,1.8893,1.8855,1.865,1.8145,1.8066,1.8066,1.8106,1.8535,1.8779,1.8779,1.8817,1.8612,1.8145,1.9043,1.9132,1.8145,1.8535,1.8535,1.8027,1.7504,1.7229,1.7229,1.671,1.6522,1.9585,2.0037,2.0614,2.1305,2.1504,2.2002,2.3841,2.4223,2.4349,2.5169,2.5046,2.482,2.482,2.5247,2.5598,2.5598,2.6088,2.6533,2.6533,2.6533,2.6533,2.6533,2.6533,2.6533,2.6533,2.6533,2.6533,2.6533,2.5925,2.546,2.5134,2.4607,2.4142,2.3716,2.3966,2.4067,2.4067,2.428,2.4279,2.4002,2.568,2.5759,2.4392,2.3513,2.3072,2.3081,2.3129,2.4133,2.5992,2.7115,2.7603,2.7579,2.7609,2.7599,2.726,2.4619,2.361,2.3599,2.3596,2.3595,2.3595,2.3595,2.3595,2.358,2.3603,2.2798,2.2024,2.2466,2.1469,2.0115,1.9801,1.969,1.969,1.969,1.969,1.969,1.969,1.969,1.969,1.969,1.969,1.969,1.969,1.969,1.969,1.969,1.969,1.9639,1.9406,1.9406,1.9332,1.9132,1.9095,1.8968,1.8612,1.9095,1.9406,1.9406,1.9406,1.9332,1.9095,1.9479,1.953,1.9095,1.8968,1.8817,1.8612,1.8066,1.7787,1.7787,1.7229,1.6993,1.907,1.9409,2.0024,2.0991,2.1365,2.1888,2.3351,2.4134,2.4774,2.572,2.531,2.487,2.5034,2.5222,2.541,2.5573,2.6088,2.6533,2.6533,2.6533,2.6533,2.6533,2.6533,2.6533,2.6533,2.6533,2.6533,2.6533,2.5774,2.5197,2.4845,2.4293,2.3728,2.309,2.3416,2.3602,2.3513,2.355,2.3834,2.417,2.5026,2.4589,2.3096,2.3125,2.3132,2.3122,2.4133,2.5688,2.7583,2.7572,2.7593,2.756,2.7124,2.6696,2.6117,2.4263,2.36,2.3595,2.3595,2.3595,2.3595,2.3595,2.3595,2.3595,2.3595,2.2996,2.2394,2.2858,2.2015,2.0736,1.9927,1.969,1.969,1.969,1.969,1.969,1.969,1.969,1.969,1.969,1.969,1.969,1.969,1.969,1.969,1.969,1.969,1.969,1.969,1.969,1.969,1.969,1.969,1.9566,1.9169,1.9479,1.96,1.939,1.9375,1.9465,1.9675,1.969,1.969,1.969,1.9332,1.9169,1.9169,1.8612,1.8341,1.8341,1.7787,1.7463,1.9108,1.9397,1.9936,2.0567,2.1146,2.1794,2.2887,2.3603,2.4453,2.6126,2.5573,2.4971,2.5498,2.5172,2.4996,2.5511,2.6088,2.6533,2.6533,2.6533,2.6533,2.6533,2.6533,2.6533,2.6533,2.6533,2.6533,2.6521,2.5435,2.482,2.4808,2.4293,2.3728,2.309,2.423,2.4645,2.4305,2.4631,2.5376,2.6423,2.417,2.3138,2.3125,2.3127,2.3135,2.3334,2.6281,2.7583,2.7592,2.7575,2.7549,2.7425,2.6109,2.4809,2.3609,2.361,2.3585,2.3595,2.3595,2.3595,2.3595,2.3595,2.3595,2.3595,2.3595,2.3595,2.3325,2.2069,2.2595,2.2963,2.0376,1.9726,1.9726,1.969,1.969,1.969,1.969,1.969,1.969,1.969,1.969,1.969,1.969,1.969,1.969,1.969,1.969,1.969,1.969,1.969,1.969,1.969,1.969,1.969,1.969,1.969,1.9405,1.8747,1.8702,1.8986,1.963,1.9675,1.9675,1.9675,1.969,1.969,1.969,1.9169,1.8893,1.8893,1.838,1.7827,1.8336,1.8844,1.9484,2.0439,2.212,2.3716,2.4358,2.4246,2.4248,2.5119,2.5525,2.5762,2.5918,2.6153,2.631,2.6466,2.6534,2.6533,2.6533,2.6533,2.6533,2.6533,2.6533,2.6533,2.6533,2.6533,2.6289,2.5887,2.5209,2.4657,2.4268,2.3703,2.3253,2.3078,2.3403,2.3577,2.3427,2.3525,2.3748,2.4119,2.3435,2.4188,2.6253,2.626,2.6272,2.6295,2.72,2.7595,2.745,2.5583,2.5334,2.6176,2.5755,2.5197,2.4521,2.3851,2.3583,2.3595,2.3595,2.3595,2.3595,2.3595,2.3595,2.3595,2.3595,2.3595,2.3509,2.3147,2.2,2.0662,1.9886,2.0125,2.0454,1.9827,1.969,1.969,1.969,1.969,1.969,1.969,1.969,1.969,1.969,1.969,1.969,1.969,1.969,1.969,1.969,1.969,1.969,1.969,1.969,1.969,1.969,1.969,1.96,1.9405,1.8957,1.8583,1.8313,1.8747,1.9001,1.9001,1.945,1.969,1.969,1.953,1.9442,1.9442,1.8893,1.8574,1.8573,1.9482,2.0373,2.1504,2.3149,2.457,2.5078,2.5181,2.5305,2.5631,2.5946,2.6284,2.6754,2.6929,2.7046,2.7207,2.7168,2.6969,2.6533,2.6533,2.6533,2.6533,2.6476,2.6519,2.6508,2.6261,2.5958,2.5611,2.4908,2.4356,2.4017,2.3452,2.3078,2.3078,2.3078,2.3078,2.3078,2.3078,2.3078,2.3138,2.4287,2.5635,2.7003,2.7442,2.7607,2.7583,2.7579,2.698,2.5938,2.5041,2.4929,2.5332,2.5259,2.5033,2.4717,2.3894,2.3595,2.3595,2.3595,2.3595,2.3595,2.3595,2.3595,2.3595,2.3595,2.3269,2.2717,2.2218,2.1158,2.0192,2.0098,2.0617,2.0897,1.9935,2.0041,2.03,1.998,2.007,2.0208,2.0208,2.0085,2.0015,2.0174,1.9909,1.9747,1.9909,1.9818,1.969,1.969,1.969,1.969,1.969,1.969,1.969,1.969,1.969,1.957,1.9316,1.8927,1.8403,1.7712,1.8358,1.8702,1.8702,1.9346,1.969,1.969,1.969,1.969,1.969,1.9369,1.9095,1.9379,2.0617,2.1916,2.3078,2.4054,2.4844,2.5554,2.6382,2.699,2.6903,2.6569,2.6641,2.7732,2.7598,2.7385,2.7693,2.7894,2.7617,2.6607,2.6471,2.6483,2.6521,2.6515,2.6493,2.6526,2.5889,2.5535,2.5526,2.4633,2.4054,2.3916,2.3427,2.3078,2.3078,2.3078,2.3078,2.3078,2.3078,2.3236,2.3564,2.6113,2.6918,2.6286,2.7154,2.7621,2.763,2.7607,2.6164,2.3996,2.5523,2.5674,2.4867,2.4582,2.4492,2.4462,2.3819,2.3595,2.3595,2.3595,2.3595,2.3595,2.3595,2.3595,2.358,2.3447,2.2634,2.1439,2.0056,2.031,2.0925,2.0662,2.1003,2.1166,2.008,2.059,2.1183,2.0514,2.0698,2.0991,2.0991,2.0649,2.0516,2.0926,2.0345,1.9945,2.0314,2.007,1.9818,1.9818,1.9782,1.9747,1.9747,1.9711,1.969,1.969,1.969,1.9435,1.8837,1.8732,1.8433,1.7802,1.8388,1.8702,1.8702,1.9346,1.969,1.969,1.969,1.969,1.969,1.969,1.9442,1.8517,1.955,2.0758,2.2876,2.4737,2.6375,2.7659,2.7661,2.7126,2.5981,2.6512,2.7297,2.7569,2.7855,2.8152,2.832,2.7489,2.677,2.6526,2.647,2.6518,2.6483,2.6515,2.647,2.6467,2.6348,2.5923,2.5027,2.4772,2.424,2.3351,2.314,2.3078,2.3078,2.3078,2.3078,2.3078,2.3078,2.4274,2.661,2.5683,2.5938,2.7273,2.7496,2.76,2.7578,2.7595,2.6904,2.5706,2.5423,2.4717,2.3908,2.3834,2.3819,2.3804,2.3655,2.3595,2.3595,2.3595,2.3595,2.3595,2.3595,2.3595,2.3402,2.2401,2.1925,2.1401,2.0094,2.0173,2.0693,2.0618,2.107,2.1417,2.0829,2.0893,2.1039,2.0862,2.0926,2.0991,2.0991,2.0926,2.0894,2.0991,2.0829,2.0764,2.0829,2.0764,2.0698,2.0698,2.0398,2.0193,2.0193,1.9874,1.969,1.969,1.969,1.963,1.948,1.8986,1.8642,1.8493,1.8627,1.8702,1.8702,1.9346,1.969,1.969,1.969,1.969,1.969,1.969,1.9639,1.7729,1.9395,2.1296,2.4191,2.5706,2.6756,2.7854,2.7829,2.7408,2.6587,2.7035,2.7636,2.7959,2.8341,2.8586,2.8512,2.822,2.7459,2.5921,2.6142,2.6335,2.574,2.6284,2.6466,2.5752,2.5847,2.5646,2.4833,2.4307,2.3764,2.315,2.3078,2.3078,2.3078,2.3078,2.3078,2.3078,2.3078,2.4281,2.6516,2.5695,2.6104,2.758,2.758,2.7616,2.7595,2.7244,2.669,2.5905,2.5137,2.4342,2.3595,2.3595,2.3595,2.3595,2.3595,2.3595,2.3595,2.3595,2.3595,2.3595,2.3595,2.34,2.2999,2.2236,2.1624,2.1081,2.0348,2.0466,2.0859,2.1038,2.1509,2.1869,2.1675,2.1615,2.1554,2.1354,2.1446,2.1615,2.1615,2.1446,2.1354,2.1584,2.1383,2.1101,2.0847,2.1023,2.1183,2.1183,2.0877,2.0616,2.0616,2.0431,2.0243,2.0,2.0,1.9909,1.9711,1.9361,1.9166,1.9166,1.9166,1.9031,1.8717,1.9346,1.969,1.969,1.969,1.969,1.969,1.969,1.969,1.6732,1.9412,2.2247,2.5063,2.613,2.6669,2.7255,2.7524,2.7625,2.7625,2.7625,2.779,2.8323,2.8554,2.8621,2.8361,2.8851,2.8312,2.568,2.6087,2.6264,2.5269,2.6126,2.6387,2.5306,2.5351,2.5361,2.5258,2.4171,2.3515,2.3518,2.3242,2.3097,2.3097,2.31,2.3078,2.3078,2.3078,2.385,2.5398,2.6078,2.6789,2.7625,2.7625,2.7625,2.758,2.6871,2.6213,2.5555,2.4896,2.4223,2.3595,2.3595,2.3595,2.3595,2.3595,2.3595,2.3595,2.3595,2.3595,2.358,2.3475,2.3101,2.2622,2.2166,2.1391,2.0655,2.0599,2.0767,2.1086,2.1491,2.1957,2.231,2.231,2.231,2.218,2.1794,2.2032,2.231,2.231,2.2003,2.1823,2.2237,2.1907,2.139,2.094,2.1261,2.155,2.155,2.1358,2.1183,2.1118,2.1023,2.0829,2.0449,2.0416,2.0261,1.9854,1.9803,1.9782,1.969,1.969,1.9435,1.8882,1.9405,1.969,1.969,1.969,1.969,1.969,1.969,1.969,1.4968,1.8522,2.1869,2.2678,2.471,2.651,2.6616,2.7137,2.7625,2.7625,2.7625,2.7655,2.7694,2.7775,2.7742,2.7703,2.7806,2.7744,2.7271,2.7169,2.7034,2.672,2.6217,2.613,2.682,2.5964,2.5883,2.7103,2.5883,2.5065,2.5119,2.3804,2.3083,2.3083,2.3094,2.3078,2.3078,2.3078,2.3897,2.5425,2.6765,2.7488,2.7625,2.7625,2.7625,2.758,2.6871,2.6213,2.5555,2.4896,2.4223,2.3595,2.3595,2.3595,2.3595,2.3595,2.3595,2.3595,2.3595,2.3595,2.3505,2.2981,2.2783,2.2458,2.1267,2.0789,2.0648,2.0419,2.0663,2.1086,2.1491,2.1957,2.231,2.231,2.231,2.2282,2.2209,2.2254,2.231,2.231,2.2254,2.2237,2.2282,2.2237,2.2163,2.2073,2.2123,2.2185,2.2185,2.2165,2.1972,2.1554,2.1213,2.0959,2.0926,2.0894,2.0731,2.0246,2.0212,2.0054,1.9711,1.969,1.9645,1.9555,1.963,1.969,1.969,1.969,1.969,1.969,1.969,1.969,1.4736,1.6842,1.8894,2.1244,2.3027,2.4477,2.5726,2.6512,2.7086,2.7509,2.7625,2.7625,2.7625,2.7625,2.7619,2.7586,2.7616,2.7432,2.6852,2.707,2.699,2.6185,2.6399,2.6582,2.661,2.6597,2.692,2.7535,2.698,2.6643,2.6636,2.599,2.4855,2.3137,2.3116,2.3089,2.3116,2.3116,2.4,2.5793,2.7041,2.743,2.7021,2.7021,2.7021,2.6976,2.6318,2.5766,2.5182,2.4373,2.3879,2.3595,2.3595,2.3595,2.3595,2.3595,2.3595,2.3595,2.3595,2.3595,2.355,2.3281,2.2712,2.2024,2.144,2.0737,2.021,2.0592,2.0717,2.0958,2.1777,2.2152,2.231,2.231,2.231,2.231,2.231,2.231,2.231,2.231,2.231,2.231,2.231,2.231,2.231,2.231,2.231,2.231,2.231,2.2298,2.2228,2.202,2.184,2.1615,2.1368,2.1337,2.1134,2.0715,2.0449,2.0212,2.0019,1.9818,1.969,1.969,1.969,1.969,1.969,1.969,1.969,1.969,1.969,1.969,1.3644,1.4846,1.613,1.9499,2.125,2.2661,2.4602,2.5812,2.6669,2.7203,2.7458,2.7625,2.7625,2.7625,2.7625,2.7625,2.7625,2.7327,2.6576,2.6987,2.7039,2.6042,2.6777,2.7111,2.6515,2.7137,2.7609,2.7588,2.7598,2.7621,2.7617,2.7609,2.6582,2.4299,2.4,2.3997,2.4229,2.4244,2.4969,2.6496,2.724,2.7325,2.6834,2.6479,2.6284,2.6171,2.5585,2.5197,2.4822,2.3983,2.3595,2.3595,2.3595,2.3595,2.3595,2.3595,2.3595,2.3595,2.3595,2.3595,2.3565,2.3415,2.2607,2.1665,2.15,2.0693,2.0,2.0764,2.0911,2.1019,2.2044,2.231,2.231,2.231,2.231,2.231,2.231,2.231,2.231,2.231,2.231,2.231,2.231,2.231,2.231,2.231,2.231,2.231,2.231,2.231,2.231,2.231,2.231,2.2163,2.1794,2.1794,2.1598,2.1181,2.0715,2.0416,2.0299,1.9909,1.969,1.969,1.969,1.969,1.969,1.969,1.969,1.969,1.969,1.969,1.0601,1.2574,1.4887,1.6588,1.9416,2.2018,2.3237,2.5051,2.651,2.6563,2.7086,2.7625,2.7625,2.7625,2.7625,2.7625,2.7625,2.756,2.7509,2.7539,2.7554,2.7509,2.7539,2.7554,2.7539,2.7575,2.759,2.7619,2.7604,2.7604,2.7584,2.7594,2.7545,2.7389,2.6436,2.6371,2.7353,2.735,2.7404,2.7539,2.7601,2.7575,2.7519,2.6232,2.5456,2.5078,2.4762,2.4627,2.4582,2.3879,2.3595,2.3595,2.3595,2.3595,2.3595,2.3595,2.3595,2.3595,2.3595,2.3595,2.3505,2.2921,2.2263,2.1575,2.0961,2.0521,2.0382,2.0862,2.1179,2.1497,2.2147,2.231,2.231,2.231,2.231,2.231,2.231,2.231,2.231,2.231,2.231,2.231,2.231,2.231,2.231,2.231,2.231,2.231,2.231,2.231,2.231,2.231,2.231,2.2282,2.2282,2.2254,2.2061,2.1598,2.1181,2.0748,2.0314,1.9909,1.969,1.969,1.969,1.969,1.969,1.969,1.969,1.969,1.969,1.969,1.0279,1.118,1.2449,1.4596,1.649,1.8553,2.1208,2.2837,2.4339,2.613,2.6373,2.652,2.7434,2.7625,2.7625,2.7625,2.7625,2.7625,2.7625,2.7625,2.7625,2.7625,2.7625,2.7625,2.7625,2.7625,2.7625,2.7625,2.7625,2.7625,2.7625,2.7587,2.7586,2.7594,2.7234,2.7254,2.7617,2.7587,2.758,2.758,2.7584,2.759,2.7534,2.6231,2.5055,2.4104,2.3985,2.3969,2.3954,2.3699,2.3595,2.3595,2.3595,2.3595,2.3595,2.3595,2.3595,2.3595,2.3595,2.3595,2.3593,2.3732,2.2859,2.1753,2.2112,2.1335,2.0434,2.1165,2.1283,2.1319,2.2084,2.231,2.231,2.231,2.231,2.231,2.231,2.231,2.231,2.231,2.231,2.231,2.231,2.231,2.231,2.231,2.231,2.231,2.231,2.231,2.231,2.231,2.231,2.231,2.231,2.231,2.2237,2.2061,2.1628,2.1197,2.0764,2.033,1.9965,1.9726,1.969,1.969,1.969,1.969,1.969,1.969,1.969,1.969,0.9724,1.0097,1.0761,1.2904,1.4389,1.6061,1.9003,2.0915,2.2657,2.4669,2.5307,2.5872,2.7019,2.7229,2.737,2.758,2.7625,2.7625,2.7625,2.7625,2.7625,2.7625,2.7625,2.7625,2.7625,2.7625,2.7625,2.7625,2.7625,2.7625,2.7625,2.7624,2.7587,2.7575,2.7624,2.7587,2.7575,2.7625,2.7625,2.7625,2.7625,2.7111,2.6243,2.5809,2.4894,2.3585,2.3598,2.3595,2.3595,2.3595,2.3595,2.3595,2.3595,2.3595,2.3595,2.3595,2.3595,2.3595,2.3595,2.3724,2.3921,2.4266,2.3566,2.2601,2.3059,2.2229,2.1197,2.137,2.1404,2.1562,2.2158,2.231,2.231,2.231,2.231,2.231,2.231,2.231,2.231,2.231,2.231,2.231,2.231,2.231,2.231,2.231,2.231,2.231,2.231,2.231,2.231,2.231,2.231,2.231,2.231,2.231,2.231,2.231,2.1869,2.1491,2.1213,2.0616,2.0193,1.9909,1.9782,1.969,1.969,1.969,1.969,1.969,1.969,1.969,0.0,0.0,0.0,1.1551,1.3103,1.4767,1.6707,1.9385,2.1627,2.211,2.3879,2.5543,2.627,2.6476,2.6782,2.7475,2.761,2.761,2.761,2.761,2.7625,2.7625,2.7625,2.7625,2.7625,2.7625,2.7625,2.7625,2.7625,2.7625,2.7625,2.7625,2.7625,2.7625,2.7625,2.7625,2.7625,2.7625,2.7625,2.7625,2.7625,2.6189,2.3667,2.4961,2.4806,2.361,2.361,2.3595,2.3595,2.3595,2.3595,2.3595,2.3595,2.3595,2.3595,2.3595,2.3595,2.3595,2.3595,2.3948,2.4389,2.443,2.4304,2.4083,2.3601,2.3203,2.265,2.1374,2.1655,2.2282,2.231,2.231,2.231,2.231,2.231,2.231,2.231,2.231,2.231,2.231,2.231,2.231,2.231,2.231,2.231,2.231,2.231,2.231,2.231,2.231,2.231,2.231,2.231,2.231,2.231,2.231,2.231,2.231,2.1869,2.1612,2.1582,2.0797,2.0348,2.0314,1.9909,1.9711,1.9711,1.9726,1.969,1.969,1.969,1.969,0.8804,0.0,0.0,0.0,0.0,0.0,1.4612,1.6081,1.7622,2.0006,2.0987,2.2065,2.4026,2.4848,2.5745,2.7269,2.7576,2.762,2.758,2.7595,2.7625,2.7625,2.7625,2.7625,2.7625,2.7625,2.7625,2.7625,2.7625,2.7625,2.7625,2.7625,2.7625,2.7625,2.7625,2.7625,2.7625,2.7625,2.7625,2.7625,2.7625,2.6179,2.3592,2.3974,2.3963,2.36,2.3612,2.3595,2.3595,2.3595,2.3595,2.3595,2.3595,2.3595,2.3595,2.3595,2.3595,2.3681,2.4032,2.4266,2.4552,2.5297,2.4692,2.3759,2.4477,2.3968,2.2932,2.2161,2.2126,2.2308,2.2288,2.231,2.231,2.231,2.231,2.231,2.231,2.231,2.231,2.231,2.231,2.231,2.231,2.231,2.231,2.231,2.231,2.231,2.231,2.231,2.231,2.231,2.231,2.231,2.231,2.231,2.231,2.231,2.218,2.1957,2.1612,2.1352,2.1102,2.0829,2.0348,2.0124,2.0124,1.9839,1.969,1.969,1.969,1.969,0.8838,0.8804,0.8937,0.9418,0.0,0.0,1.251,1.3678,1.5004,1.7134,1.8375,1.9651,2.1825,2.333,2.4892,2.6824,2.7618,2.8018,2.8093,2.7837,2.7618,2.7618,2.762,2.7625,2.7625,2.7578,2.7607,2.7575,2.7578,2.7607,2.7575,2.7625,2.7625,2.7625,2.7625,2.7625,2.7625,2.7625,2.7625,2.7625,2.7605,2.6797,2.525,2.4707,2.4117,2.3585,2.3583,2.3595,2.3595,2.3595,2.3595,2.3595,2.3595,2.3595,2.3595,2.3595,2.3767,2.3933,2.403,2.4436,2.5032,2.5493,2.5242,2.49,2.5598,2.5262,2.4579,2.424,2.3237,2.23,2.2304,2.231,2.231,2.231,2.231,2.231,2.231,2.231,2.231,2.231,2.231,2.231,2.231,2.231,2.231,2.231,2.231,2.231,2.231,2.231,2.231,2.231,2.231,2.231,2.231,2.231,2.231,2.231,2.231,2.218,2.1899,2.1688,2.1491,2.1244,2.0813,2.0483,2.0314,1.9909,1.969,1.969,1.969,1.969,0.8971,0.8905,0.8965,0.9225,0.9512,0.0,1.0669,1.1969,1.3296,1.4011,1.5776,1.7713,1.9408,2.1509,2.363,2.572,2.7248,2.8372,2.8958,2.8451,2.7934,2.7638,2.7709,2.7825,2.779,2.7839,2.7862,2.8041,2.778,2.7602,2.759,2.7625,2.7625,2.7625,2.7625,2.7625,2.7625,2.7625,2.7515,2.7395,2.7353,2.7294,2.7118,2.5925,2.4716,2.3595,2.3595,2.3595,2.3595,2.3595,2.3595,2.3595,2.3595,2.3623,2.3593,2.358,2.3903,2.425,2.3896,2.4585,2.5625,2.5409,2.5979,2.6691,2.6708,2.6689,2.67,2.6713,2.4574,2.23,2.2304,2.231,2.231,2.231,2.231,2.231,2.231,2.231,2.231,2.231,2.231,2.231,2.231,2.231,2.231,2.231,2.231,2.231,2.231,2.231,2.231,2.231,2.231,2.231,2.231,2.231,2.231,2.231,2.231,2.231,2.231,2.1899,2.1688,2.1688,2.1213,2.0764,2.0314,1.9909,1.969,1.969,1.969,1.969,0.9526,0.9512,0.9526,0.9586,0.9667,0.0,1.0331,1.0662,1.112,1.1902,1.2901,1.415,1.5886,1.7752,1.9825,2.2405,2.4611,2.7104,3.0277,3.0741,2.9958,2.7856,2.8553,2.92,2.9228,2.9184,2.9613,3.0649,2.8767,2.7584,2.7575,2.7625,2.7625,2.7625,2.7625,2.7625,2.7625,2.7625,2.7041,2.5963,2.5967,2.5408,2.4386,2.4103,2.3852,2.3595,2.3595,2.3595,2.3595,2.3595,2.3595,2.3595,2.3595,2.3586,2.3584,2.3618,2.3655,2.385,2.4625,2.5078,2.5409,2.6166,2.6522,2.6708,2.6704,2.6702,2.6696,2.6684,2.4582,2.23,2.2304,2.231,2.231,2.231,2.231,2.231,2.231,2.231,2.231,2.231,2.231,2.231,2.231,2.231,2.231,2.231,2.231,2.231,2.231,2.231,2.231,2.231,2.231,2.231,2.231,2.231,2.231,2.231,2.231,2.231,2.231,2.2209,2.2163,2.2163,2.1401,2.0764,2.0314,1.9909,1.969,1.969,1.969,1.969,0.9726,0.9686,0.9646,0.9499,0.9573,0.0,0.0,0.9896,1.0165,1.0699,1.1304,1.2169,1.3577,1.5403,1.7436,1.956,2.2142,2.4683,2.7033,2.8873,3.0054,3.0177,2.9243,2.9134,3.0426,2.997,2.9613,2.9531,2.8327,2.7625,2.7625,2.7625,2.7625,2.7625,2.7625,2.7625,2.7625,2.7625,2.7255,2.657,2.5257,2.4232,2.3606,2.3599,2.3613,2.3595,2.3595,2.3595,2.3595,2.3595,2.3595,2.3595,2.3595,2.3598,2.3657,2.4219,2.4067,2.3681,2.4233,2.5065,2.603,2.6522,2.6691,2.6708,2.669,2.5662,2.4491,2.4522,2.3427,2.23,2.2304,2.231,2.231,2.231,2.231,2.231,2.231,2.231,2.231,2.231,2.231,2.231,2.231,2.231,2.231,2.231,2.231,2.231,2.231,2.231,2.231,2.231,2.231,2.231,2.231,2.231,2.231,2.231,2.231,2.231,2.231,2.231,2.231,2.231,2.1645,2.107,2.0649,2.0193,1.9909,1.969,1.969,1.969,0.992,0.9813,0.9719,0.9539,0.9633,0.9706,0.0,0.0,0.0,1.0,1.0355,1.0974,1.1888,1.3579,1.5263,1.6776,1.9458,2.1616,2.2396,2.5328,2.8406,3.1225,2.9574,2.8925,3.083,3.0365,2.9312,2.7698,2.7607,2.7625,2.7625,2.7625,2.7625,2.7625,2.7625,2.7625,2.7625,2.7625,2.7565,2.7365,2.5066,2.3833,2.3583,2.3615,2.3595,2.3595,2.3595,2.3595,2.3595,2.3595,2.3595,2.3595,2.3595,2.3682,2.3921,2.4945,2.4821,2.4191,2.4184,2.5287,2.6691,2.6691,2.6707,2.6723,2.6721,2.4642,2.2306,2.2295,2.23,2.2295,2.2288,2.231,2.231,2.231,2.231,2.231,2.231,2.231,2.231,2.231,2.231,2.231,2.231,2.231,2.231,2.231,2.231,2.231,2.231,2.231,2.231,2.231,2.231,2.231,2.231,2.231,2.231,2.231,2.231,2.231,2.231,2.231,2.231,2.231,2.1823,2.143,2.1118,2.0649,2.0193,1.969,1.969,1.969,1.053,1.0267,1.012,1.0354,1.0234,1.006,1.0027,0.0,1.0007,0.978,0.0,1.0027,1.0781,0.0,0.0,1.3734,1.6151,1.8126,1.8864,2.148,2.4226,2.6883,2.9024,2.9961,2.9275,3.0477,3.0268,2.7805,2.759,2.7625,2.7625,2.7625,2.7625,2.7625,2.7625,2.7625,2.7625,2.7625,2.7275,2.6692,2.5821,2.4756,2.3596,2.3613,2.3595,2.3595,2.3595,2.3595,2.3595,2.3595,2.3595,2.3595,2.3595,2.402,2.4641,2.5392,2.5951,2.6353,2.6341,2.65,2.6691,2.6691,2.6702,2.6695,2.6692,2.4636,2.231,2.2304,2.2316,2.2316,2.2282,2.231,2.231,2.231,2.231,2.231,2.231,2.231,2.231,2.231,2.231,2.231,2.231,2.231,2.231,2.231,2.231,2.231,2.231,2.231,2.231,2.231,2.231,2.231,2.231,2.231,2.231,2.231,2.231,2.231,2.231,2.231,2.231,2.231,2.1823,2.1582,2.1521,2.1118,2.0499,1.969,1.969,1.969,1.1965,1.1867,1.1684,1.1146,1.1052,1.0923,1.0269,1.0247,1.0341,1.0282,0.0,0.0,0.0,0.0,0.0,0.0,1.401,1.5702,1.6519,1.9407,2.2457,2.5034,2.6509,2.7575,2.8117,3.0197,3.0412,2.781,2.7625,2.7625,2.7625,2.7625,2.7625,2.7625,2.7625,2.7625,2.7625,2.7625,2.749,2.7156,2.6868,2.6068,2.4758,2.4343,2.3984,2.3595,2.3595,2.3595,2.3595,2.3595,2.3595,2.3653,2.4288,2.4348,2.4264,2.5735,2.647,2.6686,2.6705,2.6708,2.6691,2.6691,2.5545,2.4139,2.414,2.3283,2.2303,2.2316,2.231,2.231,2.231,2.231,2.231,2.231,2.231,2.231,2.231,2.231,2.231,2.231,2.231,2.231,2.231,2.231,2.231,2.231,2.231,2.231,2.231,2.231,2.231,2.231,2.231,2.231,2.231,2.231,2.231,2.231,2.231,2.231,2.231,2.231,2.231,2.231,2.2106,2.1869,2.1582,2.143,2.091,2.007,2.007,1.9909,1.3009,1.2934,1.2639,1.1691,1.1518,1.1417,1.0445,1.0408,1.0624,1.0624,1.0388,0.0,0.0,0.0,1.0411,1.0998,0.0,1.3767,1.4554,1.7288,2.0271,2.3122,2.4481,2.58,2.7414,2.9302,2.9638,2.7715,2.7625,2.7625,2.7625,2.7625,2.7625,2.7625,2.7625,2.7625,2.7625,2.7625,2.7625,2.761,2.7342,2.6663,2.5585,2.4732,2.4073,2.3595,2.3595,2.3593,2.3573,2.3573,2.3613,2.3663,2.4471,2.4393,2.4116,2.5879,2.6603,2.6712,2.6708,2.6691,2.6691,2.6707,2.5244,2.3353,2.2543,2.2298,2.2308,2.2288,2.231,2.2299,2.231,2.2298,2.2303,2.2312,2.23,2.2312,2.2286,2.2298,2.231,2.2299,2.231,2.231,2.231,2.231,2.231,2.231,2.231,2.231,2.231,2.231,2.231,2.231,2.231,2.231,2.231,2.231,2.231,2.231,2.231,2.231,2.231,2.231,2.231,2.231,2.231,2.2135,2.1794,2.1794,2.1337,2.0483,2.0348,2.0089,1.3009,1.2812,1.2453,1.192,1.1518,1.1196,1.0725,1.0618,1.0624,1.0624,1.0618,1.0611,1.0611,1.0611,1.0611,1.0604,1.1344,0.0,0.0,1.4455,1.6818,2.0423,2.3671,2.6097,2.7473,2.7664,2.7685,2.7625,2.7625,2.7625,2.7625,2.7625,2.7625,2.7625,2.7625,2.7625,2.7625,2.7625,2.7625,2.761,2.6736,2.6087,2.557,2.4238,2.3625,2.3595,2.3595,2.3613,2.3585,2.3585,2.3613,2.3576,2.3631,2.4076,2.4789,2.568,2.6316,2.6712,2.6708,2.6691,2.6708,2.6703,2.6656,2.6018,2.3173,2.2291,2.2299,2.231,2.231,2.2304,2.2312,2.2288,2.2294,2.231,2.2312,2.2294,2.2308,2.2288,2.2295,2.2304,2.231,2.231,2.231,2.231,2.231,2.231,2.231,2.231,2.231,2.231,2.231,2.231,2.231,2.231,2.231,2.231,2.231,2.231,2.231,2.231,2.231,2.231,2.231,2.231,2.231,2.2282,2.2282,2.2282,2.1827,2.0959,2.0516,2.0089,0.0,0.0,1.3497,1.3081,1.2898,1.2731,1.2318,1.2212,1.2027,1.1469,1.1841,1.1849,1.0807,1.1045,1.1226,1.0688,1.1288,1.2081,0.0,1.5206,1.7479,1.9197,2.155,2.421,2.7285,2.7584,2.758,2.7599,2.762,2.7625,2.7625,2.7625,2.7625,2.7625,2.7625,2.7625,2.7625,2.7625,2.7625,2.7625,2.7315,2.6864,2.6228,2.533,2.4687,2.4253,2.3789,2.3906,2.4389,2.5277,2.5258,2.4716,2.5394,2.5411,2.5028,2.5118,2.5391,2.5782,2.6469,2.6691,2.6691,2.669,2.6719,2.6136,2.3207,2.2312,2.2291,2.2316,2.231,2.2293,2.2282,2.1437,2.0582,2.0591,2.0591,2.0591,2.0591,2.147,2.2304,2.2312,2.2291,2.2283,2.2316,2.231,2.231,2.231,2.231,2.231,2.231,2.231,2.231,2.231,2.231,2.231,2.231,2.231,2.231,2.231,2.231,2.231,2.231,2.231,2.231,2.231,2.231,2.231,2.231,2.2003,2.1538,2.0991,2.0516,2.0089,1.4473,1.4346,0.0,1.3468,1.3471,1.3469,1.2889,1.2918,1.2818,1.2328,1.2634,1.2704,1.1663,1.1655,1.1648,1.1108,1.1469,1.2197,0.0,1.577,1.7634,1.7998,1.9825,2.2204,2.5141,2.5864,2.6593,2.7554,2.7595,2.762,2.761,2.7625,2.7625,2.7625,2.7625,2.7625,2.7625,2.7625,2.7625,2.7625,2.729,2.6961,2.6572,2.5914,2.5255,2.4567,2.4163,2.4234,2.4775,2.5903,2.6112,2.5799,2.6443,2.6096,2.5169,2.4827,2.5005,2.5496,2.6368,2.6691,2.6691,2.6691,2.6706,2.636,2.443,2.3134,2.2316,2.2304,2.231,2.231,2.2294,2.1016,1.9704,1.971,1.9703,1.9705,1.9712,2.0572,2.1488,2.1796,2.1903,2.2069,2.2271,2.231,2.231,2.231,2.231,2.231,2.231,2.231,2.231,2.231,2.231,2.231,2.231,2.231,2.231,2.231,2.231,2.231,2.231,2.231,2.231,2.231,2.231,2.231,2.231,2.1823,2.1399,2.0991,2.0516,2.0089]}]]